[[{"header":{"parameterUnit":"m.s-1","parameterCategory":1,"la1":31.0,"la2":29.5877,"lo1":-88.7671,"lo2":-86.6584,"dy":0.0162,"dx":0.0185,"nx":115,"ny":88,"refTime":"2024-08-04T00:00:00:Z","depth":0,"parameterNumber":2,"parameterNumberName":"U-component_of_WINDS"},"data":[0.0,0.0,0.0,0.0,0.0,0.0,0.0,0.0,0.0,0.0,0.0,0.0,0.0,0.0,0.0,0.0,0.0,0.0,0.0,0.0,0.0,0.0,0.0,0.0,0.0,0.0,0.0,0.0,0.0,0.0,0.0,0.0,0.0,0.0,0.0,0.0,0.0,0.0,0.0,0.0,0.0,0.0,0.0,0.0,0.0,0.0,0.0,0.0,0.0,0.0,0.0,0.0,0.0,0.0,0.0,0.0,0.0,0.0,0.0,0.0,0.0,0.0,0.0,0.0,0.0,0.0,0.0,0.0,0.0,0.0,0.0,0.0,0.0,0.0,0.0,0.0,0.0,0.0,0.0,0.0,0.0,0.0,0.0,0.0,0.0,0.0,0.0,0.0,0.0,0.0,0.0,0.0,0.0,0.0,0.0,0.0,0.0,0.0,0.0,0.0,0.0,0.0,0.0,0.0,0.0,0.0,0.0,0.0,0.0,0.0,0.0,0.0,0.0,0.0,0.0,0.0,0.0,0.0,0.0,0.0,0.0,0.0,0.0,0.0,0.0,0.0,0.0,0.0,0.0,0.0,0.0,0.0,0.0,0.0,0.0,0.0,0.0,0.0,0.0,0.0,0.0,0.0,0.0,0.0,0.0,0.0,0.0,0.0,0.0,0.0,0.0,0.0,0.0,0.0,0.0,0.0,0.0,0.0,0.0,0.0,0.0,0.0,0.0,0.0,0.0,0.0,0.0,0.0,0.0,0.0,0.0,0.0,0.0,0.0,0.0,0.0,0.0,0.0,0.0,0.0,0.0,0.0,0.0,0.0,0.0,0.0,0.0,0.0,0.0,0.0,0.0,0.0,0.0,0.0,0.0,0.0,0.0,0.0,0.0,0.0,0.0,0.0,0.0,0.0,0.0,0.0,0.0,0.0,0.0,0.0,0.0,0.0,0.0,0.0,0.0,0.0,0.0,0.0,0.0,0.0,0.0,0.0,0.0,0.0,0.0,0.0,0.0,0.0,0.0,0.0,0.0,0.0,0.0,0.0,0.0,0.0,0.0,0.0,0.0,0.0,0.0,0.0,0.0,0.0,0.0,0.0,0.0,0.0,0.0,0.0,0.0,0.0,0.0,0.0,0.0,0.0,0.0,0.0,0.0,0.0,0.0,0.0,0.0,0.0,0.0,0.0,0.0,0.0,0.0,0.0,0.0,0.0,0.0,0.0,0.0,0.0,0.0,0.0,0.0,0.0,0.0,0.0,0.0,0.0,0.0,0.0,0.0,0.0,0.0,0.0,0.0,0.0,0.0,0.0,0.0,0.0,0.0,0.0,0.0,0.0,0.0,0.0,0.0,0.0,0.0,0.0,0.0,0.0,0.0,0.0,0.0,0.0,0.0,0.0,0.0,0.0,0.0,0.0,0.0,0.0,0.0,0.0,0.0,0.0,0.0,0.0,0.0,0.0,0.0,0.0,0.0,0.0,0.0,0.0,0.0,0.0,0.0,0.0,0.0,0.0,0.0,0.0,0.0,0.0,0.0,0.0,0.0,0.0,0.0,0.0,0.0,0.0,0.0,0.0,0.0,0.0,0.0,0.0,0.0,0.0,0.0,0.0,0.0,0.0,0.0,0.0,0.0,0.0,0.0,0.0,0.0,0.0,0.0,0.0,0.0,0.0,0.0,0.0,0.0,0.0,0.0,0.0,0.0,0.0,0.0,0.0,0.0,0.0,0.0,0.0,0.0,0.0,0.0,0.0,0.0,0.0,0.0,0.0,0.0,0.0,0.0,0.0,0.0,0.0,0.0,0.0,0.0,0.0,0.0,0.0,0.0,0.0,0.0,0.0,0.0,0.0,0.0,0.0,0.0,0.0,0.0,0.0,0.0,0.0,0.0,0.0,0.0,0.0,0.0,0.0,0.0,0.0,0.0,0.0,0.0,0.0,0.0,0.0,0.0,0.0,0.0,0.0,0.0,0.0,0.0,0.0,0.0,0.0,0.0,0.0,0.0,0.0,0.0,0.0,0.0,0.0,0.0,0.0,0.0,0.0,0.0,0.0,0.0,0.0,0.0,0.0,0.0,0.0,0.0,0.0,0.0,0.0,0.0,0.0,0.0,0.0,0.0,0.0,0.0,0.0,0.0,0.0,0.0,0.0,0.0,0.0,0.0,0.0,0.0,0.0,0.0,0.0,0.0,0.0,0.0,0.0,0.0,0.0,0.0,0.0,0.0,0.0,0.0,0.0,0.0,0.0,0.0,0.0,0.0,0.0,0.0,0.0,0.0,0.0,0.0,0.0,0.0,0.0,0.0,0.0,0.0,0.0,0.0,0.0,0.0,0.0,0.0,0.0,0.0,0.0,0.0,0.0,0.0,0.0,0.0,0.0,0.0,0.0,0.0,0.0,0.0,0.0,0.0,0.0,0.0,0.0,0.0,0.0,0.0,0.0,0.0,0.0,0.0,0.0,0.0,0.0,0.0,0.0,0.0,0.0,0.0,0.0,0.0,0.0,0.0,0.0,0.0,0.0,0.0,0.0,0.0,0.0,0.0,0.0,0.0,0.0,0.0,0.0,0.0,0.0,0.0,0.0,0.0,0.0,0.0,0.0,0.0,0.0,0.0,0.0,0.0,0.0,0.0,0.0,0.0,0.0,0.0,0.0,0.0,0.0,0.0,0.0,0.0,0.0,0.0,0.0,0.0,0.0,0.0,0.0,0.0,0.0,0.0,0.0,0.0,0.0,0.0,0.0,0.0,0.0,0.0,0.0,0.0,0.0,0.0,0.0,0.0,0.0,0.0,0.0,0.0,0.0,0.0,0.0,0.0,0.0,0.0,0.0,0.0,0.0,0.0,0.0,0.0,0.0,0.0,0.0,0.0,0.0,0.0,0.0,0.0,0.0,0.0,0.0,0.0,0.0,0.0,0.0,0.0,0.0,0.0,0.0,0.0,0.0,0.0,0.0,0.0,0.0,0.0,0.0,0.0,0.0,0.0,0.0,0.0,0.0,0.0,0.0,0.0,0.0,0.0,0.0,0.0,0.0,0.0,0.0,0.0,0.0,0.0,0.0,0.0,0.0,0.0,0.0,0.0,0.0,0.0,0.0,0.0,0.0,0.0,0.0,0.0,0.0,0.0,0.0,0.0,0.0,0.0,0.0,0.0,0.0,0.0,0.0,0.0,0.0,0.0,0.0,0.0,0.0,0.0,0.0,0.0,0.0,0.0,0.0,0.0,0.0,0.0,0.0,0.0,0.0,0.0,0.0,0.0,0.0,0.0,0.0,0.0,0.0,0.0,0.0,0.0,0.0,0.0,0.0,0.0,0.0,0.0,0.0,0.0,0.0,0.0,0.0,0.0,0.0,0.0,0.0,0.0,0.0,0.0,0.0,0.0,0.0,0.0,0.0,0.0,0.0,0.0,0.0,0.0,0.0,0.0,0.0,0.0,0.0,0.0,0.0,0.0,0.0,0.0,0.0,0.0,0.0,0.0,0.0,0.0,0.0,0.0,0.0,0.0,0.0,0.0,0.0,0.0,0.0,0.0,0.0,0.0,0.0,0.0,0.0,0.0,0.0,0.0,0.0,0.0,0.0,0.0,0.0,0.0,0.0,0.0,0.0,0.0,0.0,0.0,0.0,0.0,0.0,0.0,0.0,0.0,0.0,0.0,0.0,0.0,0.0,0.0,0.0,0.0,0.0,0.0,0.0,0.0,0.0,0.0,0.0,0.0,0.0,0.0,0.0,0.0,0.0,0.0,0.0,0.0,0.0,0.0,0.0,0.0,0.0,0.0,0.0,0.0,0.0,0.0,0.0,0.0,0.0,0.0,0.0,0.0,0.0,0.0,0.0,0.0,0.0,0.0,0.0,0.0,0.0,0.0,0.0,0.0,0.0,0.0,0.0,0.0,0.0,0.0,0.0,0.0,0.0,0.0,0.0,0.0,0.0,0.0,0.0,0.0,0.0,0.0,0.0,0.0,0.0,0.0,0.0,0.0,0.0,0.0,0.0,0.0,0.0,0.0,0.0,0.0,0.0,0.0,0.0,0.0,0.0,0.0,0.0,0.0,0.0,0.0,0.0,0.0,0.0,0.0,0.0,0.0,0.0,0.0,0.0,0.0,0.0,0.0,0.0,0.0,0.0,0.0,0.0,0.0,0.0,0.0,0.0,0.0,0.0,0.0,0.0,0.0,0.0,0.0,0.0,0.0,0.0,0.0,0.0,0.0,0.0,0.0,0.0,0.0,0.0,0.0,0.0,0.0,0.0,0.0,0.0,0.0,0.0,0.0,0.0,1.5759,0.0,0.0,0.0,0.0,0.0,0.0,0.0,0.0,0.0,0.0,0.0,0.0,0.0,0.0,0.0,0.0,0.0,0.0,0.0,0.0,0.0,0.0,0.0,0.0,0.0,0.0,0.0,0.0,0.0,0.0,0.0,0.0,0.0,0.0,0.0,0.0,0.0,0.0,0.0,0.0,0.0,0.0,0.0,0.0,0.0,0.0,0.0,0.0,0.0,0.0,0.0,0.0,0.0,0.0,0.0,0.0,0.0,0.0,0.0,0.0,0.0,0.0,0.0,0.0,0.0,0.0,0.0,0.0,0.0,0.0,0.0,0.0,0.0,0.0,0.0,0.0,0.0,0.0,0.0,0.0,0.0,0.0,0.0,0.0,0.0,0.0,0.0,0.0,0.0,0.0,0.0,0.0,0.0,0.0,0.0,0.0,0.0,0.0,0.0,0.0,0.0,0.0,0.0,0.0,0.0,0.0,0.0,0.0,0.0,0.0,1.9221,1.8159,1.8092,1.7505,1.6187,0.0,0.0,0.0,0.0,0.0,0.0,0.0,0.0,0.0,0.0,0.0,0.0,0.0,0.0,0.0,0.0,0.0,0.0,0.0,0.0,0.0,0.0,0.0,0.0,0.0,0.0,0.0,0.0,0.0,0.0,0.0,0.0,0.0,0.0,0.0,0.0,0.0,0.0,0.0,0.0,0.0,0.0,0.0,0.0,0.0,0.0,0.0,0.0,0.0,0.0,0.0,0.0,0.0,0.0,0.0,0.0,0.0,0.0,0.0,0.0,0.0,0.0,0.0,0.0,0.0,0.0,0.0,0.0,0.0,0.0,0.0,0.0,0.0,0.0,0.0,0.0,0.0,0.0,0.0,0.0,0.0,0.0,0.0,0.0,0.0,0.0,0.0,0.0,0.0,0.0,0.0,0.0,0.0,0.0,0.0,0.0,0.0,0.0,0.0,0.0,0.0,0.0,0.0,0.0,0.0,0.0,0.0,0.0,0.0,0.0,0.0,0.0,1.8971,1.8481,1.7427,0.0,0.0,0.0,0.0,0.0,0.0,0.0,0.0,0.0,0.0,0.0,0.0,0.0,0.0,0.0,0.0,0.0,0.0,0.0,0.0,0.0,0.0,0.0,0.0,0.0,0.0,0.0,0.0,0.0,0.0,0.0,0.0,0.0,0.0,0.0,0.0,0.0,0.0,0.0,0.0,0.0,0.0,0.0,0.0,0.0,0.0,0.0,0.0,0.0,0.0,0.0,0.0,0.0,0.0,0.0,0.0,0.0,0.0,0.0,0.0,0.0,0.0,0.0,0.0,0.0,0.0,0.0,0.0,0.0,0.0,0.0,0.0,0.0,0.0,0.0,0.0,0.0,0.0,0.0,0.0,0.0,0.0,0.0,0.0,0.0,0.0,0.0,0.0,0.0,0.0,0.0,0.0,0.0,0.0,0.0,0.0,0.0,0.0,0.0,0.0,0.0,0.0,0.0,0.0,0.0,0.0,0.0,0.0,0.0,0.0,2.03,2.1513,2.1528,0.0,2.004,0.0,0.0,0.0,0.0,0.0,0.0,0.0,0.0,0.0,0.0,0.0,0.0,0.0,0.0,0.0,0.0,0.0,0.0,0.0,0.0,0.0,0.0,0.0,0.0,0.0,0.0,0.0,0.0,0.0,0.0,0.0,0.0,0.0,0.0,0.0,0.0,0.0,0.0,0.0,0.0,0.0,0.0,0.0,0.0,0.0,0.0,0.0,0.0,0.0,0.0,0.0,0.0,0.0,0.0,0.0,0.0,0.0,0.0,0.0,0.0,0.0,0.0,0.0,0.0,0.0,0.0,0.0,0.0,0.0,0.0,0.0,0.0,0.0,0.0,0.0,0.0,0.0,0.0,0.0,0.0,0.0,0.0,0.0,0.0,0.0,0.0,0.0,0.0,0.0,0.0,0.0,0.0,0.0,0.0,0.0,0.0,0.0,0.0,0.0,0.0,0.0,0.0,0.0,0.0,0.0,0.0,0.0,0.0,0.0,0.0,0.0,2.1845,2.1226,2.0478,0.0,0.0,0.0,0.0,0.0,0.0,0.0,0.0,0.0,0.0,0.0,0.0,0.0,0.0,0.0,0.0,0.0,0.0,0.0,0.0,0.0,0.0,0.0,0.0,0.0,0.0,0.0,0.0,0.0,0.0,0.0,0.0,0.0,0.0,0.0,0.0,0.0,0.0,0.0,0.0,0.0,0.0,0.0,0.0,0.0,0.0,0.0,0.0,0.0,0.0,0.0,0.0,0.0,0.0,0.0,0.0,0.0,0.0,0.0,0.0,0.0,0.0,0.0,0.0,0.0,0.0,0.0,0.0,0.0,0.0,0.0,0.0,0.0,0.0,0.0,0.0,0.0,0.0,0.0,0.0,0.0,0.0,0.0,0.0,0.0,0.0,0.0,0.0,0.0,0.0,0.0,0.0,0.0,0.0,0.0,0.0,0.0,0.0,0.0,0.0,0.0,0.0,0.0,0.0,0.0,0.0,0.0,0.0,0.0,0.0,2.128,0.0,2.282,2.1993,2.098,1.9927,0.0,0.0,0.0,0.0,0.0,0.0,0.0,0.0,0.0,0.0,0.0,0.0,0.0,0.0,0.0,0.0,0.0,0.0,0.0,0.0,0.0,0.0,0.0,0.0,0.0,0.0,0.0,0.0,0.0,0.0,0.0,0.0,0.0,0.0,0.0,0.0,0.0,0.0,0.0,0.0,0.0,0.0,0.0,0.0,0.0,0.0,0.0,0.0,0.0,0.0,0.0,0.0,0.0,0.0,0.0,0.0,0.0,0.0,0.0,0.0,0.0,0.0,0.0,0.0,0.0,0.0,0.0,0.0,0.0,0.0,0.0,0.0,0.0,0.0,0.0,0.0,0.0,0.0,0.0,0.0,0.0,0.0,0.0,0.0,0.0,0.0,0.0,0.0,0.0,0.0,0.0,0.0,0.0,0.0,0.0,0.0,0.0,0.0,0.0,0.0,0.0,0.0,0.0,0.0,0.0,0.0,0.0,0.0,0.0,2.2233,2.2921,2.5329,2.5148,2.3635,0.0,0.0,0.0,0.0,0.0,0.0,0.0,0.0,0.0,0.0,0.0,0.0,0.0,0.0,0.0,0.0,0.0,0.0,0.0,0.0,0.0,0.0,0.0,0.0,0.0,0.0,0.0,0.0,0.0,0.0,0.0,0.0,0.0,0.0,0.0,0.0,0.0,0.0,0.0,0.0,0.0,0.0,0.0,0.0,0.0,0.0,0.0,0.0,0.0,0.0,0.0,0.0,0.0,0.0,0.0,0.0,0.0,0.0,0.0,0.0,0.0,0.0,0.0,0.0,0.0,0.0,0.0,0.0,0.0,0.0,0.0,0.0,0.0,0.0,0.0,0.0,0.0,0.0,0.0,0.0,0.0,0.0,0.0,0.0,0.0,0.0,0.0,0.0,0.0,0.0,0.0,0.0,0.0,0.0,0.0,0.0,0.0,0.0,0.0,0.0,0.0,0.0,0.0,0.0,0.0,0.0,0.0,0.0,0.0,2.0111,2.1581,2.3999,2.726,2.4161,2.2293,0.0,0.0,0.0,0.0,0.0,0.0,0.0,0.0,0.0,0.0,0.0,0.0,0.0,0.0,0.0,0.0,0.0,0.0,0.0,0.0,0.0,0.0,0.0,0.0,0.0,0.0,0.0,0.0,0.0,0.0,0.0,0.0,0.0,0.0,0.0,0.0,0.0,0.0,0.0,0.0,0.0,0.0,0.0,0.0,0.0,0.0,0.0,0.0,0.0,0.0,0.0,0.0,0.0,0.0,0.0,0.0,0.0,0.0,0.0,0.0,0.0,0.0,0.0,0.0,0.0,0.0,0.0,0.0,0.0,0.0,0.0,0.0,0.0,0.0,0.0,0.0,0.0,0.0,0.0,0.0,0.0,0.0,0.0,0.0,0.0,0.0,0.0,0.0,0.0,0.0,0.0,0.0,0.0,0.0,0.0,0.0,0.0,0.0,0.0,0.0,0.0,0.0,0.0,0.0,0.0,0.0,0.0,0.0,0.0,2.0264,0.0,2.5585,0.0,2.4178,2.1992,0.0,0.0,0.0,0.0,0.0,0.0,0.0,0.0,0.0,0.0,0.0,0.0,0.0,0.0,0.0,0.0,0.0,0.0,0.0,0.0,0.0,0.0,0.0,0.0,0.0,0.0,0.0,0.0,0.0,0.0,0.0,0.0,0.0,0.0,0.0,0.0,0.0,0.0,0.0,0.0,0.0,0.0,0.0,0.0,0.0,0.0,0.0,0.0,0.0,0.0,0.0,0.0,0.0,0.0,0.0,0.0,0.0,0.0,0.0,0.0,0.0,0.0,0.0,0.0,0.0,0.0,0.0,0.0,0.0,0.0,0.0,0.0,0.0,0.0,0.0,0.0,0.0,0.0,0.0,0.0,0.0,0.0,0.0,0.0,0.0,0.0,0.0,0.0,0.0,0.0,0.0,0.0,0.0,0.0,0.0,0.0,0.0,0.0,0.0,0.0,0.0,0.0,0.0,0.0,0.0,0.0,0.0,0.0,2.0022,2.4328,2.6991,2.747,2.5764,2.5495,2.3071,0.0,0.0,0.0,0.0,0.0,0.0,0.0,0.0,0.0,0.0,0.0,0.0,0.0,0.0,0.0,0.0,0.0,0.0,0.0,0.0,0.0,0.0,0.0,0.0,0.0,0.0,0.0,0.0,0.0,0.0,0.0,0.0,0.0,0.0,0.0,0.0,0.0,0.0,0.0,0.0,0.0,0.0,0.0,0.0,0.0,0.0,0.0,0.0,0.0,0.0,0.0,0.0,0.0,0.0,0.0,0.0,0.0,0.0,0.0,0.0,0.0,0.0,0.0,0.0,0.0,0.0,0.0,0.0,0.0,0.0,0.0,0.0,0.0,0.0,0.0,0.0,0.0,0.0,0.0,0.0,0.0,0.0,0.0,0.0,0.0,0.0,0.0,0.0,0.0,0.0,0.0,0.0,0.0,0.0,0.0,0.0,0.0,0.0,0.0,0.0,0.0,0.0,0.0,0.0,0.0,0.0,0.0,0.0,0.0,2.2622,2.5166,2.7111,2.8158,2.4807,2.2812,0.0,0.0,0.0,0.0,0.0,0.0,0.0,0.0,0.0,0.0,0.0,0.0,0.0,0.0,0.0,0.0,0.0,0.0,0.0,0.0,0.0,0.0,0.0,0.0,0.0,0.0,0.0,0.0,0.0,0.0,0.0,0.0,0.0,0.0,0.0,0.0,0.0,0.0,0.0,0.0,0.0,0.0,0.0,0.0,0.0,0.0,0.0,0.0,0.0,0.0,0.0,0.0,0.0,0.0,0.0,0.0,0.0,0.0,0.0,0.0,0.0,0.0,0.0,0.0,0.0,0.0,0.0,0.0,0.0,0.0,0.0,0.0,0.0,0.0,0.0,0.0,0.0,0.0,0.0,0.0,0.0,0.0,0.0,0.0,0.0,0.0,0.0,0.0,0.0,0.0,0.0,0.0,0.0,0.0,0.0,0.0,0.0,0.0,0.0,0.0,0.0,0.0,0.0,0.0,0.0,0.0,0.0,0.0,0.0,2.3997,2.6664,2.8637,2.9564,2.5644,2.3451,2.3252,0.0,0.0,0.0,0.0,0.0,0.0,0.0,0.0,0.0,0.0,0.0,0.0,0.0,0.0,0.0,0.0,0.0,0.0,0.0,0.0,0.0,0.0,0.0,0.0,0.0,0.0,0.0,0.0,0.0,0.0,0.0,0.0,0.0,0.0,0.0,0.0,0.0,0.0,0.0,0.0,0.0,0.0,0.0,0.0,0.0,0.0,0.0,0.0,0.0,0.0,0.0,0.0,0.0,0.0,0.0,0.0,0.0,0.0,0.0,0.0,0.0,0.0,0.0,0.0,0.0,0.0,0.0,0.0,0.0,0.0,0.0,0.0,0.0,0.0,0.0,0.0,0.0,0.0,0.0,0.0,0.0,0.0,0.0,0.0,0.0,0.0,0.0,0.0,0.0,0.0,0.0,0.0,0.0,0.0,0.0,0.0,0.0,0.0,0.0,0.0,0.0,0.0,0.0,0.0,0.0,0.0,0.0,0.0,2.7527,3.0806,3.1601,2.9899,2.7637,2.484,0.0,0.0,0.0,0.0,0.0,0.0,0.0,0.0,0.0,0.0,0.0,0.0,0.0,0.0,0.0,0.0,0.0,0.0,0.0,0.0,0.0,0.0,0.0,0.0,0.0,0.0,0.0,0.0,0.0,0.0,0.0,0.0,0.0,0.0,0.0,0.0,0.0,0.0,0.0,0.0,0.0,0.0,0.0,0.0,0.0,0.0,0.0,0.0,0.0,0.0,0.0,0.0,0.0,0.0,0.0,0.0,0.0,0.0,0.0,0.0,0.0,0.0,0.0,0.0,0.0,0.0,0.0,0.0,0.0,0.0,0.0,0.0,0.0,0.0,0.0,0.0,0.0,0.0,0.0,0.0,0.0,0.0,0.0,0.0,0.0,0.0,0.0,0.0,0.0,0.0,0.0,0.0,0.0,0.0,0.0,0.0,0.0,0.0,0.0,0.0,0.0,0.0,0.0,0.0,0.0,0.0,0.0,0.0,0.0,2.7773,3.1131,3.2729,3.214,2.7912,2.4992,0.0,0.0,0.0,0.0,0.0,0.0,0.0,0.0,0.0,0.0,0.0,0.0,0.0,0.0,0.0,0.0,0.0,0.0,0.0,0.0,0.0,0.0,0.0,0.0,0.0,0.0,0.0,0.0,0.0,0.0,0.0,0.0,0.0,0.0,0.0,0.0,0.0,0.0,0.0,0.0,0.0,0.0,0.0,0.0,0.0,0.0,0.0,0.0,0.0,0.0,0.0,0.0,0.0,0.0,0.0,0.0,0.0,0.0,0.0,0.0,0.0,0.0,0.0,0.0,0.0,0.0,0.0,0.0,0.0,0.0,0.0,0.0,0.0,0.0,0.0,0.0,0.0,0.0,0.0,0.0,0.0,0.0,0.0,0.0,0.0,0.0,0.0,0.0,0.0,0.0,0.0,0.0,0.0,0.0,0.0,0.0,0.0,0.0,0.0,0.0,0.0,0.0,0.0,0.0,0.0,0.0,0.0,0.0,2.7875,2.8742,3.1483,3.2739,3.2291,2.866,2.5887,0.0,0.0,0.0,0.0,0.0,0.0,0.0,0.0,0.0,0.0,0.0,0.0,0.0,0.0,0.0,0.0,0.0,0.0,0.0,0.0,0.0,0.0,0.0,0.0,0.0,0.0,0.0,0.0,0.0,0.0,0.0,0.0,0.0,0.0,0.0,0.0,0.0,0.0,0.0,0.0,0.0,0.0,0.0,0.0,0.0,0.0,0.0,0.0,0.0,0.0,0.0,0.0,0.0,0.0,0.0,0.0,0.0,0.0,0.0,0.0,0.0,0.0,0.0,0.0,0.0,0.0,0.0,0.0,0.0,0.0,0.0,0.0,0.0,0.0,0.0,0.0,0.0,0.0,0.0,0.0,0.0,0.0,0.0,0.0,0.0,0.0,0.0,0.0,0.0,0.0,0.0,0.0,0.0,0.0,0.0,0.0,0.0,0.0,0.0,0.0,0.0,0.0,0.0,0.0,0.0,0.0,0.0,0.0,2.8917,2.9785,3.1542,3.2019,3.1176,2.946,2.6934,0.0,0.0,0.0,0.0,0.0,0.0,0.0,0.0,0.0,0.0,0.0,0.0,0.0,0.0,0.0,0.0,0.0,0.0,0.0,0.0,0.0,0.0,0.0,0.0,0.0,0.0,0.0,0.0,0.0,0.0,0.0,0.0,0.0,0.0,0.0,0.0,0.0,0.0,0.0,0.0,0.0,0.0,0.0,0.0,0.0,0.0,0.0,0.0,0.0,0.0,0.0,0.0,0.0,0.0,0.0,0.0,0.0,0.0,0.0,0.0,0.0,0.0,0.0,0.0,0.0,0.0,0.0,0.0,0.0,0.0,0.0,0.0,0.0,0.0,0.0,0.0,0.0,0.0,0.0,0.0,0.0,0.0,0.0,0.0,0.0,0.0,0.0,0.0,0.0,0.0,0.0,0.0,0.0,0.0,0.0,0.0,0.0,0.0,0.0,0.0,0.0,0.0,0.0,0.0,0.0,0.0,0.0,0.0,2.8282,2.8364,3.0431,3.1435,3.1203,2.8415,2.5996,0.0,0.0,0.0,0.0,0.0,0.0,0.0,0.0,0.0,0.0,0.0,0.0,0.0,0.0,0.0,0.0,0.0,0.0,0.0,0.0,0.0,0.0,0.0,0.0,0.0,0.0,0.0,0.0,0.0,0.0,0.0,0.0,0.0,0.0,0.0,0.0,0.0,0.0,0.0,0.0,0.0,0.0,0.0,0.0,0.0,0.0,0.0,0.0,3.1712,0.0,0.0,0.0,0.0,0.0,0.0,0.0,0.0,0.0,0.0,0.0,0.0,0.0,0.0,0.0,0.0,0.0,0.0,0.0,0.0,0.0,0.0,0.0,0.0,0.0,0.0,0.0,0.0,0.0,0.0,0.0,0.0,0.0,0.0,0.0,0.0,0.0,0.0,0.0,0.0,0.0,0.0,0.0,0.0,0.0,0.0,0.0,0.0,0.0,0.0,0.0,0.0,0.0,0.0,0.0,0.0,0.0,0.0,0.0,2.8643,2.9029,3.044,3.0984,3.0517,2.8616,2.649,0.0,0.0,0.0,0.0,0.0,0.0,0.0,0.0,0.0,0.0,0.0,0.0,0.0,0.0,0.0,0.0,0.0,0.0,0.0,0.0,0.0,0.0,0.0,0.0,0.0,0.0,0.0,0.0,0.0,0.0,0.0,0.0,0.0,0.0,0.0,0.0,0.0,0.0,0.0,0.0,0.0,0.0,0.0,0.0,0.0,0.0,0.0,0.0,0.0,0.0,0.0,0.0,0.0,0.0,0.0,0.0,0.0,0.0,0.0,0.0,0.0,0.0,0.0,0.0,0.0,0.0,0.0,0.0,0.0,0.0,0.0,0.0,0.0,0.0,0.0,0.0,0.0,0.0,0.0,0.0,0.0,0.0,0.0,0.0,0.0,0.0,0.0,0.0,0.0,0.0,0.0,0.0,0.0,0.0,0.0,0.0,0.0,0.0,0.0,0.0,0.0,0.0,0.0,0.0,0.0,0.0,0.0,2.7381,2.8847,2.988,3.0416,3.034,2.9571,2.8998,2.7226,2.413,0.0,0.0,0.0,0.0,0.0,0.0,0.0,0.0,0.0,0.0,0.0,0.0,0.0,0.0,0.0,0.0,0.0,0.0,0.0,0.0,0.0,0.0,0.0,0.0,0.0,0.0,0.0,0.0,0.0,0.0,0.0,0.0,0.0,0.0,0.0,0.0,0.0,0.0,2.88,3.0708,0.0,0.0,0.0,0.0,0.0,0.0,0.0,0.0,3.4098,0.0,0.0,0.0,0.0,0.0,0.0,0.0,0.0,0.0,0.0,0.0,0.0,0.0,0.0,0.0,0.0,0.0,0.0,0.0,0.0,0.0,0.0,0.0,0.0,0.0,0.0,0.0,0.0,0.0,0.0,0.0,0.0,0.0,0.0,0.0,0.0,0.0,0.0,0.0,0.0,0.0,0.0,0.0,0.0,0.0,0.0,0.0,0.0,0.0,0.0,0.0,0.0,0.0,0.0,0.0,0.0,2.6538,2.6469,2.7036,2.8431,2.8587,2.8522,2.8331,2.7891,2.6457,2.4117,0.0,0.0,0.0,0.0,0.0,0.0,0.0,0.0,0.0,0.0,0.0,0.0,0.0,0.0,0.0,0.0,0.0,0.0,0.0,0.0,0.0,0.0,0.0,0.0,0.0,0.0,0.0,0.0,0.0,0.0,0.0,0.0,0.0,0.0,0.0,0.0,0.0,0.0,0.0,3.3771,3.4751,0.0,0.0,0.0,0.0,0.0,0.0,0.0,0.0,3.4625,0.0,0.0,0.0,0.0,0.0,0.0,0.0,0.0,0.0,0.0,0.0,0.0,0.0,0.0,0.0,0.0,0.0,0.0,0.0,0.0,0.0,0.0,0.0,0.0,0.0,0.0,0.0,0.0,0.0,0.0,0.0,0.0,0.0,0.0,0.0,0.0,0.0,0.0,0.0,0.0,0.0,0.0,0.0,0.0,0.0,0.0,0.0,0.0,0.0,0.0,0.0,0.0,0.0,0.0,0.0,2.5223,2.5892,2.6797,2.7988,2.7568,2.751,2.8009,2.6718,2.5274,0.0,0.0,0.0,0.0,0.0,0.0,0.0,0.0,0.0,0.0,0.0,0.0,0.0,0.0,0.0,0.0,0.0,0.0,0.0,0.0,0.0,0.0,0.0,0.0,0.0,0.0,0.0,0.0,0.0,0.0,0.0,0.0,0.0,0.0,0.0,0.0,0.0,0.0,0.0,0.0,3.4625,3.5429,3.6307,0.0,0.0,0.0,0.0,0.0,0.0,3.5052,3.4977,0.0,0.0,0.0,0.0,0.0,0.0,0.0,0.0,0.0,0.0,0.0,0.0,0.0,0.0,0.0,0.0,0.0,0.0,0.0,0.0,0.0,0.0,0.0,0.0,0.0,0.0,0.0,0.0,0.0,0.0,0.0,0.0,0.0,0.0,0.0,0.0,0.0,0.0,0.0,0.0,0.0,0.0,0.0,0.0,0.0,0.0,0.0,0.0,0.0,0.0,0.0,0.0,0.0,0.0,0.0,2.3392,2.5099,2.6434,2.7378,2.6783,2.694,2.7719,2.6024,2.4506,0.0,0.0,0.0,0.0,0.0,0.0,0.0,0.0,0.0,0.0,0.0,0.0,0.0,0.0,0.0,0.0,0.0,0.0,0.0,0.0,0.0,0.0,0.0,0.0,0.0,0.0,0.0,0.0,0.0,0.0,0.0,0.0,0.0,0.0,0.0,0.0,0.0,0.0,0.0,0.0,0.0,3.6157,3.7764,3.7236,0.0,0.0,0.0,0.0,3.6885,3.6483,0.0,0.0,0.0,0.0,0.0,0.0,0.0,0.0,0.0,0.0,0.0,0.0,0.0,0.0,0.0,0.0,0.0,0.0,0.0,0.0,0.0,0.0,0.0,0.0,0.0,0.0,0.0,0.0,0.0,0.0,0.0,0.0,0.0,0.0,0.0,0.0,0.0,0.0,0.0,0.0,0.0,0.0,0.0,0.0,0.0,0.0,0.0,0.0,0.0,0.0,0.0,0.0,0.0,0.0,0.0,0.0,2.1752,2.3451,2.455,2.5209,2.6069,2.6565,2.6648,2.645,2.5276,0.0,0.0,0.0,0.0,0.0,0.0,0.0,0.0,0.0,0.0,0.0,0.0,0.0,0.0,0.0,0.0,0.0,0.0,0.0,0.0,0.0,0.0,0.0,0.0,0.0,0.0,0.0,0.0,0.0,0.0,0.0,0.0,0.0,0.0,0.0,0.0,0.0,0.0,0.0,0.0,0.0,3.8291,3.804,3.7889,3.7965,0.0,0.0,3.8592,3.922,4.0023,0.0,0.0,0.0,0.0,0.0,0.0,0.0,0.0,0.0,0.0,0.0,0.0,0.0,0.0,0.0,0.0,0.0,0.0,0.0,0.0,0.0,0.0,0.0,0.0,0.0,0.0,0.0,0.0,0.0,0.0,0.0,0.0,0.0,0.0,0.0,0.0,0.0,0.0,0.0,0.0,0.0,0.0,0.0,0.0,0.0,0.0,0.0,0.0,0.0,0.0,0.0,0.0,0.0,0.0,0.0,2.0502,2.1557,2.4071,2.5539,2.5732,2.6213,2.6789,2.736,2.5573,2.4145,0.0,0.0,0.0,0.0,0.0,0.0,0.0,0.0,0.0,0.0,0.0,0.0,0.0,0.0,0.0,0.0,0.0,0.0,0.0,0.0,0.0,0.0,0.0,0.0,0.0,0.0,0.0,0.0,0.0,0.0,0.0,0.0,0.0,0.0,0.0,0.0,0.0,0.0,0.0,0.0,0.0,0.0,3.9346,3.9948,0.0,0.0,0.0,4.045,4.1003,0.0,0.0,0.0,0.0,0.0,0.0,0.0,0.0,0.0,0.0,0.0,0.0,0.0,0.0,0.0,0.0,0.0,0.0,0.0,0.0,0.0,0.0,0.0,0.0,0.0,0.0,0.0,0.0,0.0,0.0,0.0,0.0,0.0,0.0,0.0,0.0,0.0,0.0,0.0,0.0,0.0,0.0,0.0,0.0,0.0,0.0,0.0,0.0,0.0,0.0,0.0,0.0,0.0,0.0,0.0,0.0,0.0,2.1518,2.4826,2.652,2.6521,2.6789,2.7279,2.8036,2.5636,0.0,0.0,0.0,0.0,0.0,0.0,0.0,0.0,0.0,0.0,0.0,0.0,0.0,0.0,0.0,0.0,0.0,0.0,0.0,0.0,0.0,0.0,0.0,0.0,0.0,0.0,0.0,2.1994,0.0,0.0,0.0,0.0,0.0,0.0,0.0,0.0,0.0,0.0,0.0,0.0,0.0,0.0,3.9195,4.0727,4.1982,4.266,0.0,0.0,4.2258,4.2534,4.1781,4.0676,0.0,0.0,0.0,0.0,0.0,0.0,0.0,0.0,0.0,0.0,0.0,0.0,0.0,0.0,0.0,0.0,0.0,0.0,0.0,0.0,0.0,0.0,0.0,0.0,0.0,0.0,0.0,0.0,0.0,0.0,0.0,0.0,0.0,0.0,0.0,0.0,0.0,0.0,0.0,0.0,0.0,0.0,0.0,0.0,0.0,0.0,0.0,0.0,0.0,0.0,0.0,0.0,0.0,0.0,0.0,2.1604,2.4826,2.652,2.6521,2.7441,2.8004,2.806,2.7901,2.6476,0.0,0.0,0.0,0.0,0.0,0.0,0.0,0.0,0.0,0.0,0.0,0.0,0.0,0.0,0.0,0.0,0.0,0.0,0.0,0.0,0.0,0.0,0.0,0.0,0.0,0.0,0.0,0.0,0.0,0.0,0.0,0.0,0.0,0.0,0.0,0.0,0.0,0.0,0.0,0.0,0.0,4.0777,4.1882,4.3413,4.4644,0.0,0.0,4.4242,4.3765,4.4468,4.3865,4.0224,0.0,0.0,0.0,0.0,0.0,0.0,0.0,0.0,0.0,0.0,0.0,0.0,0.0,0.0,0.0,0.0,0.0,0.0,0.0,0.0,0.0,0.0,0.0,0.0,0.0,0.0,0.0,0.0,0.0,0.0,0.0,0.0,0.0,0.0,0.0,0.0,0.0,0.0,0.0,0.0,0.0,0.0,0.0,0.0,0.0,0.0,0.0,0.0,0.0,0.0,0.0,0.0,0.0,2.1217,2.1518,2.5463,2.7468,2.7556,2.8609,2.9106,2.9184,2.845,2.7189,0.0,0.0,0.0,0.0,0.0,0.0,0.0,0.0,0.0,0.0,0.0,0.0,0.0,0.0,0.0,0.0,0.0,0.0,0.0,0.0,0.0,0.0,0.0,0.0,0.0,0.0,0.0,0.0,2.9072,3.0367,3.184,0.0,0.0,0.0,0.0,0.0,0.0,0.0,0.0,0.0,0.0,4.2434,4.3539,4.4819,0.0,0.0,4.6024,4.6028,4.7018,4.6332,4.5181,4.3957,4.2877,0.0,0.0,0.0,0.0,0.0,0.0,0.0,0.0,0.0,0.0,0.0,0.0,0.0,0.0,0.0,0.0,0.0,0.0,0.0,0.0,0.0,0.0,0.0,0.0,0.0,0.0,0.0,0.0,0.0,0.0,0.0,0.0,0.0,0.0,0.0,0.0,0.0,0.0,0.0,0.0,0.0,0.0,0.0,0.0,0.0,0.0,0.0,0.0,0.0,0.0,0.0,0.0,2.2247,2.2237,2.6515,2.87,2.8585,2.9365,2.9779,2.9754,2.885,2.7787,0.0,0.0,0.0,0.0,0.0,0.0,0.0,0.0,0.0,0.0,0.0,0.0,0.0,0.0,0.0,0.0,0.0,0.0,0.0,0.0,0.0,0.0,0.0,0.0,0.0,0.0,0.0,0.0,3.0896,3.2038,3.3363,0.0,0.0,0.0,0.0,0.0,0.0,0.0,0.0,0.0,0.0,4.4317,4.5246,4.62,4.6928,4.7305,4.6753,4.6882,4.8825,4.7898,4.6914,4.7129,0.0,0.0,0.0,0.0,0.0,0.0,0.0,0.0,0.0,0.0,0.0,0.0,0.0,0.0,0.0,0.0,0.0,0.0,0.0,0.0,0.0,0.0,0.0,0.0,0.0,0.0,0.0,0.0,0.0,0.0,1.5293,0.0,0.0,0.0,0.0,0.0,0.0,0.0,0.0,0.0,0.0,0.0,0.0,0.0,0.0,0.0,0.0,0.0,0.0,0.0,0.0,0.0,0.0,2.4521,2.393,2.8129,3.0125,2.9754,2.9779,2.9779,2.9779,2.9227,2.8492,2.7651,0.0,0.0,0.0,0.0,0.0,0.0,0.0,0.0,0.0,0.0,0.0,0.0,0.0,0.0,0.0,0.0,0.0,0.0,0.0,0.0,0.0,0.0,0.0,0.0,0.0,0.0,3.0376,3.1661,3.2736,0.0,0.0,0.0,0.0,0.0,0.0,0.0,0.0,0.0,0.0,4.4166,4.6451,4.7004,4.7531,4.7908,4.7933,4.7054,4.6925,4.8458,4.9097,4.9522,0.0,0.0,0.0,0.0,0.0,0.0,0.0,0.0,0.0,0.0,0.0,0.0,0.0,0.0,0.0,0.0,0.0,0.0,0.0,0.0,0.0,0.0,0.0,0.0,0.0,0.0,0.0,2.2073,2.0991,0.0,0.0,0.0,0.0,0.0,0.0,0.0,0.0,0.0,0.0,0.0,3.1017,3.1827,0.0,0.0,0.0,0.0,0.0,0.0,0.0,0.0,0.0,0.0,0.0,0.0,2.5055,2.5249,2.8584,3.0225,2.9831,2.9779,2.9779,2.9779,2.9603,2.9155,2.8375,0.0,0.0,0.0,0.0,0.0,0.0,0.0,0.0,0.0,0.0,0.0,0.0,0.0,0.0,0.0,0.0,0.0,0.0,0.0,0.0,0.0,0.0,0.0,0.0,0.0,3.0308,0.0,0.0,0.0,0.0,0.0,0.0,0.0,0.0,0.0,0.0,0.0,4.2007,4.3865,4.6326,4.8008,4.8209,4.8686,4.9289,0.0,0.0,0.0,0.0,0.0,0.0,0.0,0.0,0.0,0.0,0.0,0.0,0.0,0.0,6.0689,5.5293,5.4261,5.4371,5.4999,0.0,0.0,0.0,0.0,0.0,0.0,0.0,0.0,0.0,0.0,0.0,0.0,0.0,0.0,2.6148,0.0,2.4843,0.0,0.0,0.0,0.0,0.0,0.0,0.0,0.0,3.2926,3.4908,3.5174,3.5933,3.6182,0.0,3.5784,3.2926,0.0,0.0,0.0,0.0,0.0,0.0,0.0,0.0,2.7151,2.7371,3.0124,3.1135,3.0317,2.9934,2.9779,2.9779,3.0239,3.0085,2.934,2.9493,2.9155,0.0,0.0,0.0,0.0,0.0,0.0,0.0,0.0,0.0,0.0,0.0,0.0,0.0,0.0,0.0,0.0,0.0,0.0,0.0,0.0,0.0,0.0,0.0,3.1911,0.0,0.0,0.0,0.0,0.0,0.0,0.0,0.0,0.0,4.167,4.3363,4.5246,4.6728,4.8485,4.9565,4.9364,0.0,0.0,0.0,0.0,0.0,0.0,0.0,5.2863,5.7732,5.648,5.5842,5.8958,6.2736,6.4136,6.0505,0.0,0.0,6.0461,5.9615,6.0206,6.1074,6.1583,6.2241,6.3588,6.4545,6.5083,0.0,0.0,0.0,0.0,0.0,0.0,0.0,0.0,2.9513,3.0052,0.0,2.8708,0.0,0.0,0.0,0.0,0.0,3.1972,0.0,0.0,3.9019,4.0671,4.001,4.0716,4.0749,4.012,4.1449,4.0097,3.6229,3.0907,0.0,0.0,0.0,0.0,0.0,0.0,3.0863,3.0317,3.2611,3.3016,3.1389,3.0343,2.9856,2.9856,3.0956,3.1323,3.0718,3.1264,3.1031,2.9744,2.7769,0.0,0.0,0.0,0.0,0.0,0.0,0.0,0.0,0.0,0.0,0.0,0.0,0.0,0.0,0.0,0.0,0.0,0.0,0.0,0.0,3.2048,0.0,0.0,0.0,0.0,0.0,0.0,0.0,0.0,0.0,0.0,4.4431,4.6264,4.841,4.9464,0.0,0.0,0.0,0.0,5.0519,5.0619,5.0569,5.1271,5.3295,5.4576,5.6224,5.9066,0.0,0.0,6.044,6.452,6.6038,6.0173,6.4972,6.9346,6.7342,6.6696,6.7358,6.8585,6.7897,6.7717,6.8914,7.0051,7.1128,3.3469,0.0,0.0,0.0,0.0,3.1923,3.3623,3.6109,3.6543,3.6232,3.5348,3.4486,0.0,0.0,0.0,0.0,0.0,0.0,3.5631,3.6853,3.9166,4.0744,4.1625,4.2433,4.269,4.247,4.2179,4.1559,4.05,3.7778,3.3655,2.8306,0.0,0.0,0.0,0.0,3.3371,3.3114,3.418,3.4214,3.3086,3.1556,3.0495,2.9804,3.1449,3.2262,3.2026,3.3042,3.3245,3.2377,3.0462,0.0,0.0,0.0,0.0,0.0,0.0,0.0,0.0,0.0,0.0,0.0,0.0,0.0,0.0,0.0,0.0,0.0,0.0,0.0,3.2766,3.4622,3.6656,0.0,0.0,0.0,0.0,0.0,0.0,0.0,0.0,0.0,4.9384,4.9746,5.0444,0.0,0.0,5.1825,5.1649,5.195,5.2477,5.3256,0.0,0.0,0.0,5.5789,5.6742,6.031,6.4112,6.5567,6.2317,6.5949,6.7409,6.1625,6.4478,6.7721,6.7888,6.8857,7.0191,7.1427,7.1816,7.2355,7.3642,7.4569,7.4843,3.8227,3.5309,3.4126,3.4134,3.4981,3.5652,3.7426,3.989,4.0201,4.0289,4.0133,3.9154,3.7406,3.5122,3.3814,0.0,0.0,0.0,3.8329,3.946,4.0744,4.1846,4.2763,4.3277,4.3497,4.3461,4.2873,4.2619,4.2768,4.1776,3.8461,3.3073,0.0,0.0,3.1738,3.4141,3.5482,3.5647,3.5962,3.5546,3.4376,3.2324,3.0895,3.0419,3.1829,3.2593,3.2593,3.4097,3.4711,3.4292,3.2617,3.1152,0.0,0.0,0.0,0.0,0.0,0.0,0.0,0.0,0.0,0.0,0.0,3.0028,2.7267,0.0,0.0,0.0,3.1718,3.3692,3.6663,3.9247,0.0,0.0,0.0,0.0,0.0,0.0,0.0,5.2405,5.445,5.5257,5.3607,5.2869,5.2578,5.2578,5.2879,5.308,5.308,0.0,5.3808,5.4486,5.4762,5.5365,5.6508,5.6426,5.7485,6.1178,6.5359,6.6847,6.3915,6.7079,6.8127,6.3597,6.4963,6.7976,6.8556,7.0278,7.2205,7.3776,7.4599,7.5407,7.6455,7.7143,7.7169,4.1876,4.0997,3.8267,3.7103,3.7221,3.8822,4.0127,4.1175,4.1504,4.2604,4.4162,4.2694,4.1501,4.0569,3.8802,0.0,3.987,4.1077,4.1872,4.2433,4.313,4.3497,4.3497,4.3497,4.3497,4.3497,4.3497,4.3497,4.3461,4.3461,4.1903,3.8804,3.7302,3.6282,3.5768,3.6569,3.7398,3.8071,3.7825,3.6955,3.5314,3.2848,3.1489,3.1315,3.2236,3.2735,3.2763,3.4476,3.5489,3.5459,3.4322,3.3005,3.1512,0.0,0.0,0.0,0.0,0.0,0.0,0.0,0.0,0.0,0.0,0.0,0.0,0.0,0.0,0.0,3.6993,0.0,4.09,4.4828,0.0,0.0,0.0,5.102,5.1977,5.5239,5.7309,5.7104,0.0,0.0,5.6689,0.0,5.4712,5.4762,5.4637,5.4587,5.4612,5.4587,5.4637,5.4737,5.5189,5.5717,5.6314,5.6868,5.8616,6.2552,6.5692,6.6647,6.4851,6.7294,6.7828,6.3115,6.5553,6.8779,6.9633,7.1369,7.3473,7.5646,7.6514,7.7083,7.7831,7.843,7.827,4.3079,4.2326,4.2001,4.1522,4.0993,4.1683,4.2612,4.3744,4.4053,4.425,4.4278,4.391,4.3256,4.2453,4.2091,4.209,4.2404,4.2868,4.3085,4.3204,4.3387,4.3497,4.3497,4.3497,4.3497,4.3497,4.3497,4.3497,4.3497,4.3497,4.2667,4.1089,4.1202,3.9669,3.6683,3.8362,3.9699,4.037,3.9797,3.8403,3.6135,3.5406,3.4151,3.2335,3.3185,3.3671,3.3671,3.4839,3.5489,3.5489,3.519,3.4634,3.3679,3.1537,0.0,0.0,0.0,0.0,0.0,0.0,0.0,0.0,0.0,3.8488,3.1529,0.0,4.0247,0.0,3.8965,4.1467,4.449,4.6576,0.0,0.0,5.4042,5.5478,5.9099,5.9907,6.0185,6.038,6.0261,5.9561,5.7914,5.6548,5.5968,5.6369,5.5365,5.4712,5.5114,5.5189,5.534,5.5767,5.6269,5.6696,5.6922,5.8027,6.0754,6.6508,6.6532,6.5484,6.4889,6.5855,6.5944,6.327,6.3702,6.6105,6.9313,7.0949,7.3463,7.6999,7.7831,7.7951,7.9088,7.9477,7.8922,4.3625,4.3096,4.3387,4.3328,4.3074,4.3456,4.4067,4.4849,4.5239,4.5227,4.4893,4.4893,4.4624,4.4205,4.3984,4.3885,4.386,4.3642,4.3497,4.3497,4.3497,4.3497,4.3497,4.3497,4.3497,4.3497,4.3864,4.4046,4.4044,4.4377,4.409,4.3296,4.3668,4.2494,3.9843,4.0628,4.1271,4.1677,4.1,3.9943,3.8496,3.7018,3.5666,3.4329,3.4059,3.4013,3.4013,3.5001,3.537,3.507,3.504,3.4871,3.4486,3.2966,3.1989,0.0,0.0,0.0,0.0,0.0,0.0,0.0,0.0,0.0,0.0,0.0,4.2444,4.0006,4.2323,4.511,4.734,5.0649,5.3926,5.6946,5.81,5.9727,6.2271,6.245,6.263,6.3404,6.2803,6.1702,6.018,5.8952,5.8028,5.7523,5.6646,5.6143,5.642,5.652,5.662,5.6922,5.7223,5.7625,5.8027,5.9307,6.1737,6.599,6.6766,6.6406,6.6676,6.6999,6.6548,6.4994,6.4845,6.639,7.0173,7.2413,7.4916,7.8272,7.9627,7.9662,7.9598,7.9501,7.9017,4.3701,4.3497,4.3497,4.3732,4.4082,4.4448,4.48,4.5154,4.5611,4.5757,4.5624,4.5624,4.5624,4.5568,4.4912,4.459,4.4554,4.3826,4.3497,4.3497,4.3608,4.3644,4.3644,4.3754,4.3791,4.3828,4.4525,4.4854,4.4886,4.5552,4.5627,4.5114,4.5091,4.4555,4.3478,4.2859,4.2523,4.2422,4.1888,4.155,4.1337,3.8435,3.6753,3.6441,3.5066,3.4264,3.4245,3.5126,3.54,3.4891,3.4951,3.4981,3.4981,3.4351,3.4113,0.0,3.4455,0.0,0.0,0.0,0.0,0.0,0.0,0.0,0.0,4.3281,4.4023,4.2763,4.6184,4.8942,5.0017,5.5057,5.8516,5.8867,6.1408,6.3228,6.3318,6.3887,6.4725,6.6042,6.5191,6.397,6.261,6.1443,5.9945,5.8377,5.7926,5.7901,5.8052,5.7901,5.7775,5.7901,5.8302,5.9235,6.061,6.1658,6.3208,6.5662,6.7189,6.8252,6.8627,6.882,6.8585,6.7371,6.7322,6.8701,7.2332,7.4533,7.6991,8.0259,8.1422,8.1419,8.0299,8.0033,7.9467,4.3162,4.3497,4.3497,4.3912,4.4485,4.4561,4.4827,4.5278,4.5649,4.5796,4.5757,4.5757,4.568,4.5547,4.4901,4.46,4.4554,4.3826,4.3497,4.3497,4.4158,4.4488,4.4525,4.5149,4.5443,4.5443,4.559,4.5663,4.5662,4.581,4.5627,4.5146,4.5172,4.4847,4.4227,0.0,0.0,0.0,4.3732,4.3361,4.2121,4.082,3.9283,3.7527,3.6532,0.0,3.5258,3.5932,3.6477,3.6836,3.7345,0.0,0.0,0.0,0.0,0.0,0.0,0.0,0.0,0.0,0.0,0.0,4.3603,4.3488,4.2825,4.523,4.676,4.6909,4.8326,5.0384,5.275,5.5639,5.8231,5.9956,6.2322,6.4036,6.4605,6.5233,6.6162,6.7364,6.6197,6.47,6.3496,6.1773,6.03,5.8908,5.8579,5.8755,5.9106,5.8478,5.7951,5.8102,5.999,6.2799,6.5843,6.6427,6.723,6.9861,6.9319,6.8899,6.9065,6.9453,6.973,6.9215,7.0082,7.1584,7.4544,7.5851,7.7776,8.169,8.2499,8.2438,8.2223,8.2516,8.2576,4.3395,0.0,4.4391,4.5021,0.0,4.6089,4.6367,4.6819,4.6152,4.5902,4.5978,4.6298,4.6142,4.568,4.4914,4.4811,4.5184,4.4415,4.4305,4.4709,4.4783,4.5002,4.5296,4.5404,4.5586,4.592,4.6324,4.6471,4.6544,4.6912,4.6946,4.6686,4.6685,4.6302,4.5404,4.4864,4.4384,4.3978,4.4384,4.4215,4.3437,4.2249,4.0913,3.9345,0.0,0.0,0.0,0.0,0.0,0.0,0.0,0.0,0.0,0.0,0.0,4.0689,4.1348,4.2165,4.316,4.4504,4.556,4.6476,4.664,4.6298,4.5267,4.6961,4.8325,4.8837,5.0027,5.1398,5.2891,5.5732,5.8161,5.9747,6.2257,6.4395,6.5353,6.5802,6.649,6.7751,6.7538,6.6606,6.5418,6.393,6.2324,6.0775,5.9693,5.9207,5.9433,5.9282,5.9463,6.076,6.2344,6.4674,6.731,6.8252,6.9216,7.1048,7.1133,7.0984,7.2172,7.1699,7.1446,7.2067,7.297,7.4306,7.6224,7.8044,7.9863,8.2137,8.3307,8.3846,8.4145,8.3874,8.3409,4.4053,4.5503,4.5504,4.6336,4.7618,4.7624,4.7951,4.8423,0.0,0.0,0.0,4.7116,4.6924,4.6198,4.5393,4.5393,4.592,4.526,4.5224,4.5736,4.55,4.5576,4.5919,4.5682,4.5833,4.6361,4.7021,4.7316,4.7353,4.7977,4.8306,4.8306,4.8229,4.7627,4.6625,4.5389,4.4912,4.5116,4.48,4.4553,4.4553,4.3331,4.2261,4.1461,4.0006,3.8811,3.8077,3.8552,3.8721,3.8332,3.902,3.9918,4.0995,4.1198,4.2202,4.4327,4.5268,4.6196,4.7437,4.8805,4.9562,4.9309,4.8703,4.816,4.7782,4.8451,4.9238,4.9941,5.1272,5.2116,5.2354,5.5734,5.8253,5.8962,6.2064,6.4695,6.5832,6.6251,6.6879,6.8016,6.8764,6.8643,6.7364,6.5893,6.4499,6.2683,6.0737,5.9759,5.991,6.0578,6.1582,6.3538,6.5208,6.6876,6.8318,6.9714,7.0521,7.2314,7.2456,7.3316,7.492,7.4592,7.4053,7.4892,7.5911,7.684,7.8096,8.004,8.22,8.2978,8.4055,8.5132,8.5723,8.517,8.4524,4.5366,4.6311,4.6355,4.6825,4.7622,4.7608,4.7948,4.8477,4.8482,4.8436,4.832,4.8315,4.8179,4.7889,4.7062,4.6719,4.6801,4.6065,4.5506,0.0,4.6278,4.657,4.621,4.7299,4.7862,4.7976,4.8086,4.8122,4.8122,4.8233,4.8306,4.8229,4.7797,4.7535,4.7417,4.6098,4.5994,4.7291,4.5555,4.4553,4.4587,4.4297,4.3751,4.307,4.1942,4.1069,4.0344,4.0758,4.1175,4.1683,4.2821,4.3569,4.3748,4.4278,4.4817,4.5155,4.6337,4.7348,4.8148,4.9912,5.0759,5.0376,4.8917,4.8283,4.9166,4.9417,5.0067,5.1531,5.19,5.2327,5.2916,5.5972,5.8281,5.9117,6.2499,6.5203,6.5981,6.6999,6.7991,6.865,6.946,6.9335,6.8198,6.6511,6.467,6.2762,6.1249,6.0512,6.159,6.2354,6.3481,6.501,6.7893,7.0248,7.1252,7.2965,7.3812,7.4426,7.4288,7.4664,7.5717,7.6025,7.6165,7.7253,7.8238,7.9278,8.0139,8.1481,8.2948,8.4025,8.4953,8.5851,8.6988,8.7341,8.7714,4.6214,4.7455,4.7717,4.84,4.9279,4.9429,4.9666,4.9917,5.0091,4.9614,4.8748,4.9059,4.8864,4.822,4.7414,4.7252,4.7609,4.6908,4.6645,4.6822,4.7146,4.7292,4.7368,4.7692,4.7995,4.8267,4.8306,4.8306,4.8306,4.8306,4.8306,4.8304,4.8151,4.8299,4.8755,4.7851,4.7678,4.8345,4.6604,4.5706,4.5828,4.5774,4.529,4.4566,4.3586,4.2862,4.2474,4.2395,4.2731,4.3389,4.4317,4.5005,4.5394,4.5639,4.6202,4.689,4.7523,4.8417,4.9823,5.0493,5.1038,5.1484,4.9837,4.9289,5.0419,5.0519,5.0946,5.2035,5.2327,5.2653,5.3042,5.6265,5.8851,5.946,6.308,6.5681,6.649,6.7358,6.8196,6.892,6.9639,6.9873,6.9633,6.8004,6.6258,6.4554,6.2478,6.1565,6.3359,6.501,6.6114,6.7229,6.9658,7.1853,7.3304,7.4258,7.4869,7.4869,7.4869,7.5318,7.6155,7.6694,7.7382,7.8639,7.9716,8.0674,8.1601,8.2619,8.3606,8.4444,8.5252,8.618,8.7407,8.8723,8.9681,4.7309,4.8736,4.9045,4.9784,5.0741,5.1029,5.1128,5.1114,5.1155,5.0471,4.9433,4.9836,4.9606,4.8837,4.7972,4.792,4.831,4.7716,4.7602,4.8038,4.7756,4.7797,4.8072,4.7938,4.8129,4.8561,4.8783,4.8857,4.8857,4.8857,4.8857,4.8891,4.8877,4.935,5.0242,4.9518,4.9221,4.9506,4.8258,4.7436,4.7045,4.718,4.687,4.6072,4.5473,4.4947,4.4559,4.4419,4.4439,4.4736,4.5394,4.5992,4.6501,4.6706,4.7216,4.8205,4.8745,4.9667,5.1246,5.0974,5.1011,5.198,5.0571,5.0067,5.1122,5.1398,5.1942,5.2742,5.2927,5.3179,5.4402,5.7004,5.9395,6.0522,6.391,6.6368,6.7148,6.7926,6.8615,6.9183,6.9782,7.044,7.0658,6.9425,6.7801,6.6339,6.4353,6.3804,6.5642,6.7544,6.8985,6.9763,7.1278,7.3052,7.4564,7.4869,7.4958,7.5048,7.5138,7.5736,7.6664,7.7143,7.7861,7.9417,8.0614,8.1512,8.2589,8.3576,8.4295,8.4983,8.5701,8.6659,8.8005,8.9412,9.0519,4.9113,4.9852,4.9962,5.0336,5.0875,5.1106,5.1183,5.1182,5.1203,5.1106,5.0779,5.0818,5.0741,5.0548,4.9644,4.925,4.9268,4.8565,4.7962,4.7596,4.7995,4.7995,4.7741,4.8762,4.9404,4.9554,5.0141,5.0438,5.0441,5.0472,5.0545,5.0464,4.9967,5.0402,5.1475,5.0468,5.0407,5.1777,5.0955,4.9613,4.7858,4.8392,4.8379,4.7733,4.8065,4.7851,4.6852,4.7215,4.6956,4.6256,4.6711,4.713,4.7249,4.7758,4.8115,4.8407,4.9914,5.1461,5.2405,5.1397,5.0748,5.0975,5.0229,5.0117,5.1172,5.1749,5.2877,5.436,5.3784,5.4325,5.7139,5.8557,5.9962,6.2005,6.497,6.7178,6.7837,6.9034,6.9842,6.9871,7.041,7.1068,7.1446,7.0233,6.885,6.8037,6.731,6.7162,6.8256,6.9883,7.1223,7.1827,7.3363,7.4426,7.4869,7.4899,7.5168,7.5647,7.5796,7.6335,7.7263,7.813,7.8908,7.9776,8.1332,8.2439,8.3158,8.4145,8.5402,8.5821,8.6689,8.7915,8.9142,9.007,9.0579,4.9852,5.0243,5.0481,5.0758,5.1005,5.1159,5.1222,5.1222,5.1222,5.1183,5.1068,5.0952,5.0856,5.0702,4.9875,4.9478,4.9453,4.8675,4.8153,4.7992,4.8705,4.8922,4.8875,4.9764,5.0328,5.0291,5.0618,5.0839,5.0839,5.0802,5.1022,5.1463,5.1219,5.1658,5.2595,5.2133,5.2113,5.2733,5.2395,5.1864,5.1056,5.0066,4.9639,4.9752,4.9127,4.8707,4.8413,4.8059,4.7548,4.6946,4.716,4.7489,4.7848,4.8147,4.8655,4.9404,5.1289,5.2476,5.2742,5.2072,5.1483,5.1065,5.0742,5.082,5.1247,5.2076,5.3682,5.616,5.5365,5.5446,5.7806,5.9879,6.1497,6.2707,6.5571,6.7687,6.7956,6.9183,6.9991,7.0051,7.0859,7.1547,7.1642,7.0858,7.016,6.9559,6.9112,6.9207,7.0492,7.1423,7.2314,7.3503,7.4426,7.4869,7.4929,7.5258,7.5587,7.5886,7.6215,7.6844,7.7652,7.837,7.9118,8.0195,8.1781,8.3098,8.3876,8.4743,8.5851,8.6599,8.7856,8.9082,8.9591,9.019,9.0549,5.0203,5.0522,5.0837,5.1037,5.1127,5.123,5.1397,5.1591,5.1591,5.1625,5.178,5.1414,5.1299,5.1222,5.0106,4.944,4.927,4.8638,4.8339,4.84,4.9021,4.9268,4.9398,5.0198,5.0575,5.0623,5.0994,5.1297,5.1417,5.1458,5.1756,5.227,5.2344,5.2637,5.3151,5.3225,5.3335,5.3518,5.3518,5.3628,5.3609,5.2193,5.1359,5.1469,5.0587,4.992,4.9724,4.892,4.8233,4.7734,4.7632,4.7788,4.8267,4.8596,4.9464,5.1023,5.277,5.3641,5.3317,5.2883,5.2326,5.1593,5.1381,5.1348,5.1758,5.2734,5.4831,5.7445,5.7201,5.7596,5.9369,6.1289,6.2629,6.3298,6.6263,6.8226,6.8345,6.9423,7.035,7.056,7.1308,7.2056,7.2342,7.2228,7.207,7.1988,7.1281,7.0988,7.2314,7.277,7.3363,7.4731,7.5018,7.5168,7.5198,7.5527,7.5946,7.6544,7.6993,7.7652,7.828,7.9028,7.9686,8.1123,8.238,8.3397,8.4295,8.5222,8.6419,8.7676,8.8843,8.9711,8.998,9.0369,9.0579,5.0182,5.0856,5.1089,5.1242,5.1236,5.1401,5.1914,5.2617,5.25,5.2887,5.3374,5.2531,5.2493,5.2955,5.0741,4.9364,4.8974,4.8563,4.847,4.8547,4.8648,4.8693,4.8799,4.9578,5.0004,5.0246,5.1355,5.23,5.2962,5.3041,5.3115,5.3115,5.3151,5.3188,5.3298,5.3335,5.3628,5.4338,5.4369,5.4742,5.53,5.4735,5.3654,5.2666,5.2894,5.2354,5.09,5.0435,4.9742,4.8759,4.8425,4.8237,4.8416,4.9494,5.099,5.2875,5.4256,5.4961,5.4604,5.3837,5.3179,5.2569,5.1765,5.1523,5.2085,5.367,5.5683,5.7779,5.9008,6.0508,6.2234,6.2604,6.3363,6.4783,6.7264,6.8734,6.8974,7.0081,7.1068,7.1577,7.1906,7.2535,7.3612,7.439,7.4385,7.4445,7.4396,7.4426,7.4288,7.4564,7.4731,7.4851,7.5347,7.5826,7.5856,7.6155,7.6634,7.7293,7.8071,7.8849,7.9806,8.0644,8.1242,8.205,8.3337,8.4265,8.4803,8.5791,8.7107,8.8274,8.9172,8.986,9.0279,9.0519,9.0638,5.0703,5.1162,5.1854,5.2169,5.2227,5.2806,5.3242,5.3516,5.3476,5.3581,5.3705,5.3352,5.3147,5.2954,5.2049,5.1364,5.078,4.9664,4.9195,4.9334,4.9794,4.9829,4.9564,5.0256,5.0664,5.0786,5.162,5.2509,5.3103,5.3225,5.3225,5.3335,5.3739,5.3959,5.4069,5.4473,5.5059,5.5503,5.5323,5.5728,5.6646,5.631,5.5772,5.5256,5.4102,5.2857,5.1564,5.0801,4.9931,4.8841,4.8455,4.8476,4.8985,5.0575,5.2197,5.3713,5.47,5.5107,5.4835,5.4285,5.3549,5.2906,5.2148,5.185,5.2261,5.3207,5.4944,5.7492,5.8924,6.0617,6.3032,6.3891,6.4721,6.6219,6.7867,6.9183,6.9722,7.0739,7.1637,7.1966,7.2595,7.3552,7.421,7.4719,7.4869,7.4869,7.4869,7.4869,7.4869,7.4869,7.4869,7.4988,7.5437,7.6036,7.6485,7.6904,7.7472,7.822,7.8968,7.9627,8.0464,8.1153,8.1751,8.2469,8.3846,8.4893,8.5372,8.6748,8.8005,8.8873,8.9741,9.016,9.0579,9.0638,9.0638,5.1528,5.1824,5.2706,5.3125,5.3164,5.375,5.418,5.4375,5.4414,5.4531,5.4648,5.4363,5.4088,5.3841,5.3203,5.3022,5.2776,5.0897,4.9834,4.9769,5.0066,5.0008,4.9746,5.018,5.0585,5.0873,5.1718,5.2506,5.3182,5.3482,5.3592,5.3628,5.4399,5.4766,5.492,5.5496,5.6091,5.6518,5.6348,5.6749,5.7712,5.7446,5.7109,5.6688,5.5107,5.3736,5.2771,5.1499,5.0437,4.9653,4.9144,4.9314,5.0242,5.1653,5.3091,5.4431,5.5308,5.5866,5.5867,5.5509,5.4911,5.3922,5.3244,5.275,5.2463,5.374,5.5601,5.7646,5.9777,6.1837,6.3713,6.4875,6.5802,6.6939,6.8196,6.9243,6.9931,7.1098,7.1996,7.2624,7.3522,7.433,7.4749,7.4839,7.4869,7.4869,7.4869,7.4869,7.4869,7.4869,7.5018,7.5228,7.5826,7.6485,7.7143,7.7831,7.834,7.9088,7.9686,8.0345,8.1003,8.1661,8.235,8.3068,8.3995,8.5073,8.6299,8.7706,8.8693,8.9531,9.007,9.0489,9.0638,9.0638,9.0638,5.2578,5.2812,5.3633,5.3984,5.3984,5.418,5.457,5.5234,5.5312,5.5664,5.6055,5.5508,5.5459,5.5685,5.4169,5.3891,5.4317,5.199,5.0453,5.0083,4.9468,4.9148,4.9127,4.9282,4.9769,5.0379,5.1499,5.2468,5.3292,5.3959,5.4326,5.4546,5.5207,5.5611,5.5574,5.6195,5.6776,5.7376,5.7484,5.7872,5.8547,5.8162,5.7583,5.692,5.6055,5.5297,5.4516,5.2481,5.131,5.1216,5.0529,5.081,5.1917,5.2808,5.3754,5.5149,5.6348,5.7332,5.7851,5.7674,5.6981,5.6126,5.5129,5.4367,5.401,5.5867,5.7779,5.8634,6.1328,6.404,6.4666,6.5592,6.634,6.7029,6.8315,6.9243,7.0081,7.1158,7.2415,7.3582,7.442,7.4809,7.4869,7.4869,7.4869,7.4869,7.4869,7.4869,7.4869,7.4869,7.5168,7.5736,7.6275,7.6814,7.7831,7.8819,7.9327,7.9896,8.0434,8.1033,8.1691,8.232,8.2978,8.3726,8.4863,8.597,8.7377,8.8634,8.9052,8.9771,9.0249,9.0638,9.0638,9.0638,9.0638,5.3325,5.3573,5.4385,5.4765,5.4844,5.5508,5.5976,5.6172,5.6211,5.6328,5.6484,5.6289,5.6239,5.625,5.5591,5.5287,5.5148,5.3384,5.2121,5.1178,5.059,4.9847,4.9222,4.9496,5.0335,5.1337,5.1849,5.2798,5.3879,5.4326,5.4656,5.528,5.6051,5.6381,5.65,5.7386,5.8237,5.8689,5.85,5.8607,5.9061,5.8363,5.7667,5.6969,5.6629,5.6129,5.5306,5.2851,5.1756,5.2157,5.0892,5.105,5.2576,5.3481,5.457,5.5777,5.6644,5.7654,5.8614,5.8541,5.8344,5.82,5.7467,5.6867,5.6493,5.7336,5.8618,5.9578,6.1762,6.3491,6.4784,6.6041,6.7089,6.8256,6.8764,6.9453,7.059,7.1787,7.3103,7.427,7.4749,7.4869,7.4869,7.4869,7.4869,7.4869,7.4869,7.4869,7.4869,7.4929,7.5138,7.5796,7.6425,7.7143,7.8041,7.8938,7.9656,8.0195,8.0764,8.1422,8.214,8.2858,8.3547,8.4504,8.5671,8.6898,8.8334,8.9172,8.9531,8.998,9.0489,9.0638,9.0638,9.0638,9.0638,5.4225,5.4361,5.5213,5.5582,5.5625,5.6367,5.6601,5.6601,5.6601,5.6601,5.6601,5.6601,5.6562,5.6484,5.6485,5.6187,5.5637,5.471,5.3591,5.2322,5.1099,5.0202,4.9624,5.0426,5.1423,5.2474,5.3116,5.3863,5.484,5.5133,5.5537,5.6088,5.6859,5.7361,5.7544,5.8455,5.9102,5.9319,5.9102,5.9028,5.8951,5.8375,5.774,5.7345,5.7021,5.6761,5.6349,5.3898,5.2716,5.293,5.1996,5.2252,5.3743,5.4398,5.524,5.6645,5.7494,5.8386,5.9349,5.9728,5.9626,5.9468,5.9135,5.8606,5.8313,5.8364,5.9623,6.0811,6.2477,6.4028,6.5262,6.658,6.7807,6.8854,6.8974,6.9812,7.1278,7.2385,7.3432,7.442,7.4869,7.4869,7.4869,7.4869,7.4869,7.4869,7.4869,7.4869,7.4929,7.5108,7.5587,7.6125,7.6844,7.7532,7.816,7.8998,7.9866,8.0434,8.0973,8.1691,8.2409,8.3128,8.3846,8.5073,8.627,8.7287,8.8634,8.9262,8.9711,9.0219,9.0638,9.0638,9.0638,9.0638,9.0638,5.5139,5.5283,5.6032,5.6304,5.6367,5.6562,5.6601,5.6601,5.6601,5.6601,5.6601,5.6601,5.6601,5.6601,5.6562,5.6458,5.6291,5.5632,5.4702,5.3311,5.1718,5.053,5.048,5.1786,5.2818,5.3628,5.4765,5.5464,5.5684,5.6271,5.6822,5.6932,5.761,5.8201,5.8561,5.9139,5.9424,5.9389,5.9354,5.9139,5.8753,5.826,5.7899,5.7801,5.7277,5.7211,5.7226,5.5698,5.4433,5.4252,5.3406,5.3623,5.489,5.518,5.6143,5.7812,5.871,5.9319,6.0236,6.1141,6.1315,6.0235,6.0432,5.9994,5.9161,6.0071,6.1091,6.1861,6.3708,6.5173,6.6131,6.7148,6.8226,6.8974,6.9423,7.05,7.2445,7.2924,7.3642,7.454,7.4869,7.4869,7.4869,7.4869,7.4869,7.4869,7.4869,7.4869,7.4988,7.5347,7.6096,7.6664,7.7203,7.8011,7.8669,7.9208,8.0105,8.0943,8.1482,8.217,8.2888,8.3636,8.4803,8.6,8.6808,8.7826,8.8783,8.9561,9.004,9.0429,9.0638,9.0638,9.0638,9.0638,9.0638,5.5926,5.5938,5.6148,5.631,5.6417,5.6558,5.6601,5.6601,5.6601,5.6601,5.6601,5.6601,5.6601,5.6601,5.6601,5.6518,5.6352,5.5858,5.5171,5.4345,5.3465,5.2422,5.2165,5.3262,5.4301,5.5012,5.5485,5.586,5.6455,5.6748,5.7116,5.7666,5.8178,5.8549,5.8796,5.9458,5.9696,5.9424,5.9389,5.9177,5.8702,5.8249,5.7709,5.7249,5.7447,5.7697,5.7899,5.725,5.5669,5.3711,5.3803,5.4281,5.5209,5.5748,5.6705,5.8052,5.8862,5.9615,6.0693,6.1642,6.2012,6.2228,6.2173,6.2175,6.1821,6.2558,6.3091,6.3624,6.4814,6.5948,6.6759,6.7537,6.8675,7.0141,7.0769,7.1547,7.2654,7.3373,7.3971,7.4689,7.4869,7.4869,7.4869,7.4869,7.4869,7.4869,7.4869,7.4929,7.5108,7.5557,7.6275,7.6814,7.7412,7.837,7.9148,7.9656,8.0375,8.1392,8.211,8.2798,8.3606,8.4474,8.6,8.7556,8.7676,8.8424,8.9471,9.0369,9.0579,9.0608,9.0638,9.0638,9.0638,9.0638,9.0638,5.6276,5.6267,5.6272,5.6327,5.6425,5.653,5.6601,5.6601,5.6601,5.6601,5.6601,5.6601,5.6601,5.6601,5.6601,5.6797,5.6953,5.662,5.6329,5.6167,5.5659,5.4655,5.39,5.4583,5.5474,5.6116,5.641,5.685,5.7226,5.7299,5.7593,5.7895,5.8282,5.8591,5.899,5.9248,5.9521,5.9416,5.9474,5.9278,5.8474,5.85,5.808,5.763,5.7964,5.8461,5.8528,5.851,5.7147,5.5095,5.4858,5.5329,5.5957,5.6631,5.7587,5.886,5.9636,6.0387,6.135,6.2121,6.266,6.2989,6.3079,6.3228,6.3351,6.3887,6.4126,6.4845,6.589,6.6667,6.7508,6.8465,6.9782,7.1098,7.2146,7.2864,7.3313,7.3642,7.418,7.4659,7.4869,7.4869,7.4869,7.4869,7.4869,7.4869,7.4869,7.5078,7.5347,7.5886,7.6425,7.6993,7.7711,7.8669,7.9477,8.0016,8.0853,8.1811,8.2888,8.3576,8.4384,8.5282,8.6389,8.7676,8.8274,8.8963,8.986,9.0519,9.0638,9.0638,9.0638,9.0638,9.0638,9.0638,9.0638,5.6405,5.6385,5.638,5.6425,5.642,5.6562,5.6601,5.664,5.6758,5.6836,5.6797,5.6758,5.6875,5.6758,5.6914,5.7187,5.7812,5.7742,5.7931,5.7774,5.7397,5.643,5.5483,5.5848,5.6418,5.696,5.7666,5.7813,5.785,5.7886,5.7923,5.8006,5.8097,5.8508,5.899,5.9028,5.9064,5.943,5.9549,5.9218,5.8549,5.8589,5.8414,5.802,5.8737,5.9332,5.9643,5.958,5.8745,5.6714,5.645,5.6624,5.7243,5.7828,5.8727,5.9847,6.0611,6.1416,6.2061,6.26,6.3019,6.3079,6.3139,6.3378,6.3857,6.4216,6.4814,6.5682,6.664,6.7448,6.8375,6.9871,7.1068,7.1996,7.3103,7.3791,7.4001,7.4001,7.424,7.4749,7.4869,7.4869,7.4869,7.4869,7.4869,7.4869,7.4899,7.5018,7.5467,7.6066,7.6634,7.7233,7.8071,7.8998,7.9746,8.0405,8.1332,8.235,8.3576,8.4474,8.5252,8.603,8.6629,8.7437,8.8304,8.9082,8.989,9.0309,9.0579,9.0638,9.0638,9.0638,9.0638,9.0638,9.0638,5.6414,5.6385,5.638,5.644,5.6575,5.6601,5.664,5.668,5.7344,5.7617,5.7617,5.7617,5.7617,5.7617,5.7617,5.7734,5.8086,5.8491,5.8712,5.8741,5.7884,5.7782,5.755,5.7602,5.7564,5.774,5.7886,5.7997,5.7997,5.7997,5.7997,5.8006,5.8282,5.8632,5.8796,5.914,5.9441,5.9622,5.9338,5.9067,5.8788,5.8446,5.8253,5.8183,5.9245,6.0197,6.0808,6.1152,6.0975,6.017,5.8782,5.7922,5.8113,5.8565,5.9349,6.0256,6.1237,6.1953,6.2241,6.269,6.3079,6.3169,6.3498,6.3857,6.4036,6.4994,6.5592,6.6221,6.7059,6.8226,6.9482,7.0799,7.1876,7.2684,7.3432,7.4151,7.451,7.4659,7.4719,7.4809,7.4869,7.4869,7.4869,7.4869,7.4869,7.4869,7.4899,7.4958,7.5527,7.6245,7.6814,7.7382,7.819,7.9118,8.0165,8.0973,8.202,8.2888,8.4025,8.5132,8.591,8.6479,8.6958,8.7646,8.8484,8.9262,9.001,9.0369,9.0638,9.0638,9.0638,9.0638,9.0638,9.0638,9.0668,5.6484,5.6524,5.6507,5.6523,5.668,5.7031,5.7187,5.7383,5.8125,5.8515,5.8515,5.8515,5.8515,5.8515,5.8515,5.8672,5.918,5.9773,5.9996,5.9755,5.9109,5.8929,5.8802,5.8549,5.8238,5.8051,5.7997,5.7997,5.7997,5.7997,5.7997,5.7997,5.8282,5.8461,5.8702,5.9089,5.9255,5.939,5.953,5.9295,5.8597,5.8572,5.8634,5.9008,6.0034,6.1129,6.2268,6.2475,6.2632,6.2267,6.1116,5.9986,5.9509,5.9546,6.0042,6.1036,6.1642,6.2276,6.257,6.2869,6.3199,6.3468,6.3827,6.4366,6.4814,6.5682,6.6311,6.6939,6.7926,6.9093,7.0679,7.1697,7.2624,7.3313,7.3971,7.448,7.4779,7.4869,7.4869,7.4869,7.4869,7.4869,7.4869,7.4869,7.4869,7.4869,7.4899,7.4988,7.5647,7.6335,7.6904,7.7532,7.828,7.9238,8.0464,8.1572,8.2709,8.3547,8.4384,8.5402,8.624,8.6689,8.7107,8.7885,8.8693,8.9412,9.007,9.0399,9.0638,9.0638,9.0638,9.0638,9.0638,9.0638,9.0638,5.6562,5.6601,5.6601,5.668,5.6914,5.7578,5.7969,5.8203,5.9023,5.9375,5.9375,5.9375,5.9375,5.9375,5.9375,5.9844,6.0547,6.0976,6.1027,6.0622,6.0188,5.9863,5.9512,5.8953,5.8503,5.8142,5.8042,5.7997,5.7997,5.7997,5.7997,5.7997,5.7997,5.8342,5.8789,5.8878,5.9102,5.9273,5.9439,5.9324,5.8531,5.8772,5.9313,6.0204,6.1003,6.2009,6.3091,6.364,6.3918,6.4046,6.3347,6.2516,6.1699,6.0837,6.0866,6.2002,6.2151,6.248,6.2869,6.3079,6.3318,6.3947,6.4156,6.4725,6.5622,6.6131,6.6759,6.7777,6.8794,6.9991,7.1667,7.2595,7.3223,7.3821,7.445,7.4809,7.4869,7.4869,7.4869,7.4869,7.4869,7.4869,7.4869,7.4869,7.4869,7.4899,7.4899,7.5108,7.5796,7.6425,7.7023,7.7622,7.834,7.9297,8.0524,8.1811,8.3008,8.3936,8.4714,8.5492,8.6359,8.6689,8.7137,8.8095,8.8903,8.9531,9.007,9.0489,9.0638,9.0638,9.0638,9.0638,9.0638,9.0638,9.0698,5.6523,5.6601,5.6601,5.6992,5.7656,5.7851,5.8398,5.9062,5.9844,6.0195,6.0195,6.0195,6.0195,6.0195,6.0195,6.0664,6.1289,6.1484,6.1436,6.1158,6.0716,6.0224,5.9977,5.9208,5.8716,5.8503,5.8194,5.7997,5.7997,5.7997,5.7997,5.7997,5.807,5.8428,5.8731,5.8651,5.9072,5.9457,5.9207,5.8646,5.8974,5.9354,6.0027,6.1197,6.2089,6.2853,6.3679,6.4729,6.5377,6.5312,6.4333,6.4028,6.3703,6.2595,6.192,6.2205,6.257,6.2869,6.3049,6.3139,6.3408,6.3947,6.4545,6.5173,6.5951,6.655,6.7268,6.8226,6.9602,7.0949,7.1787,7.2954,7.3642,7.4061,7.445,7.4869,7.4869,7.4869,7.4869,7.4869,7.4869,7.4869,7.4869,7.4869,7.4869,7.4958,7.5078,7.5288,7.5796,7.6485,7.7113,7.7741,7.834,7.9417,8.0584,8.1871,8.3098,8.4085,8.4863,8.5402,8.612,8.6509,8.7167,8.8185,8.8843,8.9352,8.989,9.0489,9.0638,9.0638,9.0638,9.0638,9.0638,9.0668,9.0878,5.6445,5.6523,5.7031,5.75,5.8008,5.8828,5.9414,5.9922,6.0703,6.1094,6.1094,6.1094,6.1055,6.1055,6.1094,6.1367,6.1562,6.164,6.1523,6.1315,6.1006,6.0712,6.0465,5.9521,5.9176,5.8874,5.8375,5.7997,5.7997,5.7997,5.7997,5.8107,5.8364,5.8841,5.9212,5.9372,5.9365,5.9643,5.8997,5.8938,5.9864,6.067,6.1953,6.2647,6.3647,6.4433,6.4873,6.572,6.6575,6.644,6.5367,6.5025,6.4721,6.3873,6.2565,6.263,6.2899,6.3079,6.3169,6.3348,6.3887,6.4515,6.5144,6.6011,6.6759,6.7418,6.7926,6.913,7.029,7.1727,7.2372,7.3373,7.3941,7.436,7.4689,7.4839,7.4869,7.4869,7.4869,7.4869,7.4869,7.4869,7.4869,7.4869,7.4869,7.5018,7.5228,7.5725,7.6115,7.6884,7.7776,7.8639,7.9475,8.0243,8.1149,8.208,8.3217,8.4205,8.4863,8.5432,8.606,8.6539,8.7377,8.8394,8.8903,8.9172,8.998,9.0638,9.0638,9.0638,9.0638,9.0638,9.0638,9.0728,9.0938,5.6393,5.6484,5.75,5.8008,5.8398,5.9726,6.0469,6.0781,6.1367,6.164,6.1719,6.168,6.164,6.168,6.168,6.1719,6.1719,6.168,6.1562,6.1383,6.1283,6.1098,6.0657,5.9985,5.9389,5.9389,5.8461,5.796,5.7997,5.7997,5.8107,5.839,5.8941,5.9501,5.9798,5.9835,5.9745,5.9628,5.9399,5.9872,6.1322,6.2833,6.4102,6.4356,6.5569,6.6038,6.6104,6.6086,6.6937,6.6853,6.5955,6.4938,6.5496,6.4144,6.3164,6.3079,6.3079,6.3109,6.3378,6.3647,6.4276,6.5144,6.5682,6.664,6.7657,6.8196,6.8824,6.9969,7.1378,7.2295,7.285,7.3596,7.427,7.4659,7.4839,7.4869,7.4869,7.4869,7.4869,7.4869,7.4869,7.4899,7.4929,7.5258,7.5318,7.5527,7.5736,7.7046,7.7577,7.817,7.9007,8.0047,8.0761,8.1304,8.1951,8.229,8.3399,8.4414,8.4863,8.5252,8.597,8.6659,8.7556,8.8364,8.8663,8.9023,8.992,9.0638,9.0638,9.0638,9.0638,9.0638,9.0638,9.0758,9.0968,5.6275,5.6484,5.75,5.8359,5.914,6.0078,6.0859,6.1484,6.164,6.1719,6.168,6.1719,6.168,6.1719,6.1719,6.1719,6.1719,6.168,6.1601,6.144,6.133,6.1169,6.0825,5.9893,5.9728,5.9658,5.8673,5.8097,5.8143,5.8143,5.839,5.8893,5.9307,5.9832,6.0836,6.0084,5.9703,6.0167,6.0303,6.1325,6.3126,6.3918,6.4867,6.5581,6.6179,6.6334,6.6497,6.6098,6.635,6.7362,6.4929,6.4421,6.529,6.4144,6.3334,6.3079,6.3139,6.3288,6.3737,6.4126,6.4635,6.5562,6.6071,6.6729,6.7956,6.9123,6.9849,6.9939,7.1577,7.2671,7.3103,7.4015,7.4659,7.4809,7.4869,7.4869,7.4869,7.4869,7.4869,7.4869,7.4869,7.4958,7.5018,7.5437,7.5826,7.6036,7.6584,7.7866,7.907,7.9773,8.0749,8.1932,8.2234,8.2684,8.2663,8.3008,8.3459,8.4564,8.4953,8.5252,8.603,8.6808,8.7437,8.8125,8.8424,8.9112,9.016,9.0638,9.0638,9.0638,9.0638,9.0638,9.0638,9.0818,9.0968,5.6652,5.722,5.8222,5.9101,5.9961,6.0781,6.1281,6.155,6.1577,6.1564,6.1601,6.1601,6.164,6.168,6.1719,6.1719,6.1719,6.1719,6.1562,6.1414,6.1288,6.1151,6.0762,6.0199,5.9977,5.9861,5.9361,5.9027,5.8947,5.886,5.8941,5.9285,6.0078,6.0823,6.1592,6.049,6.0448,6.1051,6.1882,6.3105,6.4634,6.5898,6.6753,6.6988,6.7643,6.7228,6.6257,6.6508,6.6501,6.7155,6.5475,6.5401,6.6012,6.5156,6.3995,6.3109,6.3498,6.3767,6.4036,6.4695,6.5383,6.6041,6.6729,6.7777,6.8944,6.9901,7.0749,7.1058,7.2188,7.2939,7.3431,7.4313,7.4719,7.4869,7.4869,7.4869,7.4869,7.4869,7.4869,7.4869,7.4929,7.5138,7.5347,7.6043,7.6403,7.6445,7.75,7.9281,8.0813,8.2074,8.3076,8.4242,8.4185,8.3998,8.3755,8.3725,8.3792,8.4564,8.5192,8.5581,8.624,8.6958,8.7467,8.8035,8.8514,8.9352,9.0369,9.0638,9.0638,9.0638,9.0638,9.0638,9.0668,9.0758,9.1087,5.7016,5.8027,5.8844,5.9641,6.0411,6.127,6.1546,6.1466,6.1456,6.1452,6.1471,6.1484,6.1562,6.164,6.164,6.164,6.164,6.1672,6.1506,6.1383,6.1289,6.1097,6.08,6.0376,6.0275,6.0551,6.0047,6.0001,6.0224,6.0203,6.0093,5.9835,6.0848,6.1814,6.1901,6.1358,6.1078,6.2238,6.3194,6.4492,6.6211,6.785,6.8305,6.8418,6.8413,6.7938,6.6194,6.5293,6.5652,6.7208,6.5924,6.5853,6.7144,6.596,6.4703,6.4001,6.4111,6.4218,6.4576,6.5263,6.6041,6.6789,6.7657,6.8884,6.9692,7.062,7.1248,7.1778,7.2727,7.3358,7.3878,7.4493,7.4809,7.4869,7.4869,7.4869,7.4899,7.5125,7.5125,7.4958,7.5138,7.5418,7.5965,7.674,7.712,7.6993,7.8415,8.0719,8.2671,8.454,8.6012,8.7129,8.5774,8.5504,8.5431,8.5142,8.497,8.4564,8.5192,8.5821,8.6419,8.6808,8.7167,8.7796,8.8484,8.9202,9.001,9.0339,9.0638,9.0638,9.0638,9.0638,9.0668,9.0818,9.1267,5.7285,5.8644,5.9033,5.9607,6.0305,6.1147,6.1444,6.1306,6.1288,6.1334,6.1328,6.1445,6.1523,6.1523,6.1523,6.1541,6.1504,6.153,6.1443,6.1353,6.1298,6.1169,6.0887,6.0712,6.0797,6.1505,6.1149,6.1217,6.1599,6.1766,6.1656,6.1581,6.1875,6.2695,6.296,6.2458,6.2364,6.3286,6.3996,6.5705,6.7477,6.8787,6.8982,6.9041,6.7901,6.6789,6.6913,6.4544,6.4505,6.7391,6.6039,6.6256,6.7842,6.6828,6.57,6.5034,6.4995,6.5021,6.5144,6.5651,6.664,6.7777,6.8884,6.9752,7.032,7.1218,7.1757,7.2146,7.3103,7.3656,7.4164,7.4463,7.4839,7.4929,7.5125,7.5489,7.5685,7.5746,7.5715,7.5215,7.579,7.685,7.7441,7.8654,7.843,7.8445,8.1018,8.3383,8.5864,8.7689,8.9261,8.9827,8.7858,8.7221,8.7286,8.6539,8.482,8.4624,8.5222,8.5851,8.6479,8.6778,8.6988,8.7646,8.8364,8.8993,8.9651,9.019,9.0579,9.0638,9.0668,9.0728,9.1087,9.1476,9.1895,5.7208,5.8718,5.8839,5.9697,6.1004,6.1351,6.1439,6.1292,6.1164,6.1127,6.1135,6.1358,6.1509,6.1484,6.1523,6.1556,6.1597,6.1503,6.1461,6.1405,6.1334,6.1194,6.1048,6.13,6.162,6.2093,6.2153,6.2289,6.2605,6.2889,6.3109,6.3014,6.3099,6.3429,6.369,6.3733,6.3867,6.4053,6.501,6.6668,6.8159,6.8786,6.8886,6.8787,6.792,6.6253,6.5297,6.4026,6.4926,6.6076,6.6083,6.7451,6.8827,6.7842,6.6964,6.6071,6.6032,6.5914,6.5771,6.6279,6.7208,6.8405,6.9453,7.029,7.0889,7.1667,7.2355,7.2924,7.3552,7.3985,7.4599,7.4779,7.4899,7.4988,7.5382,7.5972,7.68,7.716,7.7427,7.7529,7.8491,7.9676,8.0144,8.0713,8.0203,8.0088,8.3091,8.5972,8.8184,9.0036,9.1276,9.1177,8.9146,8.801,8.7948,8.6297,8.4209,8.4714,8.5312,8.591,8.6509,8.6629,8.6928,8.7586,8.8215,8.8873,8.9531,9.019,9.0549,9.0608,9.0728,9.0848,9.1357,9.1985,9.2494,5.7324,5.8578,5.8896,5.9954,6.1352,6.1436,6.1343,6.1189,6.1074,6.1012,6.1012,6.135,6.1483,6.1487,6.1483,6.1556,6.1599,6.1535,6.1525,6.1534,6.1598,6.1516,6.173,6.2089,6.2603,6.2858,6.3257,6.3603,6.3504,6.371,6.3841,6.4132,6.4589,6.4861,6.4908,6.4918,6.4867,6.5006,6.5689,6.7583,6.9185,6.9261,6.8806,6.8433,6.7316,6.5857,6.4537,6.3636,6.4452,6.6012,6.7048,6.8109,6.9049,6.9362,6.8502,6.7629,6.7051,6.7021,6.6462,6.7145,6.8046,6.9183,6.9901,7.0799,7.1577,7.2086,7.2744,7.3687,7.4001,7.439,7.4869,7.4869,7.57,7.6122,7.6605,7.7355,7.8854,7.9691,7.9789,8.0046,8.1094,8.1697,8.2493,8.2972,8.3771,8.3576,8.5181,8.7808,8.965,9.1209,9.2203,9.1456,8.9698,8.8958,8.8371,8.6018,8.4115,8.5013,8.5611,8.606,8.6479,8.6599,8.6748,8.7167,8.7856,8.8693,8.9382,9.001,9.0369,9.0638,9.0728,9.0818,9.1446,9.2075,9.2733,5.7572,5.8385,5.9364,6.0356,6.1264,6.132,6.1228,6.1089,6.105,6.102,6.1065,6.135,6.1482,6.15,6.1498,6.1517,6.1575,6.1517,6.1569,6.1792,6.2141,6.2346,6.2635,6.3026,6.3589,6.4359,6.4564,6.4534,6.4464,6.4961,6.4903,6.4918,6.5506,6.6006,6.6225,6.55,6.545,6.6057,6.6195,6.8378,6.9877,6.9973,6.9313,6.8162,6.6832,6.5352,6.4204,6.3141,6.4196,6.6528,6.7036,6.8471,7.0714,7.0636,6.9822,6.8655,6.8303,6.7608,6.6455,6.7981,6.9093,6.9782,7.041,7.1248,7.1906,7.2505,7.3193,7.4031,7.442,7.4826,7.5006,7.5202,7.6392,7.757,7.8212,7.9463,8.0999,8.2296,8.2453,8.2734,8.2899,8.3253,8.4258,8.5237,8.6774,8.7488,8.8292,8.954,9.1059,9.2083,9.2962,9.2091,9.051,8.9475,8.8376,8.5556,8.4359,8.5162,8.5881,8.6299,8.6539,8.6629,8.6778,8.6928,8.7706,8.8753,8.9292,8.9771,9.0219,9.0638,9.0638,9.0848,9.1506,9.2165,9.2883,5.7572,5.838,5.9265,6.0248,6.122,6.1327,6.1304,6.1304,6.1251,6.1193,6.1229,6.1425,6.1497,6.1485,6.1523,6.1562,6.1601,6.1549,6.166,6.2461,6.2695,6.2989,6.3418,6.3984,6.4397,6.4705,6.5064,6.5577,6.5771,6.6112,6.6291,6.6379,6.6208,6.6017,6.6151,6.6253,6.7403,6.6767,6.7707,6.9404,7.0241,6.9901,6.9105,6.7857,6.645,6.5167,6.4042,6.3071,6.4457,6.6823,6.7266,6.8958,7.1512,7.1796,7.1604,7.0861,7.048,6.9171,6.8421,6.9123,6.9662,7.026,7.0919,7.1757,7.2505,7.3163,7.3821,7.4466,7.4932,7.5489,7.6202,7.7059,7.8189,7.9731,8.0745,8.2357,8.3771,8.4626,8.5253,8.5648,8.5965,8.6654,8.7578,8.7706,8.8994,8.9966,9.0467,9.0754,9.2,9.2759,9.3537,9.2593,9.1356,9.0158,8.8468,8.6139,8.4903,8.5521,8.612,8.6509,8.6659,8.6689,8.6988,8.7227,8.8035,8.8843,8.9471,9.004,9.0369,9.0638,9.0939,9.1254,9.1955,9.2524,9.3032,5.7627,5.8412,5.9511,6.0435,6.1212,6.1309,6.1366,6.1475,6.1386,6.1368,6.1397,6.1508,6.1585,6.1562,6.1562,6.1601,6.168,6.164,6.2031,6.293,6.3242,6.3711,6.4323,6.4916,6.5191,6.5359,6.5795,6.6384,6.6327,6.675,6.7043,6.7123,6.6992,6.6377,6.6253,6.6765,6.7599,6.7517,6.885,7.0168,7.0401,6.9809,6.8682,6.7362,6.6063,6.482,6.4009,6.4126,6.4813,6.6543,6.8042,6.9566,7.2,7.3322,7.3201,7.2841,7.1358,6.9945,6.9329,6.9512,7.0081,7.0799,7.1517,7.2295,7.3043,7.3612,7.4151,7.4706,7.5324,7.6202,7.7154,7.8201,8.0048,8.1614,8.3058,8.4566,8.6059,8.691,8.7161,8.7762,8.8078,8.9273,9.0222,9.0716,9.1059,9.1782,9.2507,9.2692,9.2759,9.3267,9.369,9.3049,9.1879,9.0214,8.863,8.6902,8.6027,8.6068,8.6329,8.6659,8.6689,8.6689,8.7137,8.7586,8.8274,8.8993,8.9801,9.0339,9.0849,9.1372,9.1962,9.2231,9.2513,9.2963,9.3372,5.7889,5.8519,6.0104,6.0973,6.128,6.1337,6.1432,6.1516,6.1485,6.1537,6.152,6.1621,6.168,6.168,6.168,6.168,6.1797,6.1758,6.2422,6.3164,6.3867,6.457,6.5234,6.5746,6.5826,6.6178,6.6602,6.6803,6.6656,6.7502,6.7947,6.7709,6.7477,6.6872,6.6601,6.6993,6.7665,6.8413,6.9993,7.0956,7.1106,6.9992,6.8659,6.7169,6.5623,6.4274,6.3822,6.429,6.5513,6.7061,6.8569,7.1017,7.3084,7.4659,7.451,7.3508,7.1516,7.0441,6.9291,6.9632,7.0739,7.1547,7.1876,7.2714,7.3432,7.3941,7.439,7.5173,7.5832,7.6831,7.7641,7.9856,8.1941,8.34,8.4866,8.6447,8.8136,8.8813,8.8733,8.8982,8.9184,8.9884,9.0696,9.1406,9.2049,9.2556,9.303,9.3165,9.3233,9.3267,9.369,9.3736,9.2204,9.0171,8.8661,8.7424,8.6574,8.621,8.6419,8.6689,8.6689,8.6868,8.7377,8.7915,8.8454,8.9172,9.007,9.0759,9.1312,9.1962,9.2704,9.389,9.429,9.3668,9.3865,5.7953,5.8604,6.0242,6.1127,6.1422,6.1539,6.1594,6.1638,6.1671,6.164,6.1648,6.168,6.1719,6.1719,6.1719,6.1719,6.1953,6.2383,6.3164,6.3906,6.4648,6.5469,6.6015,6.624,6.6225,6.6429,6.6756,6.7395,6.7859,6.8597,6.8602,6.8308,6.7862,6.7366,6.7522,6.8255,6.8592,6.9332,7.1051,7.1682,7.1421,7.0417,6.8764,6.6899,6.5324,6.4056,6.3615,6.4512,6.5941,6.7234,6.924,7.1796,7.4756,7.5661,7.5544,7.3541,7.2407,7.162,6.9692,7.0021,7.1188,7.2235,7.2565,7.3013,7.3732,7.43,7.4659,7.555,7.6761,7.7676,7.9223,8.1326,8.3348,8.5035,8.6373,8.7451,8.8835,8.9106,8.9207,8.9715,8.9884,9.0594,9.1372,9.1913,9.2522,9.303,9.3368,9.3503,9.3571,9.3571,9.374,9.3788,9.2242,9.0092,8.9339,8.8278,8.7277,8.6449,8.6599,8.6748,8.6868,8.7137,8.7676,8.8334,8.9082,8.9741,9.0399,9.0909,9.1372,9.2704,9.3496,9.49,9.59,9.5481,9.4933,5.7915,5.8642,6.0281,6.1189,6.1502,6.164,6.1719,6.1719,6.1719,6.1719,6.1719,6.1719,6.1719,6.1719,6.1719,6.1719,6.1797,6.2539,6.3398,6.4258,6.5234,6.5937,6.6406,6.6555,6.6588,6.6807,6.7295,6.7983,6.8495,6.8717,6.8734,6.8652,6.8168,6.7976,6.8271,6.9251,6.968,7.0417,7.1412,7.2205,7.1687,7.0567,6.8566,6.689,6.5417,6.3932,6.3592,6.4813,6.6511,6.8109,7.0297,7.34,7.6051,7.7072,7.6784,7.4902,7.348,7.217,7.0587,7.0727,7.1798,7.2654,7.3163,7.3672,7.4121,7.4629,7.5352,7.6063,7.7569,7.8972,8.0883,8.284,8.4744,8.6586,8.7439,8.826,8.8666,8.9038,8.9545,9.0121,9.0763,9.1474,9.2083,9.2556,9.2928,9.33,9.347,9.3537,9.3571,9.3571,9.3706,9.3892,9.1953,8.9905,8.9479,8.8855,8.7395,8.6539,8.6599,8.6778,8.7018,8.7467,8.8005,8.8903,8.986,9.0339,9.0638,9.0774,9.1238,9.2863,9.5198,9.704,9.8192,9.81,9.7499,5.7851,5.8495,6.0278,6.1214,6.1505,6.164,6.1719,6.1719,6.1719,6.1719,6.1719,6.1719,6.168,6.168,6.168,6.1797,6.2187,6.289,6.3789,6.4453,6.5508,6.625,6.6562,6.6693,6.6937,6.7533,6.807,6.8411,6.8597,6.8725,6.8729,6.8898,6.8681,6.8486,6.8602,7.0094,7.0488,7.0507,7.2038,7.3191,7.1759,7.014,6.8409,6.692,6.4995,6.3309,6.3984,6.5558,6.7845,6.9722,7.2365,7.562,7.7773,7.8441,7.7832,7.6454,7.4472,7.2743,7.1563,7.148,7.2038,7.2834,7.3522,7.4061,7.451,7.4749,7.5412,7.6379,7.7538,7.9128,8.0938,8.3101,8.5254,8.6569,8.7347,8.8158,8.8835,8.9275,8.985,9.0493,9.1237,9.1947,9.2624,9.3064,9.3199,9.3503,9.3571,9.3571,9.3605,9.3605,9.3943,9.4027,9.189,9.0128,9.0003,8.9153,8.7361,8.6659,8.6689,8.6988,8.7317,8.7826,8.8364,8.9322,9.0279,9.0429,9.0638,9.1074,9.2415,9.4798,9.7089,9.9341,10.0247,10.0406,10.0191,5.7662,5.8638,6.0555,6.147,6.164,6.1674,6.1719,6.1719,6.1719,6.1719,6.1719,6.168,6.166,6.1576,6.1671,6.1914,6.2617,6.3359,6.4414,6.5234,6.6055,6.6367,6.6796,6.7014,6.729,6.7653,6.8135,6.8635,6.8579,6.8567,6.8655,6.8898,6.8826,6.8773,6.8922,7.0411,7.0907,7.0793,7.2844,7.353,7.219,7.0689,6.9091,6.7042,6.4849,6.4023,6.4971,6.6908,6.9184,7.1357,7.5036,7.8187,8.0873,7.9718,7.862,7.7306,7.5068,7.3467,7.2532,7.22,7.254,7.2894,7.3552,7.418,7.4629,7.4779,7.5444,7.6446,7.7828,7.9471,8.1166,8.3565,8.5452,8.6332,8.7144,8.8023,8.8937,8.9545,9.0121,9.0865,9.1609,9.2286,9.2928,9.3368,9.3503,9.3571,9.3571,9.3571,9.3605,9.3706,9.4485,9.4274,9.1959,9.0522,9.0446,8.9449,8.7857,8.6877,8.6778,8.7167,8.7676,8.8484,8.9292,8.989,9.0549,9.0774,9.1372,9.2415,9.3903,9.6125,9.8171,10.0284,10.2153,10.2787,10.2676,5.7756,5.8693,6.0642,6.1576,6.168,6.1719,6.1719,6.1719,6.1719,6.1719,6.1719,6.168,6.1632,6.1594,6.1666,6.2158,6.2969,6.3867,6.4687,6.5586,6.6307,6.6562,6.6902,6.7248,6.7487,6.7752,6.8259,6.8565,6.8474,6.8716,6.8873,6.9265,6.9261,6.9325,6.9582,7.0685,7.1283,7.1627,7.3847,7.3982,7.2875,7.1715,6.9656,6.7419,6.6058,6.5204,6.5816,6.7849,7.0693,7.3647,7.7393,7.9617,8.1066,8.0298,7.914,7.7934,7.6241,7.4439,7.3705,7.3292,7.3113,7.3353,7.3881,7.4659,7.5947,7.6233,7.6906,7.8014,7.9718,8.1304,8.2491,8.4487,8.5621,8.6501,8.7008,8.7685,8.8531,8.9309,8.985,9.0459,9.1203,9.1947,9.2624,9.3334,9.347,9.3571,9.3571,9.3639,9.3639,9.3943,9.4721,9.4846,9.2874,9.1337,9.0838,8.9859,8.8195,8.7477,8.7027,8.7736,8.8514,8.9441,9.0249,9.0759,9.1208,9.1372,9.2124,9.3307,9.4491,9.6274,9.8555,10.0904,10.2827,10.4566,10.4639,5.8055,5.9061,6.0773,6.1575,6.168,6.1719,6.1719,6.1719,6.1719,6.1719,6.1719,6.1719,6.168,6.1648,6.19,6.2453,6.3164,6.414,6.4922,6.5703,6.6328,6.6456,6.6785,6.7269,6.7744,6.8101,6.8424,6.8435,6.8308,6.8646,6.9173,6.9868,7.0132,7.0265,7.0843,7.1204,7.1391,7.2553,7.3931,7.4714,7.4049,7.3142,7.0613,6.8699,6.7277,6.6679,6.7208,6.9016,7.2257,7.5383,7.885,8.0571,8.1007,8.033,7.9599,7.8383,7.7176,7.5981,7.5296,7.4867,7.4303,7.393,7.4646,7.5533,7.68,7.7797,7.8463,7.9786,8.1486,8.2491,8.3531,8.4561,8.5513,8.667,8.7076,8.7583,8.8429,8.914,8.9613,9.0154,9.0899,9.1643,9.2387,9.3131,9.347,9.3537,9.3605,9.3673,9.3842,9.4349,9.4958,9.5359,9.4741,9.3236,9.2176,9.0296,8.8807,8.8161,8.7839,8.8567,8.9425,9.0678,9.1426,9.1577,9.1962,9.2863,9.3465,9.4645,9.5827,9.7011,9.8828,10.1103,10.3364,10.5005,10.5851,5.8577,6.0823,6.1309,6.1575,6.168,6.1719,6.1719,6.1719,6.1719,6.1719,6.168,6.168,6.1626,6.1422,6.231,6.2925,6.3454,6.4404,6.5387,6.625,6.6329,6.6301,6.6613,6.7323,6.8406,6.8678,6.8518,6.8234,6.8269,6.8693,6.9302,7.0017,6.9987,7.0301,7.1015,7.1376,7.1882,7.318,7.4296,7.5117,7.4921,7.3704,7.1794,6.9921,6.8208,6.8665,6.971,7.1796,7.4492,7.7196,7.932,8.0672,8.0442,7.9578,7.8777,7.8592,7.7581,7.7224,7.6618,7.6204,7.5527,7.485,7.5307,7.5936,7.7216,7.8657,7.9697,8.1316,8.2458,8.2458,8.331,8.4251,8.5249,8.6738,8.7617,8.8226,8.897,8.9173,8.9444,9.0121,9.0865,9.1609,9.2353,9.2996,9.3503,9.3605,9.3706,9.3842,9.4282,9.4755,9.5296,9.5629,9.5991,9.5583,9.4551,9.1603,8.9979,8.9053,8.8864,8.9925,9.0867,9.2085,9.274,9.3119,9.4337,9.5526,9.6125,9.6125,9.7157,9.8405,9.9559,10.1335,10.3632,10.5377,10.6189]},{"header":{"parameterUnit":"m.s-1","parameterCategory":1,"la1":31.0,"la2":29.5877,"lo1":-88.7671,"lo2":-86.6584,"dy":0.0162,"dx":0.0185,"nx":115,"ny":88,"refTime":"2024-08-04T00:00:00:Z","depth":0,"parameterNumber":3,"parameterNumberName":"V-component_of_WINDS"},"data":[0.0,0.0,0.0,0.0,0.0,0.0,0.0,0.0,0.0,0.0,0.0,0.0,0.0,0.0,0.0,0.0,0.0,0.0,0.0,0.0,0.0,0.0,0.0,0.0,0.0,0.0,0.0,0.0,0.0,0.0,0.0,0.0,0.0,0.0,0.0,0.0,0.0,0.0,0.0,0.0,0.0,0.0,0.0,0.0,0.0,0.0,0.0,0.0,0.0,0.0,0.0,0.0,0.0,0.0,0.0,0.0,0.0,0.0,0.0,0.0,0.0,0.0,0.0,0.0,0.0,0.0,0.0,0.0,0.0,0.0,0.0,0.0,0.0,0.0,0.0,0.0,0.0,0.0,0.0,0.0,0.0,0.0,0.0,0.0,0.0,0.0,0.0,0.0,0.0,0.0,0.0,0.0,0.0,0.0,0.0,0.0,0.0,0.0,0.0,0.0,0.0,0.0,0.0,0.0,0.0,0.0,0.0,0.0,0.0,0.0,0.0,0.0,0.0,0.0,0.0,0.0,0.0,0.0,0.0,0.0,0.0,0.0,0.0,0.0,0.0,0.0,0.0,0.0,0.0,0.0,0.0,0.0,0.0,0.0,0.0,0.0,0.0,0.0,0.0,0.0,0.0,0.0,0.0,0.0,0.0,0.0,0.0,0.0,0.0,0.0,0.0,0.0,0.0,0.0,0.0,0.0,0.0,0.0,0.0,0.0,0.0,0.0,0.0,0.0,0.0,0.0,0.0,0.0,0.0,0.0,0.0,0.0,0.0,0.0,0.0,0.0,0.0,0.0,0.0,0.0,0.0,0.0,0.0,0.0,0.0,0.0,0.0,0.0,0.0,0.0,0.0,0.0,0.0,0.0,0.0,0.0,0.0,0.0,0.0,0.0,0.0,0.0,0.0,0.0,0.0,0.0,0.0,0.0,0.0,0.0,0.0,0.0,0.0,0.0,0.0,0.0,0.0,0.0,0.0,0.0,0.0,0.0,0.0,0.0,0.0,0.0,0.0,0.0,0.0,0.0,0.0,0.0,0.0,0.0,0.0,0.0,0.0,0.0,0.0,0.0,0.0,0.0,0.0,0.0,0.0,0.0,0.0,0.0,0.0,0.0,0.0,0.0,0.0,0.0,0.0,0.0,0.0,0.0,0.0,0.0,0.0,0.0,0.0,0.0,0.0,0.0,0.0,0.0,0.0,0.0,0.0,0.0,0.0,0.0,0.0,0.0,0.0,0.0,0.0,0.0,0.0,0.0,0.0,0.0,0.0,0.0,0.0,0.0,0.0,0.0,0.0,0.0,0.0,0.0,0.0,0.0,0.0,0.0,0.0,0.0,0.0,0.0,0.0,0.0,0.0,0.0,0.0,0.0,0.0,0.0,0.0,0.0,0.0,0.0,0.0,0.0,0.0,0.0,0.0,0.0,0.0,0.0,0.0,0.0,0.0,0.0,0.0,0.0,0.0,0.0,0.0,0.0,0.0,0.0,0.0,0.0,0.0,0.0,0.0,0.0,0.0,0.0,0.0,0.0,0.0,0.0,0.0,0.0,0.0,0.0,0.0,0.0,0.0,0.0,0.0,0.0,0.0,0.0,0.0,0.0,0.0,0.0,0.0,0.0,0.0,0.0,0.0,0.0,0.0,0.0,0.0,0.0,0.0,0.0,0.0,0.0,0.0,0.0,0.0,0.0,0.0,0.0,0.0,0.0,0.0,0.0,0.0,0.0,0.0,0.0,0.0,0.0,0.0,0.0,0.0,0.0,0.0,0.0,0.0,0.0,0.0,0.0,0.0,0.0,0.0,0.0,0.0,0.0,0.0,0.0,0.0,0.0,0.0,0.0,0.0,0.0,0.0,0.0,0.0,0.0,0.0,0.0,0.0,0.0,0.0,0.0,0.0,0.0,0.0,0.0,0.0,0.0,0.0,0.0,0.0,0.0,0.0,0.0,0.0,0.0,0.0,0.0,0.0,0.0,0.0,0.0,0.0,0.0,0.0,0.0,0.0,0.0,0.0,0.0,0.0,0.0,0.0,0.0,0.0,0.0,0.0,0.0,0.0,0.0,0.0,0.0,0.0,0.0,0.0,0.0,0.0,0.0,0.0,0.0,0.0,0.0,0.0,0.0,0.0,0.0,0.0,0.0,0.0,0.0,0.0,0.0,0.0,0.0,0.0,0.0,0.0,0.0,0.0,0.0,0.0,0.0,0.0,0.0,0.0,0.0,0.0,0.0,0.0,0.0,0.0,0.0,0.0,0.0,0.0,0.0,0.0,0.0,0.0,0.0,0.0,0.0,0.0,0.0,0.0,0.0,0.0,0.0,0.0,0.0,0.0,0.0,0.0,0.0,0.0,0.0,0.0,0.0,0.0,0.0,0.0,0.0,0.0,0.0,0.0,0.0,0.0,0.0,0.0,0.0,0.0,0.0,0.0,0.0,0.0,0.0,0.0,0.0,0.0,0.0,0.0,0.0,0.0,0.0,0.0,0.0,0.0,0.0,0.0,0.0,0.0,0.0,0.0,0.0,0.0,0.0,0.0,0.0,0.0,0.0,0.0,0.0,0.0,0.0,0.0,0.0,0.0,0.0,0.0,0.0,0.0,0.0,0.0,0.0,0.0,0.0,0.0,0.0,0.0,0.0,0.0,0.0,0.0,0.0,0.0,0.0,0.0,0.0,0.0,0.0,0.0,0.0,0.0,0.0,0.0,0.0,0.0,0.0,0.0,0.0,0.0,0.0,0.0,0.0,0.0,0.0,0.0,0.0,0.0,0.0,0.0,0.0,0.0,0.0,0.0,0.0,0.0,0.0,0.0,0.0,0.0,0.0,0.0,0.0,0.0,0.0,0.0,0.0,0.0,0.0,0.0,0.0,0.0,0.0,0.0,0.0,0.0,0.0,0.0,0.0,0.0,0.0,0.0,0.0,0.0,0.0,0.0,0.0,0.0,0.0,0.0,0.0,0.0,0.0,0.0,0.0,0.0,0.0,0.0,0.0,0.0,0.0,0.0,0.0,0.0,0.0,0.0,0.0,0.0,0.0,0.0,0.0,0.0,0.0,0.0,0.0,0.0,0.0,0.0,0.0,0.0,0.0,0.0,0.0,0.0,0.0,0.0,0.0,0.0,0.0,0.0,0.0,0.0,0.0,0.0,0.0,0.0,0.0,0.0,0.0,0.0,0.0,0.0,0.0,0.0,0.0,0.0,0.0,0.0,0.0,0.0,0.0,0.0,0.0,0.0,0.0,0.0,0.0,0.0,0.0,0.0,0.0,0.0,0.0,0.0,0.0,0.0,0.0,0.0,0.0,0.0,0.0,0.0,0.0,0.0,0.0,0.0,0.0,0.0,0.0,0.0,0.0,0.0,0.0,0.0,0.0,0.0,0.0,0.0,0.0,0.0,0.0,0.0,0.0,0.0,0.0,0.0,0.0,0.0,0.0,0.0,0.0,0.0,0.0,0.0,0.0,0.0,0.0,0.0,0.0,0.0,0.0,0.0,0.0,0.0,0.0,0.0,0.0,0.0,0.0,0.0,0.0,0.0,0.0,0.0,0.0,0.0,0.0,0.0,0.0,0.0,0.0,0.0,0.0,0.0,0.0,0.0,0.0,0.0,0.0,0.0,0.0,0.0,0.0,0.0,0.0,0.0,0.0,0.0,0.0,0.0,0.0,0.0,0.0,0.0,0.0,0.0,0.0,0.0,0.0,0.0,0.0,0.0,0.0,0.0,0.0,0.0,0.0,0.0,0.0,0.0,0.0,0.0,0.0,0.0,0.0,0.0,0.0,0.0,0.0,0.0,0.0,0.0,0.0,0.0,0.0,0.0,0.0,0.0,0.0,0.0,0.0,0.0,0.0,0.0,0.0,0.0,0.0,0.0,0.0,0.0,0.0,0.0,0.0,0.0,0.0,0.0,0.0,0.0,0.0,0.0,0.0,0.0,0.0,0.0,0.0,0.0,0.0,0.0,0.0,0.0,0.0,0.0,0.0,0.0,0.0,0.0,0.0,0.0,0.0,0.0,0.0,0.0,0.0,0.0,0.0,0.0,0.0,0.0,0.0,0.0,0.0,0.0,0.0,0.0,0.0,0.0,0.0,0.0,0.0,0.0,0.0,0.0,0.0,0.0,0.0,0.0,0.0,0.0,0.0,0.0,0.0,0.0,0.0,0.0,0.0,0.0,0.0,0.0,0.0,0.0,0.0,0.0,0.0,0.0,0.0,0.0,0.0,0.0,0.0,0.0,0.0,0.0,0.0,0.0,0.0,0.0,0.0,0.0,0.0,0.0,0.0,1.8698,0.0,0.0,0.0,0.0,0.0,0.0,0.0,0.0,0.0,0.0,0.0,0.0,0.0,0.0,0.0,0.0,0.0,0.0,0.0,0.0,0.0,0.0,0.0,0.0,0.0,0.0,0.0,0.0,0.0,0.0,0.0,0.0,0.0,0.0,0.0,0.0,0.0,0.0,0.0,0.0,0.0,0.0,0.0,0.0,0.0,0.0,0.0,0.0,0.0,0.0,0.0,0.0,0.0,0.0,0.0,0.0,0.0,0.0,0.0,0.0,0.0,0.0,0.0,0.0,0.0,0.0,0.0,0.0,0.0,0.0,0.0,0.0,0.0,0.0,0.0,0.0,0.0,0.0,0.0,0.0,0.0,0.0,0.0,0.0,0.0,0.0,0.0,0.0,0.0,0.0,0.0,0.0,0.0,0.0,0.0,0.0,0.0,0.0,0.0,0.0,0.0,0.0,0.0,0.0,0.0,0.0,0.0,0.0,0.0,0.0,1.7005,1.808,1.8092,1.8446,1.9206,0.0,0.0,0.0,0.0,0.0,0.0,0.0,0.0,0.0,0.0,0.0,0.0,0.0,0.0,0.0,0.0,0.0,0.0,0.0,0.0,0.0,0.0,0.0,0.0,0.0,0.0,0.0,0.0,0.0,0.0,0.0,0.0,0.0,0.0,0.0,0.0,0.0,0.0,0.0,0.0,0.0,0.0,0.0,0.0,0.0,0.0,0.0,0.0,0.0,0.0,0.0,0.0,0.0,0.0,0.0,0.0,0.0,0.0,0.0,0.0,0.0,0.0,0.0,0.0,0.0,0.0,0.0,0.0,0.0,0.0,0.0,0.0,0.0,0.0,0.0,0.0,0.0,0.0,0.0,0.0,0.0,0.0,0.0,0.0,0.0,0.0,0.0,0.0,0.0,0.0,0.0,0.0,0.0,0.0,0.0,0.0,0.0,0.0,0.0,0.0,0.0,0.0,0.0,0.0,0.0,0.0,0.0,0.0,0.0,0.0,0.0,0.0,1.8481,1.8971,2.0047,0.0,0.0,0.0,0.0,0.0,0.0,0.0,0.0,0.0,0.0,0.0,0.0,0.0,0.0,0.0,0.0,0.0,0.0,0.0,0.0,0.0,0.0,0.0,0.0,0.0,0.0,0.0,0.0,0.0,0.0,0.0,0.0,0.0,0.0,0.0,0.0,0.0,0.0,0.0,0.0,0.0,0.0,0.0,0.0,0.0,0.0,0.0,0.0,0.0,0.0,0.0,0.0,0.0,0.0,0.0,0.0,0.0,0.0,0.0,0.0,0.0,0.0,0.0,0.0,0.0,0.0,0.0,0.0,0.0,0.0,0.0,0.0,0.0,0.0,0.0,0.0,0.0,0.0,0.0,0.0,0.0,0.0,0.0,0.0,0.0,0.0,0.0,0.0,0.0,0.0,0.0,0.0,0.0,0.0,0.0,0.0,0.0,0.0,0.0,0.0,0.0,0.0,0.0,0.0,0.0,0.0,0.0,0.0,0.0,0.0,1.7492,1.9541,1.964,0.0,2.121,0.0,0.0,0.0,0.0,0.0,0.0,0.0,0.0,0.0,0.0,0.0,0.0,0.0,0.0,0.0,0.0,0.0,0.0,0.0,0.0,0.0,0.0,0.0,0.0,0.0,0.0,0.0,0.0,0.0,0.0,0.0,0.0,0.0,0.0,0.0,0.0,0.0,0.0,0.0,0.0,0.0,0.0,0.0,0.0,0.0,0.0,0.0,0.0,0.0,0.0,0.0,0.0,0.0,0.0,0.0,0.0,0.0,0.0,0.0,0.0,0.0,0.0,0.0,0.0,0.0,0.0,0.0,0.0,0.0,0.0,0.0,0.0,0.0,0.0,0.0,0.0,0.0,0.0,0.0,0.0,0.0,0.0,0.0,0.0,0.0,0.0,0.0,0.0,0.0,0.0,0.0,0.0,0.0,0.0,0.0,0.0,0.0,0.0,0.0,0.0,0.0,0.0,0.0,0.0,0.0,0.0,0.0,0.0,0.0,0.0,0.0,1.9756,1.9794,2.0124,0.0,0.0,0.0,0.0,0.0,0.0,0.0,0.0,0.0,0.0,0.0,0.0,0.0,0.0,0.0,0.0,0.0,0.0,0.0,0.0,0.0,0.0,0.0,0.0,0.0,0.0,0.0,0.0,0.0,0.0,0.0,0.0,0.0,0.0,0.0,0.0,0.0,0.0,0.0,0.0,0.0,0.0,0.0,0.0,0.0,0.0,0.0,0.0,0.0,0.0,0.0,0.0,0.0,0.0,0.0,0.0,0.0,0.0,0.0,0.0,0.0,0.0,0.0,0.0,0.0,0.0,0.0,0.0,0.0,0.0,0.0,0.0,0.0,0.0,0.0,0.0,0.0,0.0,0.0,0.0,0.0,0.0,0.0,0.0,0.0,0.0,0.0,0.0,0.0,0.0,0.0,0.0,0.0,0.0,0.0,0.0,0.0,0.0,0.0,0.0,0.0,0.0,0.0,0.0,0.0,0.0,0.0,0.0,0.0,0.0,1.7542,0.0,2.0189,2.0689,2.0617,2.0014,0.0,0.0,0.0,0.0,0.0,0.0,0.0,0.0,0.0,0.0,0.0,0.0,0.0,0.0,0.0,0.0,0.0,0.0,0.0,0.0,0.0,0.0,0.0,0.0,0.0,0.0,0.0,0.0,0.0,0.0,0.0,0.0,0.0,0.0,0.0,0.0,0.0,0.0,0.0,0.0,0.0,0.0,0.0,0.0,0.0,0.0,0.0,0.0,0.0,0.0,0.0,0.0,0.0,0.0,0.0,0.0,0.0,0.0,0.0,0.0,0.0,0.0,0.0,0.0,0.0,0.0,0.0,0.0,0.0,0.0,0.0,0.0,0.0,0.0,0.0,0.0,0.0,0.0,0.0,0.0,0.0,0.0,0.0,0.0,0.0,0.0,0.0,0.0,0.0,0.0,0.0,0.0,0.0,0.0,0.0,0.0,0.0,0.0,0.0,0.0,0.0,0.0,0.0,0.0,0.0,0.0,0.0,0.0,0.0,1.8656,1.9233,2.1348,2.2743,2.2137,0.0,0.0,0.0,0.0,0.0,0.0,0.0,0.0,0.0,0.0,0.0,0.0,0.0,0.0,0.0,0.0,0.0,0.0,0.0,0.0,0.0,0.0,0.0,0.0,0.0,0.0,0.0,0.0,0.0,0.0,0.0,0.0,0.0,0.0,0.0,0.0,0.0,0.0,0.0,0.0,0.0,0.0,0.0,0.0,0.0,0.0,0.0,0.0,0.0,0.0,0.0,0.0,0.0,0.0,0.0,0.0,0.0,0.0,0.0,0.0,0.0,0.0,0.0,0.0,0.0,0.0,0.0,0.0,0.0,0.0,0.0,0.0,0.0,0.0,0.0,0.0,0.0,0.0,0.0,0.0,0.0,0.0,0.0,0.0,0.0,0.0,0.0,0.0,0.0,0.0,0.0,0.0,0.0,0.0,0.0,0.0,0.0,0.0,0.0,0.0,0.0,0.0,0.0,0.0,0.0,0.0,0.0,0.0,0.0,1.6069,1.779,2.0137,2.2874,2.091,1.9723,0.0,0.0,0.0,0.0,0.0,0.0,0.0,0.0,0.0,0.0,0.0,0.0,0.0,0.0,0.0,0.0,0.0,0.0,0.0,0.0,0.0,0.0,0.0,0.0,0.0,0.0,0.0,0.0,0.0,0.0,0.0,0.0,0.0,0.0,0.0,0.0,0.0,0.0,0.0,0.0,0.0,0.0,0.0,0.0,0.0,0.0,0.0,0.0,0.0,0.0,0.0,0.0,0.0,0.0,0.0,0.0,0.0,0.0,0.0,0.0,0.0,0.0,0.0,0.0,0.0,0.0,0.0,0.0,0.0,0.0,0.0,0.0,0.0,0.0,0.0,0.0,0.0,0.0,0.0,0.0,0.0,0.0,0.0,0.0,0.0,0.0,0.0,0.0,0.0,0.0,0.0,0.0,0.0,0.0,0.0,0.0,0.0,0.0,0.0,0.0,0.0,0.0,0.0,0.0,0.0,0.0,0.0,0.0,0.0,1.6191,0.0,2.1468,0.0,2.0288,1.87,0.0,0.0,0.0,0.0,0.0,0.0,0.0,0.0,0.0,0.0,0.0,0.0,0.0,0.0,0.0,0.0,0.0,0.0,0.0,0.0,0.0,0.0,0.0,0.0,0.0,0.0,0.0,0.0,0.0,0.0,0.0,0.0,0.0,0.0,0.0,0.0,0.0,0.0,0.0,0.0,0.0,0.0,0.0,0.0,0.0,0.0,0.0,0.0,0.0,0.0,0.0,0.0,0.0,0.0,0.0,0.0,0.0,0.0,0.0,0.0,0.0,0.0,0.0,0.0,0.0,0.0,0.0,0.0,0.0,0.0,0.0,0.0,0.0,0.0,0.0,0.0,0.0,0.0,0.0,0.0,0.0,0.0,0.0,0.0,0.0,0.0,0.0,0.0,0.0,0.0,0.0,0.0,0.0,0.0,0.0,0.0,0.0,0.0,0.0,0.0,0.0,0.0,0.0,0.0,0.0,0.0,0.0,0.0,1.5294,2.0413,2.2648,2.305,2.1619,2.1393,1.9359,0.0,0.0,0.0,0.0,0.0,0.0,0.0,0.0,0.0,0.0,0.0,0.0,0.0,0.0,0.0,0.0,0.0,0.0,0.0,0.0,0.0,0.0,0.0,0.0,0.0,0.0,0.0,0.0,0.0,0.0,0.0,0.0,0.0,0.0,0.0,0.0,0.0,0.0,0.0,0.0,0.0,0.0,0.0,0.0,0.0,0.0,0.0,0.0,0.0,0.0,0.0,0.0,0.0,0.0,0.0,0.0,0.0,0.0,0.0,0.0,0.0,0.0,0.0,0.0,0.0,0.0,0.0,0.0,0.0,0.0,0.0,0.0,0.0,0.0,0.0,0.0,0.0,0.0,0.0,0.0,0.0,0.0,0.0,0.0,0.0,0.0,0.0,0.0,0.0,0.0,0.0,0.0,0.0,0.0,0.0,0.0,0.0,0.0,0.0,0.0,0.0,0.0,0.0,0.0,0.0,0.0,0.0,0.0,0.0,1.8982,2.1117,2.2749,2.3627,2.0815,1.9483,0.0,0.0,0.0,0.0,0.0,0.0,0.0,0.0,0.0,0.0,0.0,0.0,0.0,0.0,0.0,0.0,0.0,0.0,0.0,0.0,0.0,0.0,0.0,0.0,0.0,0.0,0.0,0.0,0.0,0.0,0.0,0.0,0.0,0.0,0.0,0.0,0.0,0.0,0.0,0.0,0.0,0.0,0.0,0.0,0.0,0.0,0.0,0.0,0.0,0.0,0.0,0.0,0.0,0.0,0.0,0.0,0.0,0.0,0.0,0.0,0.0,0.0,0.0,0.0,0.0,0.0,0.0,0.0,0.0,0.0,0.0,0.0,0.0,0.0,0.0,0.0,0.0,0.0,0.0,0.0,0.0,0.0,0.0,0.0,0.0,0.0,0.0,0.0,0.0,0.0,0.0,0.0,0.0,0.0,0.0,0.0,0.0,0.0,0.0,0.0,0.0,0.0,0.0,0.0,0.0,0.0,0.0,0.0,0.0,2.0861,2.2673,2.4029,2.4808,2.1518,2.0118,2.0936,0.0,0.0,0.0,0.0,0.0,0.0,0.0,0.0,0.0,0.0,0.0,0.0,0.0,0.0,0.0,0.0,0.0,0.0,0.0,0.0,0.0,0.0,0.0,0.0,0.0,0.0,0.0,0.0,0.0,0.0,0.0,0.0,0.0,0.0,0.0,0.0,0.0,0.0,0.0,0.0,0.0,0.0,0.0,0.0,0.0,0.0,0.0,0.0,0.0,0.0,0.0,0.0,0.0,0.0,0.0,0.0,0.0,0.0,0.0,0.0,0.0,0.0,0.0,0.0,0.0,0.0,0.0,0.0,0.0,0.0,0.0,0.0,0.0,0.0,0.0,0.0,0.0,0.0,0.0,0.0,0.0,0.0,0.0,0.0,0.0,0.0,0.0,0.0,0.0,0.0,0.0,0.0,0.0,0.0,0.0,0.0,0.0,0.0,0.0,0.0,0.0,0.0,0.0,0.0,0.0,0.0,0.0,0.0,2.5004,2.6544,2.6634,2.5199,2.3397,2.1498,0.0,0.0,0.0,0.0,0.0,0.0,0.0,0.0,0.0,0.0,0.0,0.0,0.0,0.0,0.0,0.0,0.0,0.0,0.0,0.0,0.0,0.0,0.0,0.0,0.0,0.0,0.0,0.0,0.0,0.0,0.0,0.0,0.0,0.0,0.0,0.0,0.0,0.0,0.0,0.0,0.0,0.0,0.0,0.0,0.0,0.0,0.0,0.0,0.0,0.0,0.0,0.0,0.0,0.0,0.0,0.0,0.0,0.0,0.0,0.0,0.0,0.0,0.0,0.0,0.0,0.0,0.0,0.0,0.0,0.0,0.0,0.0,0.0,0.0,0.0,0.0,0.0,0.0,0.0,0.0,0.0,0.0,0.0,0.0,0.0,0.0,0.0,0.0,0.0,0.0,0.0,0.0,0.0,0.0,0.0,0.0,0.0,0.0,0.0,0.0,0.0,0.0,0.0,0.0,0.0,0.0,0.0,0.0,0.0,2.4788,2.6824,2.8201,2.8812,2.6142,2.4559,0.0,0.0,0.0,0.0,0.0,0.0,0.0,0.0,0.0,0.0,0.0,0.0,0.0,0.0,0.0,0.0,0.0,0.0,0.0,0.0,0.0,0.0,0.0,0.0,0.0,0.0,0.0,0.0,0.0,0.0,0.0,0.0,0.0,0.0,0.0,0.0,0.0,0.0,0.0,0.0,0.0,0.0,0.0,0.0,0.0,0.0,0.0,0.0,0.0,0.0,0.0,0.0,0.0,0.0,0.0,0.0,0.0,0.0,0.0,0.0,0.0,0.0,0.0,0.0,0.0,0.0,0.0,0.0,0.0,0.0,0.0,0.0,0.0,0.0,0.0,0.0,0.0,0.0,0.0,0.0,0.0,0.0,0.0,0.0,0.0,0.0,0.0,0.0,0.0,0.0,0.0,0.0,0.0,0.0,0.0,0.0,0.0,0.0,0.0,0.0,0.0,0.0,0.0,0.0,0.0,0.0,0.0,0.0,2.1486,2.6337,2.8723,3.053,3.1732,2.9939,2.7882,0.0,0.0,0.0,0.0,0.0,0.0,0.0,0.0,0.0,0.0,0.0,0.0,0.0,0.0,0.0,0.0,0.0,0.0,0.0,0.0,0.0,0.0,0.0,0.0,0.0,0.0,0.0,0.0,0.0,0.0,0.0,0.0,0.0,0.0,0.0,0.0,0.0,0.0,0.0,0.0,0.0,0.0,0.0,0.0,0.0,0.0,0.0,0.0,0.0,0.0,0.0,0.0,0.0,0.0,0.0,0.0,0.0,0.0,0.0,0.0,0.0,0.0,0.0,0.0,0.0,0.0,0.0,0.0,0.0,0.0,0.0,0.0,0.0,0.0,0.0,0.0,0.0,0.0,0.0,0.0,0.0,0.0,0.0,0.0,0.0,0.0,0.0,0.0,0.0,0.0,0.0,0.0,0.0,0.0,0.0,0.0,0.0,0.0,0.0,0.0,0.0,0.0,0.0,0.0,0.0,0.0,0.0,0.0,2.1989,2.8141,3.1268,3.3157,3.3579,3.3445,3.0984,0.0,0.0,0.0,0.0,0.0,0.0,0.0,0.0,0.0,0.0,0.0,0.0,0.0,0.0,0.0,0.0,0.0,0.0,0.0,0.0,0.0,0.0,0.0,0.0,0.0,0.0,0.0,0.0,0.0,0.0,0.0,0.0,0.0,0.0,0.0,0.0,0.0,0.0,0.0,0.0,0.0,0.0,0.0,0.0,0.0,0.0,0.0,0.0,0.0,0.0,0.0,0.0,0.0,0.0,0.0,0.0,0.0,0.0,0.0,0.0,0.0,0.0,0.0,0.0,0.0,0.0,0.0,0.0,0.0,0.0,0.0,0.0,0.0,0.0,0.0,0.0,0.0,0.0,0.0,0.0,0.0,0.0,0.0,0.0,0.0,0.0,0.0,0.0,0.0,0.0,0.0,0.0,0.0,0.0,0.0,0.0,0.0,0.0,0.0,0.0,0.0,0.0,0.0,0.0,0.0,0.0,0.0,0.0,2.4803,2.5651,3.165,3.4456,3.3607,3.2544,3.0708,0.0,0.0,0.0,0.0,0.0,0.0,0.0,0.0,0.0,0.0,0.0,0.0,0.0,0.0,0.0,0.0,0.0,0.0,0.0,0.0,0.0,0.0,0.0,0.0,0.0,0.0,0.0,0.0,0.0,0.0,0.0,0.0,0.0,0.0,0.0,0.0,0.0,0.0,0.0,0.0,0.0,0.0,0.0,0.0,0.0,0.0,0.0,0.0,3.7793,0.0,0.0,0.0,0.0,0.0,0.0,0.0,0.0,0.0,0.0,0.0,0.0,0.0,0.0,0.0,0.0,0.0,0.0,0.0,0.0,0.0,0.0,0.0,0.0,0.0,0.0,0.0,0.0,0.0,0.0,0.0,0.0,0.0,0.0,0.0,0.0,0.0,0.0,0.0,0.0,0.0,0.0,0.0,0.0,0.0,0.0,0.0,0.0,0.0,0.0,0.0,0.0,0.0,0.0,0.0,0.0,0.0,0.0,0.0,2.8643,2.9799,3.3512,3.5175,3.4493,3.3505,3.1569,0.0,0.0,0.0,0.0,0.0,0.0,0.0,0.0,0.0,0.0,0.0,0.0,0.0,0.0,0.0,0.0,0.0,0.0,0.0,0.0,0.0,0.0,0.0,0.0,0.0,0.0,0.0,0.0,0.0,0.0,0.0,0.0,0.0,0.0,0.0,0.0,0.0,0.0,0.0,0.0,0.0,0.0,0.0,0.0,0.0,0.0,0.0,0.0,0.0,0.0,0.0,0.0,0.0,0.0,0.0,0.0,0.0,0.0,0.0,0.0,0.0,0.0,0.0,0.0,0.0,0.0,0.0,0.0,0.0,0.0,0.0,0.0,0.0,0.0,0.0,0.0,0.0,0.0,0.0,0.0,0.0,0.0,0.0,0.0,0.0,0.0,0.0,0.0,0.0,0.0,0.0,0.0,0.0,0.0,0.0,0.0,0.0,0.0,0.0,0.0,0.0,0.0,0.0,0.0,0.0,0.0,0.0,2.7143,3.1898,3.5609,3.577,3.5681,3.5714,3.5022,3.2736,2.8757,0.0,0.0,0.0,0.0,0.0,0.0,0.0,0.0,0.0,0.0,0.0,0.0,0.0,0.0,0.0,0.0,0.0,0.0,0.0,0.0,0.0,0.0,0.0,0.0,0.0,0.0,0.0,0.0,0.0,0.0,0.0,0.0,0.0,0.0,0.0,0.0,0.0,0.0,3.4322,3.6596,0.0,0.0,0.0,0.0,0.0,0.0,0.0,0.0,4.0636,0.0,0.0,0.0,0.0,0.0,0.0,0.0,0.0,0.0,0.0,0.0,0.0,0.0,0.0,0.0,0.0,0.0,0.0,0.0,0.0,0.0,0.0,0.0,0.0,0.0,0.0,0.0,0.0,0.0,0.0,0.0,0.0,0.0,0.0,0.0,0.0,0.0,0.0,0.0,0.0,0.0,0.0,0.0,0.0,0.0,0.0,0.0,0.0,0.0,0.0,0.0,0.0,0.0,0.0,0.0,0.0,2.9088,2.8886,3.1516,3.7219,3.6754,3.6507,3.6755,3.586,3.3261,2.8869,0.0,0.0,0.0,0.0,0.0,0.0,0.0,0.0,0.0,0.0,0.0,0.0,0.0,0.0,0.0,0.0,0.0,0.0,0.0,0.0,0.0,0.0,0.0,0.0,0.0,0.0,0.0,0.0,0.0,0.0,0.0,0.0,0.0,0.0,0.0,0.0,0.0,0.0,0.0,4.0247,4.1414,0.0,0.0,0.0,0.0,0.0,0.0,0.0,0.0,4.1265,0.0,0.0,0.0,0.0,0.0,0.0,0.0,0.0,0.0,0.0,0.0,0.0,0.0,0.0,0.0,0.0,0.0,0.0,0.0,0.0,0.0,0.0,0.0,0.0,0.0,0.0,0.0,0.0,0.0,0.0,0.0,0.0,0.0,0.0,0.0,0.0,0.0,0.0,0.0,0.0,0.0,0.0,0.0,0.0,0.0,0.0,0.0,0.0,0.0,0.0,0.0,0.0,0.0,0.0,0.0,2.7167,3.0182,3.3689,3.7651,3.7427,3.7178,3.7001,3.5136,3.2204,0.0,0.0,0.0,0.0,0.0,0.0,0.0,0.0,0.0,0.0,0.0,0.0,0.0,0.0,0.0,0.0,0.0,0.0,0.0,0.0,0.0,0.0,0.0,0.0,0.0,0.0,0.0,0.0,0.0,0.0,0.0,0.0,0.0,0.0,0.0,0.0,0.0,0.0,0.0,0.0,4.1265,4.2222,4.3269,0.0,0.0,0.0,0.0,0.0,0.0,4.1773,4.1683,0.0,0.0,0.0,0.0,0.0,0.0,0.0,0.0,0.0,0.0,0.0,0.0,0.0,0.0,0.0,0.0,0.0,0.0,0.0,0.0,0.0,0.0,0.0,0.0,0.0,0.0,0.0,0.0,0.0,0.0,0.0,0.0,0.0,0.0,0.0,0.0,0.0,0.0,0.0,0.0,0.0,0.0,0.0,0.0,0.0,0.0,0.0,0.0,0.0,0.0,0.0,0.0,0.0,0.0,0.0,2.4975,3.0995,3.5399,3.7856,3.7897,3.7594,3.7121,3.4535,3.1366,0.0,0.0,0.0,0.0,0.0,0.0,0.0,0.0,0.0,0.0,0.0,0.0,0.0,0.0,0.0,0.0,0.0,0.0,0.0,0.0,0.0,0.0,0.0,0.0,0.0,0.0,0.0,0.0,0.0,0.0,0.0,0.0,0.0,0.0,0.0,0.0,0.0,0.0,0.0,0.0,0.0,4.309,4.5005,4.4377,0.0,0.0,0.0,0.0,4.3958,4.3479,0.0,0.0,0.0,0.0,0.0,0.0,0.0,0.0,0.0,0.0,0.0,0.0,0.0,0.0,0.0,0.0,0.0,0.0,0.0,0.0,0.0,0.0,0.0,0.0,0.0,0.0,0.0,0.0,0.0,0.0,0.0,0.0,0.0,0.0,0.0,0.0,0.0,0.0,0.0,0.0,0.0,0.0,0.0,0.0,0.0,0.0,0.0,0.0,0.0,0.0,0.0,0.0,0.0,0.0,0.0,0.0,2.7966,3.0701,3.426,3.8449,3.8108,3.7764,3.7706,3.5582,3.2351,0.0,0.0,0.0,0.0,0.0,0.0,0.0,0.0,0.0,0.0,0.0,0.0,0.0,0.0,0.0,0.0,0.0,0.0,0.0,0.0,0.0,0.0,0.0,0.0,0.0,0.0,0.0,0.0,0.0,0.0,0.0,0.0,0.0,0.0,0.0,0.0,0.0,0.0,0.0,0.0,0.0,4.5633,4.5334,4.5155,4.5244,0.0,0.0,4.5992,4.6741,4.7698,0.0,0.0,0.0,0.0,0.0,0.0,0.0,0.0,0.0,0.0,0.0,0.0,0.0,0.0,0.0,0.0,0.0,0.0,0.0,0.0,0.0,0.0,0.0,0.0,0.0,0.0,0.0,0.0,0.0,0.0,0.0,0.0,0.0,0.0,0.0,0.0,0.0,0.0,0.0,0.0,0.0,0.0,0.0,0.0,0.0,0.0,0.0,0.0,0.0,0.0,0.0,0.0,0.0,0.0,0.0,2.3585,2.8607,3.1799,3.4991,3.8149,3.7962,3.7557,3.7144,3.4091,3.0905,0.0,0.0,0.0,0.0,0.0,0.0,0.0,0.0,0.0,0.0,0.0,0.0,0.0,0.0,0.0,0.0,0.0,0.0,0.0,0.0,0.0,0.0,0.0,0.0,0.0,0.0,0.0,0.0,0.0,0.0,0.0,0.0,0.0,0.0,0.0,0.0,0.0,0.0,0.0,0.0,0.0,0.0,4.689,4.7608,0.0,0.0,0.0,4.8207,4.8865,0.0,0.0,0.0,0.0,0.0,0.0,0.0,0.0,0.0,0.0,0.0,0.0,0.0,0.0,0.0,0.0,0.0,0.0,0.0,0.0,0.0,0.0,0.0,0.0,0.0,0.0,0.0,0.0,0.0,0.0,0.0,0.0,0.0,0.0,0.0,0.0,0.0,0.0,0.0,0.0,0.0,0.0,0.0,0.0,0.0,0.0,0.0,0.0,0.0,0.0,0.0,0.0,0.0,0.0,0.0,0.0,0.0,2.8686,3.2648,3.5676,3.77,3.7557,3.7203,3.6538,3.3259,0.0,0.0,0.0,0.0,0.0,0.0,0.0,0.0,0.0,0.0,0.0,0.0,0.0,0.0,0.0,0.0,0.0,0.0,0.0,0.0,0.0,0.0,0.0,0.0,0.0,0.0,0.0,1.8455,0.0,0.0,0.0,0.0,0.0,0.0,0.0,0.0,0.0,0.0,0.0,0.0,0.0,0.0,4.6711,4.8536,5.0032,5.084,0.0,0.0,5.0361,5.069,4.9793,4.8476,0.0,0.0,0.0,0.0,0.0,0.0,0.0,0.0,0.0,0.0,0.0,0.0,0.0,0.0,0.0,0.0,0.0,0.0,0.0,0.0,0.0,0.0,0.0,0.0,0.0,0.0,0.0,0.0,0.0,0.0,0.0,0.0,0.0,0.0,0.0,0.0,0.0,0.0,0.0,0.0,0.0,0.0,0.0,0.0,0.0,0.0,0.0,0.0,0.0,0.0,0.0,0.0,0.0,0.0,0.0,2.867,3.2648,3.5676,3.77,3.7084,3.6661,3.6569,3.4455,3.1275,0.0,0.0,0.0,0.0,0.0,0.0,0.0,0.0,0.0,0.0,0.0,0.0,0.0,0.0,0.0,0.0,0.0,0.0,0.0,0.0,0.0,0.0,0.0,0.0,0.0,0.0,0.0,0.0,0.0,0.0,0.0,0.0,0.0,0.0,0.0,0.0,0.0,0.0,0.0,0.0,0.0,4.8596,4.9912,5.1738,5.3204,0.0,0.0,5.2725,5.2157,5.2995,5.2276,4.7938,0.0,0.0,0.0,0.0,0.0,0.0,0.0,0.0,0.0,0.0,0.0,0.0,0.0,0.0,0.0,0.0,0.0,0.0,0.0,0.0,0.0,0.0,0.0,0.0,0.0,0.0,0.0,0.0,0.0,0.0,0.0,0.0,0.0,0.0,0.0,0.0,0.0,0.0,0.0,0.0,0.0,0.0,0.0,0.0,0.0,0.0,0.0,0.0,0.0,0.0,0.0,0.0,0.0,2.4515,2.8686,3.2155,3.5,3.6901,3.629,3.5943,3.5879,3.436,3.1694,0.0,0.0,0.0,0.0,0.0,0.0,0.0,0.0,0.0,0.0,0.0,0.0,0.0,0.0,0.0,0.0,0.0,0.0,0.0,0.0,0.0,0.0,0.0,0.0,0.0,0.0,0.0,0.0,2.5383,2.6631,2.6836,0.0,0.0,0.0,0.0,0.0,0.0,0.0,0.0,0.0,0.0,5.0571,5.1887,5.3414,0.0,0.0,5.485,5.4131,5.3378,5.2368,5.0621,4.7138,4.558,0.0,0.0,0.0,0.0,0.0,0.0,0.0,0.0,0.0,0.0,0.0,0.0,0.0,0.0,0.0,0.0,0.0,0.0,0.0,0.0,0.0,0.0,0.0,0.0,0.0,0.0,0.0,0.0,0.0,0.0,0.0,0.0,0.0,0.0,0.0,0.0,0.0,0.0,0.0,0.0,0.0,0.0,0.0,0.0,0.0,0.0,0.0,0.0,0.0,0.0,0.0,0.0,2.4172,2.8082,3.1599,3.4355,3.6259,3.5782,3.5489,3.5459,3.4382,3.2106,0.0,0.0,0.0,0.0,0.0,0.0,0.0,0.0,0.0,0.0,0.0,0.0,0.0,0.0,0.0,0.0,0.0,0.0,0.0,0.0,0.0,0.0,0.0,0.0,0.0,0.0,0.0,0.0,2.6976,2.8221,2.8119,0.0,0.0,0.0,0.0,0.0,0.0,0.0,0.0,0.0,0.0,5.2815,5.3922,5.5059,5.5927,5.6376,5.5718,5.4892,5.3752,5.2272,5.0309,4.7335,0.0,0.0,0.0,0.0,0.0,0.0,0.0,0.0,0.0,0.0,0.0,0.0,0.0,0.0,0.0,0.0,0.0,0.0,0.0,0.0,0.0,0.0,0.0,0.0,0.0,0.0,0.0,0.0,0.0,0.0,0.28,0.0,0.0,0.0,0.0,0.0,0.0,0.0,0.0,0.0,0.0,0.0,0.0,0.0,0.0,0.0,0.0,0.0,0.0,0.0,0.0,0.0,0.0,2.3474,2.6811,3.0968,3.3901,3.5459,3.5489,3.5489,3.5489,3.4831,3.2632,2.8633,0.0,0.0,0.0,0.0,0.0,0.0,0.0,0.0,0.0,0.0,0.0,0.0,0.0,0.0,0.0,0.0,0.0,0.0,0.0,0.0,0.0,0.0,0.0,0.0,0.0,0.0,2.5602,2.6684,2.7591,0.0,0.0,0.0,0.0,0.0,0.0,0.0,0.0,0.0,0.0,5.2636,5.5359,5.6017,5.6645,5.7094,5.7124,5.6077,5.47,5.3348,5.3345,5.2414,0.0,0.0,0.0,0.0,0.0,0.0,0.0,0.0,0.0,0.0,0.0,0.0,0.0,0.0,0.0,0.0,0.0,0.0,0.0,0.0,0.0,0.0,0.0,0.0,0.0,0.0,0.0,0.5914,0.5575,0.0,0.0,0.0,0.0,0.0,0.0,0.0,0.0,0.0,0.0,0.0,1.1289,1.2137,0.0,0.0,0.0,0.0,0.0,0.0,0.0,0.0,0.0,0.0,0.0,0.0,2.3364,2.6606,3.0922,3.3864,3.5394,3.5489,3.5489,3.5489,3.528,3.3245,2.9128,0.0,0.0,0.0,0.0,0.0,0.0,0.0,0.0,0.0,0.0,0.0,0.0,0.0,0.0,0.0,0.0,0.0,0.0,0.0,0.0,0.0,0.0,0.0,0.0,0.0,2.717,0.0,0.0,0.0,0.0,0.0,0.0,0.0,0.0,0.0,0.0,0.0,5.0062,5.2276,5.5209,5.7214,5.7453,5.8022,5.874,0.0,0.0,0.0,0.0,0.0,0.0,0.0,0.0,0.0,0.0,0.0,0.0,0.0,0.0,5.2063,4.7434,4.5935,4.5623,4.615,0.0,0.0,0.0,0.0,0.0,0.0,0.0,0.0,0.0,0.0,0.0,0.0,0.0,0.0,0.7006,0.0,0.5054,0.0,0.0,0.0,0.0,0.0,0.0,0.0,0.0,1.1984,1.2705,1.2889,1.3974,1.398,0.0,1.3379,1.1984,0.0,0.0,0.0,0.0,0.0,0.0,0.0,0.0,2.2883,2.6202,3.0256,3.3243,3.4876,3.5359,3.5489,3.5489,3.4633,3.2832,2.9987,2.6673,2.414,0.0,0.0,0.0,0.0,0.0,0.0,0.0,0.0,0.0,0.0,0.0,0.0,0.0,0.0,0.0,0.0,0.0,0.0,0.0,0.0,0.0,0.0,0.0,2.8482,0.0,0.0,0.0,0.0,0.0,0.0,0.0,0.0,0.0,4.9222,5.1678,5.3922,5.5688,5.7782,5.9069,5.883,0.0,0.0,0.0,0.0,0.0,0.0,0.0,5.5221,5.1528,5.2439,5.3457,5.3086,5.4057,5.6493,6.1302,0.0,0.0,5.2327,5.0916,5.0519,5.1247,5.1674,5.2226,5.3356,5.416,5.5097,0.0,0.0,0.0,0.0,0.0,0.0,0.0,0.0,0.8882,0.7982,0.0,0.5645,0.0,0.0,0.0,0.0,0.0,1.0311,0.0,0.0,1.4202,1.4803,1.4563,1.5021,1.4932,1.4603,1.5291,1.4892,1.3186,1.1249,0.0,0.0,0.0,0.0,0.0,0.0,2.2116,2.5552,2.9106,3.1884,3.3808,3.4905,3.5424,3.5424,3.3197,3.1598,3.0987,2.815,2.6038,2.4958,2.3301,0.0,0.0,0.0,0.0,0.0,0.0,0.0,0.0,0.0,0.0,0.0,0.0,0.0,0.0,0.0,0.0,0.0,0.0,0.0,0.0,2.6892,0.0,0.0,0.0,0.0,0.0,0.0,0.0,0.0,0.0,0.0,4.9563,5.3929,5.7693,5.8949,0.0,0.0,0.0,0.0,6.0206,6.0326,6.0266,6.003,5.919,5.9821,5.9248,5.5564,0.0,0.0,5.9654,5.835,5.8941,6.3687,6.1656,5.949,6.1169,5.8491,5.652,5.7549,5.6972,5.6821,5.7826,5.878,5.9684,0.8812,0.0,0.0,0.0,0.0,1.154,1.1414,1.0954,1.0306,0.9202,0.7675,0.6625,0.0,0.0,0.0,0.0,0.0,0.0,1.2182,1.3414,1.4255,1.483,1.515,1.5444,1.5538,1.5458,1.5456,1.5332,1.5042,1.3843,1.3257,1.3425,0.0,0.0,0.0,0.0,2.2615,2.4728,2.8176,3.0537,3.1812,3.3545,3.4773,3.5519,3.3431,3.2262,3.2166,2.9621,2.7896,2.7168,2.5561,0.0,0.0,0.0,0.0,0.0,0.0,0.0,0.0,0.0,0.0,0.0,0.0,0.0,0.0,0.0,0.0,0.0,0.0,0.0,2.7494,2.9051,3.0758,0.0,0.0,0.0,0.0,0.0,0.0,0.0,0.0,0.0,5.6809,5.8763,6.0116,0.0,0.0,6.1762,6.1553,6.1912,6.254,6.3468,0.0,0.0,0.0,6.0883,6.0318,5.9786,6.0575,6.2221,6.5097,6.3686,6.3968,6.9349,6.7355,6.5112,6.5558,6.1999,5.9159,5.9935,6.0261,6.0713,6.1793,6.2571,6.364,1.1233,1.2158,1.3014,1.3103,1.2732,1.2363,1.198,1.1532,1.0397,0.9209,0.8074,0.7168,0.6512,0.6193,0.5962,0.0,0.0,0.0,1.3104,1.4362,1.483,1.5231,1.5565,1.5752,1.5832,1.5818,1.5605,1.5617,1.5778,1.5308,1.5442,1.6041,0.0,0.0,1.8232,2.0616,2.2604,2.4271,2.6854,2.8913,3.0413,3.275,3.4312,3.4839,3.3394,3.2593,3.2593,3.0433,2.9126,2.8775,2.7369,2.5339,0.0,0.0,0.0,0.0,0.0,0.0,0.0,0.0,0.0,0.0,0.0,1.8582,1.6956,0.0,0.0,0.0,2.5571,2.8396,3.1175,3.3079,0.0,0.0,0.0,0.0,0.0,0.0,0.0,4.781,5.3043,5.7471,6.0326,6.1902,6.266,6.266,6.3019,6.3258,6.3258,0.0,6.4126,6.4934,6.5263,6.5112,6.4435,6.3778,6.3564,6.4187,6.3116,6.3992,6.7943,6.6496,6.6657,7.1254,7.0277,6.7976,6.8556,6.5249,6.2216,6.218,6.2596,6.3274,6.4153,6.4731,6.5909,1.2803,1.4821,1.4977,1.4522,1.3547,1.2614,1.1696,1.084,0.9677,0.8668,0.7787,0.7336,0.7131,0.7245,0.8336,0.0,1.5705,1.4244,1.4214,1.5444,1.5698,1.5832,1.5832,1.5832,1.5832,1.5832,1.5832,1.5832,1.5818,1.5818,1.7037,1.9347,1.7792,1.8189,2.0547,2.1113,2.2249,2.4137,2.5513,2.7221,2.9501,3.228,3.3768,3.3876,3.2947,3.2451,3.2478,3.0771,2.9779,2.9754,2.88,2.7207,2.4953,0.0,0.0,0.0,0.0,0.0,0.0,0.0,0.0,0.0,0.0,0.0,0.0,0.0,0.0,0.0,3.0904,0.0,3.5711,3.8456,0.0,0.0,0.0,4.2811,4.3614,4.6351,4.9163,5.1642,0.0,0.0,6.1595,0.0,6.5203,6.5263,6.5114,6.5054,6.5084,6.5054,6.5114,6.5233,6.5772,6.64,6.6816,6.7473,6.7727,6.7079,6.5121,6.5209,6.8939,6.7884,6.8124,7.2926,7.1539,6.9382,6.9633,6.8023,6.6446,6.4323,6.4203,6.468,6.5308,6.581,6.7145,1.3274,1.551,1.5599,1.5318,1.4718,1.3544,1.2521,1.1517,1.0272,0.9003,0.7807,0.7644,0.753,0.7581,0.9911,1.2768,1.5749,1.5391,1.5363,1.5725,1.5792,1.5832,1.5832,1.5832,1.5832,1.5832,1.5832,1.5832,1.5832,1.5832,1.7022,1.9379,1.9322,1.9887,2.1072,2.2148,2.3036,2.3899,2.4989,2.7015,2.992,3.0778,3.1708,3.2904,3.2046,3.1536,3.1536,3.0419,2.9779,2.9779,2.9528,2.8424,2.6431,2.6346,0.0,0.0,0.0,0.0,0.0,0.0,0.0,0.0,0.0,2.5717,2.2594,0.0,3.1728,0.0,3.7138,4.0395,4.1126,4.2492,0.0,0.0,4.5347,4.6552,4.959,5.0268,5.0726,5.1342,5.6688,6.1678,6.5173,6.6209,6.67,6.7178,6.5981,6.5203,6.5682,6.5772,6.5951,6.646,6.7059,6.7567,6.7837,6.9153,6.8972,6.5072,6.6823,6.9308,7.0505,7.0621,7.1338,7.408,7.4585,7.3096,7.0227,7.0027,6.9107,6.6347,6.5308,6.5409,6.6363,6.6689,6.8304,1.3755,1.5792,1.5792,1.5025,1.3684,1.2975,1.2117,1.0974,0.9616,0.8689,0.7916,0.7916,0.7868,0.7994,1.056,1.3312,1.5747,1.5777,1.5832,1.5832,1.5832,1.5832,1.5832,1.5832,1.5832,1.5832,1.5965,1.5923,1.5813,1.6042,1.6924,1.8267,1.8987,2.0155,2.1745,2.2986,2.3828,2.4062,2.5125,2.6563,2.8356,2.9577,3.0597,3.1457,3.1347,3.1167,3.1167,3.0292,2.9679,2.9428,2.9402,2.8874,2.7802,2.8405,2.6961,0.0,0.0,0.0,0.0,0.0,0.0,0.0,0.0,0.0,0.0,0.0,3.6734,3.7799,4.2694,4.7123,5.0766,4.9555,4.8983,4.994,4.9622,5.0117,5.2251,5.2402,5.2553,5.2967,5.7046,6.1433,6.5388,6.6341,6.7048,6.825,6.7508,6.6909,6.7238,6.7358,6.7478,6.7837,6.8196,6.8675,6.9153,7.0679,7.0708,6.7741,6.8239,6.9672,6.9955,7.0294,7.1364,7.3462,7.4268,7.3734,7.1408,7.0542,6.9555,6.7742,6.6815,6.7439,6.9194,6.9721,7.1147,1.441,1.5832,1.5832,1.4315,1.1915,1.191,1.117,1.001,0.8556,0.7965,0.8045,0.8045,0.8045,0.8137,1.0369,1.2997,1.5778,1.5843,1.5832,1.5832,1.5872,1.5885,1.5885,1.5925,1.5939,1.5952,1.6206,1.6215,1.5895,1.6467,1.672,1.6867,1.8218,2.0071,2.2393,2.3879,2.4551,2.4492,2.5544,2.609,2.6208,2.8701,3.0029,3.004,3.0752,3.1123,3.097,3.0267,2.9704,2.9277,2.9327,2.9352,2.9352,2.973,2.8624,0.0,2.7653,0.0,0.0,0.0,0.0,0.0,0.0,0.0,0.0,4.036,4.2698,4.3138,4.7825,5.3646,6.0675,5.7013,5.4092,5.3942,5.3382,5.3055,5.313,5.3607,5.431,5.5171,5.7423,6.0441,6.4271,6.5602,6.6869,6.8653,6.9034,6.9004,6.9183,6.9004,6.8854,6.9004,6.887,6.905,7.0031,7.1242,7.1443,7.0107,6.8972,6.8252,6.8927,6.9121,6.9793,7.1931,7.2511,7.2396,7.2017,7.0421,6.9019,6.8245,6.8321,6.9232,7.1355,7.2062,7.3781,1.5497,1.5832,1.5832,1.4268,1.192,1.194,1.1385,1.0349,0.877,0.7972,0.7965,0.7965,0.7952,0.8031,0.8525,1.1327,1.5778,1.5843,1.5832,1.5832,1.6072,1.6192,1.6206,1.6433,1.654,1.654,1.6593,1.662,1.6507,1.6673,1.6946,1.7443,1.9641,2.1391,2.2901,0.0,0.0,0.0,2.5503,2.6054,2.6576,2.8055,2.8935,2.9056,3.0114,0.0,3.0113,3.0284,3.0608,3.0909,3.1336,0.0,0.0,0.0,0.0,0.0,0.0,0.0,0.0,0.0,0.0,0.0,3.9607,3.9675,3.9761,4.6027,4.9274,4.7114,5.3203,5.8732,6.2311,5.8888,5.5988,5.5181,5.4176,5.3733,5.421,5.4737,5.5271,5.6026,5.8053,6.0863,6.4333,6.5667,6.697,6.9278,6.9812,7.0021,7.044,6.9692,6.9064,6.8937,6.8707,6.8234,6.8481,6.8787,6.8713,6.717,6.8119,6.8599,6.8765,6.915,6.9426,7.0433,7.1005,7.1273,7.0124,6.9809,6.9723,6.9155,6.9225,6.948,6.9915,7.0475,7.1782,1.6333,0.0,1.5177,1.3872,0.0,1.1491,1.0492,0.9101,0.7,0.5331,0.4225,0.6816,0.8032,0.7952,0.8021,1.0965,1.6223,1.6166,1.6126,1.6273,1.7079,1.7162,1.6486,1.7315,1.7385,1.6714,1.686,1.6914,1.6711,1.6959,1.7319,1.7571,1.8862,2.0373,2.2391,2.4613,2.5625,2.5391,2.5625,2.5915,2.6229,2.7175,2.7988,2.8717,0.0,0.0,0.0,0.0,0.0,0.0,0.0,0.0,0.0,0.0,0.0,3.506,3.7558,3.8806,3.8522,3.7509,3.8741,4.2774,4.5833,4.7113,4.6265,5.1699,5.4621,5.353,5.7803,6.1253,6.2754,5.9765,5.7404,5.6946,5.508,5.4034,5.4838,5.5214,5.5792,5.6598,5.7938,6.0236,6.3728,6.5056,6.6543,6.8693,6.9892,7.056,7.0829,7.0649,7.0241,6.959,6.9545,6.9052,6.8197,6.8252,6.7722,6.6543,6.6623,6.7067,6.6423,6.7448,6.8395,6.8989,6.9853,7.0206,7.0153,6.9657,6.9424,6.9534,6.9903,7.0355,7.0606,7.1952,7.3794,1.7021,1.5668,1.4676,1.3287,1.1652,1.0776,0.9212,0.7129,0.0,0.0,0.0,0.464,0.7118,0.7938,0.8004,1.1213,1.66,1.6585,1.6796,1.71,1.8038,1.7953,1.7168,1.811,1.7939,1.6874,1.7114,1.7105,1.6885,1.7344,1.7582,1.7582,1.7793,1.9242,2.1742,2.4134,2.541,2.5525,2.5605,2.5723,2.5723,2.6553,2.7445,2.8363,2.9468,3.0459,3.1249,3.2206,3.2491,3.2164,3.2742,3.3495,3.4399,3.2478,3.2971,3.6378,3.8662,4.0158,4.0694,4.1317,4.2894,4.5982,5.0876,5.3722,5.3535,5.6479,5.868,5.9518,6.1104,6.2385,6.2949,6.003,5.8253,5.8705,5.5883,5.4285,5.5239,5.5591,5.6118,5.7072,5.77,5.9408,6.2818,6.4471,6.5921,6.781,6.9869,7.1218,7.1398,7.1242,7.0842,7.0257,6.9622,6.895,6.802,6.7322,6.7215,6.5398,6.524,6.4864,6.4271,6.5128,6.6678,6.773,6.835,6.9187,7.001,6.9578,6.8974,6.9627,7.0531,7.1435,7.225,7.4037,7.5772,1.7414,1.572,1.4838,1.2547,0.9473,1.0119,0.8131,0.4348,0.1799,0.0317,0.0105,0.0738,0.3686,0.8014,0.7981,1.1216,1.6573,1.7223,1.7811,0.0,1.7764,1.7876,1.8787,1.8156,1.7657,1.7462,1.7502,1.7515,1.7515,1.7555,1.7582,1.7793,1.8708,2.0178,2.1985,2.3362,2.4327,2.4881,2.5381,2.5723,2.5742,2.7145,2.7872,2.7704,3.0194,3.1371,3.1097,3.3153,3.455,3.4977,3.5931,3.6558,3.6709,3.6989,3.744,3.7889,3.9576,4.0618,4.0581,4.1882,4.4908,4.9721,5.4091,5.7034,5.8077,5.8632,5.9668,6.1141,6.1852,6.2361,6.2784,6.0022,5.8281,5.8604,5.6275,5.4712,5.5365,5.6219,5.6799,5.735,5.8026,5.9743,6.2492,6.4229,6.5808,6.7896,7.0149,7.2116,7.2432,7.1102,6.9887,7.002,6.7893,6.6083,6.5865,6.4554,6.3882,6.3286,6.3448,6.3488,6.3816,6.436,6.5339,6.569,6.6822,6.771,6.8446,6.8979,6.9602,7.0506,7.1284,7.2037,7.2991,7.4268,7.4915,1.6935,1.5994,1.357,1.1063,0.8911,0.9384,0.7533,0.4477,0.4713,0.4777,0.4801,0.4832,0.6216,0.8394,0.8467,1.1672,1.7211,1.7422,1.7789,1.8091,1.8334,1.8391,1.8302,1.8547,1.8304,1.7687,1.7582,1.7582,1.7582,1.7582,1.7582,1.7701,1.9089,2.0377,2.1199,2.244,2.3254,2.358,2.4003,2.4946,2.6326,2.6963,2.7618,2.8119,3.0236,3.1716,3.2298,3.4484,3.5855,3.6408,3.7186,3.7764,3.809,3.8466,3.8768,3.9346,4.0231,4.117,4.1806,4.5265,4.8646,5.1709,5.5838,5.874,6.0086,6.0206,6.0715,6.1739,6.2361,6.275,6.2933,6.0337,5.8595,5.9201,5.6798,5.5358,5.5792,5.652,5.7223,5.7575,5.8176,5.9414,6.1067,6.2588,6.4545,6.6848,7.0001,7.2403,7.2247,7.002,6.8763,6.9315,6.7268,6.5267,6.4286,6.3423,6.2822,6.2822,6.2822,6.3199,6.3902,6.4354,6.4931,6.5986,6.689,6.7693,6.8472,6.9325,7.0154,7.0857,7.1535,7.2313,7.3343,7.4448,7.5251,1.6059,1.56,1.2228,1.0016,0.8947,0.8883,0.7527,0.5824,0.7874,0.8899,0.8939,0.89,0.8858,0.8941,0.8891,1.2059,1.7108,1.7603,1.7798,1.808,1.8812,1.8708,1.8213,1.8883,1.8716,1.7795,1.7756,1.7782,1.7782,1.7782,1.7782,1.7916,1.9377,2.019,2.0172,2.1403,2.2172,2.2301,2.212,2.3393,2.6077,2.6557,2.7334,2.851,3.0098,3.1765,3.3426,3.5332,3.6796,3.7538,3.809,3.8592,3.9019,3.9018,3.9443,4.027,4.0902,4.2233,4.4352,4.8373,5.1683,5.3359,5.691,5.9668,6.0924,6.1253,6.1357,6.1753,6.2519,6.2817,6.1761,6.007,5.8879,5.8958,5.7042,5.5937,5.6344,5.6997,5.7575,5.8052,5.8554,5.9106,5.9817,6.1422,6.3781,6.6629,6.9617,7.1173,7.0393,6.8734,6.7791,6.7664,6.6468,6.4631,6.3123,6.2822,6.2898,6.2973,6.3048,6.355,6.4329,6.4731,6.5333,6.6639,6.7643,6.8396,6.93,7.0129,7.0732,7.1309,7.1912,7.2715,7.3845,7.5025,7.5954,1.4781,1.3474,1.1764,1.0241,0.8856,0.8897,0.868,0.845,0.8798,0.8897,0.8954,0.896,0.8947,0.8913,0.8865,1.2051,1.7447,1.7556,1.8171,1.9109,1.8304,1.8304,1.9168,1.8596,1.8104,1.8036,1.825,1.8233,1.811,1.837,1.8397,1.8617,1.9808,1.9981,1.9374,2.0135,2.1008,2.1579,2.0072,2.0677,2.3861,2.6138,2.7372,2.7559,2.9743,3.1672,3.3266,3.5418,3.7351,3.8642,3.9195,3.9546,3.9647,4.0074,4.0195,3.9904,4.1697,4.4342,4.781,4.9851,5.2322,5.5386,5.7782,5.9727,6.0984,6.1672,6.1638,6.1173,6.2145,6.1673,5.8912,5.8557,5.8413,5.7568,5.6727,5.6369,5.6922,5.7926,5.8604,5.8629,5.9081,5.9633,6.0216,6.1864,6.4204,6.686,6.8197,6.8944,6.8855,6.7485,6.6126,6.5817,6.4338,6.3286,6.2822,6.2847,6.3073,6.3475,6.3601,6.4053,6.4831,6.5559,6.6212,6.694,6.8246,6.9175,6.9777,7.0606,7.1661,7.2012,7.274,7.377,7.4799,7.5578,7.6004,1.406,1.5361,1.1423,0.838,0.6715,0.8103,0.8917,0.8917,0.8917,0.891,0.889,0.887,0.8967,0.894,0.8907,1.2107,1.7391,1.7596,1.7884,1.8422,1.7968,1.817,1.8517,1.8483,1.8194,1.818,1.8424,1.8504,1.8504,1.849,1.8571,1.8731,1.9277,1.9443,1.9273,1.9621,2.0004,2.0242,1.959,1.9779,2.1279,2.4419,2.6952,2.8435,3.0105,3.1934,3.3899,3.5725,3.7484,3.9218,3.9572,3.9848,4.0149,4.04,4.0646,4.1089,4.3037,4.5616,4.8541,5.0726,5.3079,5.5728,5.863,6.0565,6.1074,6.2061,6.2027,6.0488,6.0952,6.0508,5.8313,5.7825,5.7598,5.7209,5.675,5.6796,5.7022,5.8052,5.873,5.878,5.9458,6.0035,6.065,6.269,6.4572,6.6298,6.7326,6.801,6.7188,6.6312,6.5398,6.4177,6.3286,6.2822,6.2873,6.3149,6.3425,6.3676,6.3952,6.4479,6.5157,6.576,6.6388,6.7292,6.8622,6.9727,7.038,7.1108,7.2037,7.2665,7.372,7.4749,7.5176,7.5678,7.5979,1.3217,1.413,0.885,0.6154,0.5712,0.6177,0.6425,0.6449,0.6449,0.737,0.8897,0.895,0.893,0.8917,0.8948,1.2098,1.7085,1.7583,1.7833,1.8337,1.8573,1.8912,1.9334,1.9647,1.9541,1.9306,1.932,1.9179,1.8969,1.8857,1.8838,1.9025,1.9052,1.9158,1.9345,1.9372,1.9412,1.9479,1.9479,1.9519,1.9911,2.2694,2.6028,2.8971,2.9798,3.1345,3.3856,3.5543,3.7178,3.9,3.9615,4.0099,4.0501,4.0777,4.1505,4.2624,4.4673,4.6836,4.907,5.1516,5.3949,5.6304,5.9369,6.1194,6.141,6.2017,6.1433,5.9486,5.9233,5.8355,5.6834,5.6904,5.6888,5.6496,5.6844,5.7248,5.7349,5.8252,5.9031,5.9207,5.9834,6.0462,6.0972,6.2787,6.4325,6.4534,6.5891,6.6778,6.5398,6.4949,6.4338,6.2985,6.2948,6.3073,6.3099,6.3375,6.3726,6.4228,6.4605,6.5157,6.5685,6.6312,6.6865,6.807,6.9125,6.9978,7.0732,7.151,7.2514,7.3569,7.4548,7.5276,7.5502,7.5829,7.6004,1.2512,0.8739,0.2901,0.3583,0.8115,0.2919,0.0,0.0,0.0,0.3582,0.8096,0.8909,0.8902,0.898,0.8947,1.2079,1.7103,1.7675,1.8485,1.9985,2.0151,2.1046,2.2626,2.2987,2.2525,2.1588,2.1272,2.0601,1.9408,1.9305,1.9332,1.9332,1.9345,1.9359,1.9399,1.9412,1.9519,1.9509,1.9654,1.9655,1.9719,2.1561,2.4877,2.8744,2.857,2.947,3.2427,3.434,3.614,3.7583,3.9389,4.0475,4.0626,4.153,4.2785,4.4367,4.6544,4.8412,5.0036,5.2217,5.459,5.7369,5.9812,6.1403,6.1798,6.1468,6.0237,5.8285,5.6984,5.5446,5.4099,5.5631,5.6306,5.533,5.6692,5.7675,5.7876,5.8805,5.9633,6.006,6.0337,6.0864,6.1768,6.2421,6.2972,6.3022,6.326,6.3286,6.3448,6.3123,6.2985,6.3086,6.3224,6.3626,6.3651,6.3902,6.4304,6.4856,6.5509,6.6162,6.6965,6.7668,6.817,6.8848,6.9928,7.0706,7.1158,7.1987,7.3092,7.4071,7.4824,7.5402,7.5753,7.5954,7.6055,1.02,0.8332,0.2491,0.1366,0.2851,0.0806,0.0,0.0,0.0,0.1169,0.3638,0.7142,0.9013,0.9218,0.9178,1.245,1.7857,1.8076,1.8884,2.0435,2.0753,2.1666,2.3112,2.3568,2.3894,2.3817,2.2445,2.0816,1.9591,1.9372,1.9372,1.9412,1.9559,1.9639,1.9679,1.9826,1.9228,1.8034,1.9184,2.0146,2.0478,2.1053,2.2959,2.6061,2.727,2.945,3.2692,3.4427,3.5945,3.7477,3.9414,4.0676,4.1103,4.2063,4.3412,4.507,4.6925,4.8541,5.0247,5.2652,5.5211,5.7484,6.0255,6.1792,6.2007,6.2023,6.0754,5.7744,5.6902,5.5789,5.4312,5.481,5.5522,5.5811,5.6947,5.8052,5.8504,5.9357,6.0111,6.0387,6.0914,6.1718,6.227,6.2697,6.2822,6.2822,6.2822,6.2822,6.2822,6.2822,6.2822,6.2923,6.3299,6.3802,6.4178,6.453,6.5007,6.5634,6.6262,6.6815,6.7518,6.8095,6.8597,6.92,7.0355,7.1234,7.1636,7.2791,7.3845,7.4573,7.5301,7.5653,7.6004,7.6055,7.6055,0.5985,0.5447,0.1725,0.0,0.0,0.0,0.0,0.0,0.0,0.0,0.0,0.4278,0.7241,0.9131,0.9381,1.1512,1.5758,1.7401,1.9505,2.1511,2.2291,2.3452,2.4802,2.5156,2.5221,2.4812,2.222,2.0287,1.9488,1.9466,1.9506,1.9519,1.98,1.9933,1.9854,1.9516,1.8496,1.7549,1.8717,1.9957,2.0863,2.0909,2.1922,2.4209,2.6285,2.8572,3.1552,3.4086,3.5976,3.7247,3.9619,4.1379,4.2158,4.315,4.4352,4.5673,4.7237,4.8564,4.9863,5.2447,5.4911,5.7071,5.9655,6.149,6.2246,6.1821,5.9887,5.7646,5.6233,5.5434,5.4657,5.4678,5.5214,5.6168,5.7223,5.8102,5.8679,5.9659,6.0412,6.0939,6.1692,6.237,6.2722,6.2797,6.2822,6.2822,6.2822,6.2822,6.2822,6.2822,6.2948,6.3124,6.3626,6.4178,6.4731,6.5308,6.5735,6.6363,6.6865,6.7417,6.797,6.8522,6.91,6.9702,7.048,7.1384,7.2414,7.3594,7.4423,7.5126,7.5578,7.5929,7.6055,7.6055,7.6055,0.0115,-0.0115,0.0,0.0,0.0,0.0,0.0,0.0,0.0,0.0,0.0,0.0,0.3756,0.795,0.9065,0.9745,1.1051,1.5523,1.9747,2.2824,2.4395,2.6133,2.7795,2.7599,2.6463,2.4844,2.1332,1.9617,1.9529,1.9639,1.9773,1.9853,2.0094,2.0241,2.0227,1.8803,1.7901,1.7816,1.8125,1.9083,2.0732,2.0882,2.2104,2.4161,2.5546,2.697,2.8683,3.3434,3.6095,3.6701,4.0013,4.2635,4.3564,4.4508,4.5506,4.6276,4.7702,4.8535,4.9191,5.1476,5.4073,5.6126,5.8349,6.038,6.1586,6.0173,5.8285,5.7369,5.5707,5.4214,5.4744,5.5039,5.5666,5.6244,5.7323,5.8102,5.8805,5.9709,6.0763,6.1743,6.2446,6.2772,6.2822,6.2822,6.2822,6.2822,6.2822,6.2822,6.2822,6.2822,6.3073,6.355,6.4002,6.4454,6.5308,6.6137,6.6564,6.7041,6.7493,6.7995,6.8547,6.9074,6.9627,7.0255,7.1209,7.2138,7.3318,7.4372,7.4724,7.5327,7.5728,7.6055,7.6055,7.6055,7.6055,-0.2795,-0.5985,-0.178,0.0,0.0,0.0,0.0,0.0,0.0,0.0,0.0,0.0,0.1104,0.0,0.7195,0.8757,0.8119,1.257,1.7313,2.1592,2.3591,2.5811,2.7707,2.7295,2.5371,2.2991,2.1609,2.0399,1.9744,1.9773,1.9893,2.012,2.0401,2.0521,2.0425,1.9062,1.7805,1.6829,1.7746,1.8198,1.7916,1.9954,2.1992,2.3743,2.5509,2.7224,2.8944,3.3508,3.6072,3.6521,4.012,4.2836,4.4116,4.4678,4.5385,4.6803,4.8379,4.9241,4.962,5.1793,5.3933,5.523,5.7217,5.8631,5.9532,5.9373,5.8109,5.6785,5.61,5.5925,5.5087,5.5415,5.6294,5.7273,5.77,5.8278,5.9232,6.0236,6.1341,6.232,6.2722,6.2822,6.2822,6.2822,6.2822,6.2822,6.2822,6.2822,6.2822,6.2873,6.3048,6.3601,6.4128,6.4731,6.5484,6.6237,6.684,6.7292,6.7769,6.8321,6.8924,6.9526,7.0104,7.0907,7.1887,7.2916,7.4121,7.4824,7.5126,7.5502,7.5929,7.6055,7.6055,7.6055,7.6055,-0.403,-0.9097,-0.5316,-0.2184,0.0,0.0,0.0,0.0,0.0,0.0,0.0,0.0,0.0,0.0,0.4198,0.6154,0.6831,1.0263,1.4611,1.9562,2.3422,2.5717,2.7225,2.639,2.439,2.2139,2.1191,2.0676,1.996,2.0067,2.0214,2.0414,2.0695,2.0453,1.9814,1.8291,1.6947,1.6172,1.6947,1.7345,1.7602,1.9674,2.202,2.3753,2.5686,2.7531,2.9646,3.4337,3.7084,3.7929,4.0991,4.3651,4.5095,4.5042,4.5739,4.7531,4.8888,4.9647,5.0021,5.1921,5.3687,5.4731,5.6117,5.7341,5.7806,5.8364,5.7077,5.6213,5.6008,5.5905,5.5249,5.5867,5.6897,5.7775,5.7876,5.8579,5.9809,6.0738,6.1617,6.2446,6.2822,6.2822,6.2822,6.2822,6.2822,6.2822,6.2822,6.2822,6.2873,6.3023,6.3425,6.3877,6.4479,6.5057,6.5584,6.6287,6.7015,6.7493,6.7945,6.8547,6.915,6.9752,7.0355,7.1384,7.2389,7.3242,7.4372,7.49,7.5276,7.5703,7.6055,7.6055,7.6055,7.6055,7.6055,-0.3856,-0.9499,-0.9754,-0.6166,0.0,0.0,0.0,0.0,0.0,0.0,0.0,0.0,0.0,0.0,0.0,0.2712,0.5916,0.8314,1.1877,1.6809,2.182,2.5331,2.586,2.5258,2.3793,2.1803,2.0612,2.0187,2.0267,2.0481,2.0681,2.0722,2.0684,2.0182,1.8605,1.6818,1.5784,1.5913,1.6043,1.6818,1.8384,2.0488,2.237,2.4386,2.6254,2.8213,3.1071,3.5655,3.8648,3.9236,4.2671,4.4995,4.5855,4.5689,4.6487,4.851,4.9264,4.9996,5.0544,5.1531,5.2833,5.4236,5.4892,5.5945,5.6882,5.6263,5.5735,5.57,5.538,5.5173,5.5491,5.6344,5.7248,5.7876,5.8252,5.9156,6.0788,6.119,6.1793,6.2546,6.2822,6.2822,6.2822,6.2822,6.2822,6.2822,6.2822,6.2822,6.2923,6.3224,6.3852,6.4329,6.4781,6.5459,6.6011,6.6463,6.7216,6.7919,6.8371,6.8949,6.9551,7.0179,7.1158,7.2163,7.2841,7.3694,7.4498,7.5151,7.5552,7.5879,7.6055,7.6055,7.6055,7.6055,7.6055,-0.3788,-0.9612,-0.9774,-0.8793,-0.6553,-0.2222,0.0,0.0,0.0,0.0,0.0,0.0,0.0,0.0,0.0,0.074,0.246,0.5133,0.8985,1.4055,1.8933,2.2658,2.4187,2.3853,2.2631,2.0842,2.047,2.0469,2.0548,2.0655,2.0788,2.0989,1.989,1.9024,1.8116,1.5654,1.4884,1.5784,1.5913,1.6829,1.8932,2.1778,2.42,2.5939,2.8174,3.0356,3.2758,3.7356,4.1005,4.2915,4.4351,4.5547,4.6326,4.6778,4.7581,4.8711,5.0052,5.0916,5.1154,5.1724,5.2497,5.3148,5.3572,5.381,5.4216,5.4381,5.4363,5.4581,5.5112,5.5829,5.6018,5.6671,5.7625,5.8855,5.9382,6.0035,6.0964,6.1567,6.2069,6.2672,6.2822,6.2822,6.2822,6.2822,6.2822,6.2822,6.2822,6.2873,6.3023,6.34,6.4002,6.4454,6.4957,6.576,6.6413,6.684,6.7442,6.8296,6.8899,6.9476,7.0154,7.0882,7.2163,7.3468,7.3569,7.4197,7.5075,7.5829,7.6004,7.603,7.6055,7.6055,7.6055,7.6055,7.6055,-0.6412,-0.9542,-0.6785,-0.7291,-0.8811,-0.2839,0.0,0.0,0.0,0.0,0.0,0.0,0.0,0.0,0.0,0.0,0.0,0.4954,0.8922,1.1939,1.6884,2.0571,2.2879,2.3169,2.2132,2.0563,2.0671,2.0832,2.0828,2.0855,2.0962,2.0929,2.0068,1.8896,1.7334,1.6431,1.5255,1.5505,1.6494,1.8406,2.1283,2.3191,2.5707,2.7798,3.0013,3.1907,3.5167,3.7997,4.0763,4.3433,4.5221,4.6426,4.6954,4.773,4.8536,4.9389,5.071,5.1575,5.1708,5.2126,5.2578,5.2854,5.2929,5.3055,5.3394,5.3607,5.3808,5.4653,5.5534,5.6188,5.6646,5.7449,5.8554,5.9659,6.0537,6.114,6.1517,6.1793,6.2245,6.2647,6.2822,6.2822,6.2822,6.2822,6.2822,6.2822,6.2822,6.2998,6.3224,6.3676,6.4128,6.4605,6.5208,6.6011,6.6689,6.7141,6.7844,6.8648,6.9551,7.0129,7.0807,7.156,7.2489,7.3569,7.4071,7.4649,7.5402,7.5954,7.6055,7.6055,7.6055,7.6055,7.6055,7.6055,7.6055,-0.9186,-0.9309,-0.2708,-0.3328,-0.7178,0.0,0.0,0.0,0.0,0.0,0.0,0.0,0.0,0.0,0.0,0.0,0.0,0.5942,0.9046,1.1886,1.5648,1.9568,2.1576,2.2564,2.2082,2.0873,2.0989,2.1042,2.1056,2.1069,2.1082,2.0969,2.0716,1.9152,1.7334,1.7345,1.6797,1.6063,1.7922,2.0825,2.3804,2.5324,2.7239,2.9563,3.1231,3.3398,3.6192,3.814,3.9624,4.235,4.5306,4.6885,4.7608,4.8309,4.906,5.0218,5.1311,5.1993,5.2076,5.2528,5.2879,5.2929,5.298,5.3181,5.3582,5.3884,5.4386,5.5114,5.5917,5.6595,5.7374,5.8629,5.9633,6.0412,6.1341,6.1918,6.2094,6.2094,6.2295,6.2722,6.2822,6.2822,6.2822,6.2822,6.2822,6.2822,6.2847,6.2948,6.3324,6.3827,6.4304,6.4806,6.5509,6.6287,6.6915,6.7467,6.8246,6.91,7.0129,7.0882,7.1535,7.2188,7.269,7.3368,7.4096,7.4749,7.5427,7.5778,7.6004,7.6055,7.6055,7.6055,7.6055,7.6055,7.6055,-0.506,-0.9309,-0.2708,-0.0739,-0.1729,0.0,0.0,0.0,0.0,0.0,0.0,0.0,0.0,0.0,0.0,0.0,0.0,0.4603,0.773,1.102,1.5645,1.8218,1.9676,2.0823,2.1379,2.1015,2.1069,2.1109,2.1109,2.1109,2.1109,2.0969,2.0068,1.8768,1.8116,1.7238,1.7185,1.8086,1.9998,2.2378,2.5257,2.7721,2.9362,3.0774,3.2671,3.4406,3.5997,3.7842,3.9221,4.0585,4.3298,4.628,4.7905,4.8277,4.8923,5.0337,5.1841,5.2447,5.2226,5.2603,5.2929,5.3005,5.3281,5.3582,5.3733,5.4536,5.5039,5.5566,5.6269,5.7248,5.8303,5.9408,6.0311,6.0989,6.1617,6.222,6.2521,6.2647,6.2697,6.2772,6.2822,6.2822,6.2822,6.2822,6.2822,6.2822,6.2847,6.2898,6.3375,6.3977,6.4454,6.4931,6.5609,6.6388,6.7267,6.7945,6.8823,6.9551,7.0506,7.1435,7.2087,7.2565,7.2966,7.3544,7.4247,7.49,7.5527,7.5829,7.6055,7.6055,7.6055,7.6055,7.6055,7.6055,7.608,-0.2096,-0.4697,-0.1356,0.0,0.0,0.0,0.0,0.0,0.0,0.0,0.0,0.0,0.0,0.0,0.0,0.0,0.0,0.1957,0.5777,1.0,1.3646,1.5515,1.7558,1.9024,2.0195,2.0843,2.1109,2.1109,2.1109,2.1109,2.1109,2.1109,2.0068,1.9419,1.8932,1.8489,1.9253,2.045,2.2257,2.4864,2.858,2.9683,3.1505,3.2373,3.4139,3.5293,3.6132,3.7169,3.8569,4.0244,4.2794,4.5408,4.7548,4.8435,4.9495,5.0989,5.1724,5.2488,5.2503,5.2754,5.303,5.3256,5.3557,5.4009,5.4386,5.5114,5.5641,5.6168,5.6997,5.7976,5.9307,6.0161,6.0939,6.1517,6.2069,6.2496,6.2747,6.2822,6.2822,6.2822,6.2822,6.2822,6.2822,6.2822,6.2822,6.2822,6.2847,6.2923,6.3475,6.4053,6.453,6.5057,6.5685,6.6488,6.7518,6.8447,6.9401,7.0104,7.0807,7.1661,7.2364,7.274,7.3092,7.3745,7.4423,7.5025,7.5578,7.5854,7.6055,7.6055,7.6055,7.6055,7.6055,7.6055,7.6055,0.0,0.0,0.0,0.0,0.0,0.0,0.0,0.0,0.0,0.0,0.0,0.0,0.0,0.0,0.0,0.0,0.0,0.0,0.3599,0.7578,1.0478,1.2588,1.4976,1.7323,1.9291,2.0589,2.0982,2.1109,2.1109,2.1109,2.1109,2.1109,2.1109,2.0374,1.967,2.085,2.1951,2.2605,2.4925,2.7506,3.1285,3.1579,3.2709,3.4236,3.5043,3.5801,3.6426,3.7114,3.8027,4.0215,4.293,4.5005,4.6705,4.8827,5.0398,5.2026,5.2151,5.2427,5.2754,5.2929,5.313,5.3658,5.3833,5.431,5.5064,5.5491,5.6018,5.6872,5.7725,5.873,6.0136,6.0914,6.1441,6.1943,6.2471,6.2772,6.2822,6.2822,6.2822,6.2822,6.2822,6.2822,6.2822,6.2822,6.2822,6.2847,6.2847,6.3023,6.3601,6.4128,6.463,6.5132,6.5735,6.6538,6.7568,6.8648,6.9652,7.043,7.1083,7.1736,7.2464,7.274,7.3117,7.392,7.4598,7.5126,7.5578,7.5929,7.6055,7.6055,7.6055,7.6055,7.6055,7.6055,7.6105,0.0,0.0,0.0,0.0,0.0,0.0,0.0,0.0,0.0,0.0,0.0,0.0,0.0,0.0,0.0,0.0,0.0,0.0,0.1072,0.4008,0.7455,1.1162,1.2612,1.6281,1.8372,1.9291,2.0322,2.1109,2.1109,2.1109,2.1109,2.1109,2.1136,2.0834,2.1376,2.2808,2.3866,2.478,2.7295,2.9882,3.0864,3.2227,3.3274,3.4623,3.495,3.5742,3.658,3.7183,3.7936,3.8664,4.2581,4.4833,4.6496,4.9125,5.127,5.1965,5.2503,5.2754,5.2904,5.298,5.3206,5.3658,5.416,5.4687,5.534,5.5842,5.6445,5.7248,5.8403,5.9533,6.0236,6.1215,6.1793,6.2144,6.2471,6.2822,6.2822,6.2822,6.2822,6.2822,6.2822,6.2822,6.2822,6.2822,6.2822,6.2898,6.2998,6.3174,6.3601,6.4178,6.4705,6.5233,6.5735,6.6639,6.7618,6.8698,6.9727,7.0556,7.1209,7.1661,7.2263,7.259,7.3142,7.3996,7.4548,7.4975,7.5427,7.5929,7.6055,7.6055,7.6055,7.6055,7.6055,7.608,7.6256,0.0,0.0,0.0,0.0,0.0,0.0,0.0,0.0,0.0,0.0,0.0,0.0,0.0,0.0,0.0,0.0,0.0,0.0,0.0,0.3348,0.6277,0.9209,1.0934,1.5255,1.6689,1.7859,1.9674,2.1109,2.1109,2.1109,2.1109,2.1149,2.1243,2.1416,2.1991,2.3537,2.5199,2.6711,2.9094,3.0681,3.0502,3.1751,3.2079,3.2438,3.3309,3.408,3.5407,3.6055,3.7093,3.9136,4.2857,4.511,4.7023,4.9456,5.2266,5.2553,5.2779,5.2929,5.3005,5.3155,5.3607,5.4135,5.4662,5.539,5.6018,5.657,5.6997,5.775,5.8981,6.0186,6.0997,6.1567,6.2044,6.2395,6.2672,6.2797,6.2822,6.2822,6.2822,6.2822,6.2822,6.2822,6.2822,6.2822,6.2822,6.2948,6.3124,6.326,6.3585,6.3944,6.4399,6.4825,6.5223,6.6441,6.7491,6.8569,6.9828,7.0656,7.1209,7.1686,7.2213,7.2615,7.3318,7.4171,7.4598,7.4824,7.5502,7.6055,7.6055,7.6055,7.6055,7.6055,7.6055,7.613,7.6306,0.123,0.0,0.0,0.0,0.0,0.0,0.0,0.0,0.0,0.0,0.0,0.0,0.0,0.0,0.0,0.0,0.0,0.0,0.0,0.6046,0.6982,0.8451,1.0969,1.3849,1.5913,1.5913,1.9419,2.1096,2.1109,2.1109,2.1149,2.1397,2.1598,2.1657,2.2209,2.4479,2.6289,2.7963,2.9777,3.1001,3.0909,3.0138,2.9551,2.9839,3.075,3.2746,3.4595,3.6444,3.7486,3.9971,4.3242,4.632,4.7151,5.0567,5.2767,5.2929,5.2929,5.2955,5.3181,5.3406,5.3934,5.4662,5.5114,5.5917,5.6771,5.7223,5.775,5.8452,5.9629,6.0663,6.14,6.2029,6.232,6.2647,6.2797,6.2822,6.2822,6.2822,6.2822,6.2822,6.2822,6.2847,6.2873,6.3149,6.3199,6.3375,6.355,6.2949,6.3101,6.3301,6.3694,6.3958,6.4817,6.6133,6.7255,6.844,6.9671,7.0832,7.1209,7.1535,7.2138,7.2715,7.3468,7.4146,7.4397,7.4699,7.5452,7.6055,7.6055,7.6055,7.6055,7.6055,7.6055,7.6155,7.6331,0.5295,0.0,0.0,0.0,0.0,0.0,0.0,0.0,0.0,0.0,0.0,0.0,0.0,0.0,0.0,0.0,0.0,0.0,0.0,0.7952,0.9303,0.9825,1.1136,1.4241,1.4754,1.4874,1.864,2.0716,2.1162,2.1162,2.1397,2.1727,2.1733,2.1777,2.2443,2.5504,2.7524,2.8377,3.0066,3.1078,3.0789,2.9298,2.8711,2.9887,3.1743,3.3981,3.5357,3.7778,3.967,3.9878,4.5043,4.7235,4.7436,5.0567,5.2441,5.2929,5.298,5.3105,5.3482,5.3808,5.4235,5.5013,5.544,5.5993,5.7022,5.8001,5.8351,5.8426,6.006,6.1248,6.1886,6.2381,6.2647,6.2772,6.2822,6.2822,6.2822,6.2822,6.2822,6.2822,6.2822,6.2898,6.2948,6.3299,6.3626,6.3802,6.3694,6.3055,6.2614,6.2606,6.2241,6.2303,6.396,6.5475,6.6939,6.8123,6.9721,7.0958,7.1284,7.1535,7.2188,7.2841,7.3368,7.3946,7.4197,7.4774,7.5653,7.6055,7.6055,7.6055,7.6055,7.6055,7.6055,7.6205,7.6331,0.8088,0.5258,0.1525,0.0,0.0,0.0,0.2408,0.552,0.6065,0.3765,0.0,0.0,0.0,0.0,0.0,0.0,0.0,0.0,0.0,0.7541,0.957,1.0645,1.1262,1.307,1.3709,1.4371,1.6462,1.9322,2.0297,2.1133,2.1598,2.2019,2.2015,2.2138,2.2875,2.6145,2.7867,2.8793,2.9682,2.9931,2.8946,2.7803,2.7479,2.9127,3.0827,3.3336,3.6538,3.8398,4.0553,4.1355,4.5422,4.7082,4.7303,4.9322,5.1132,5.2955,5.3281,5.3507,5.3733,5.4285,5.4863,5.5415,5.5993,5.6872,5.7851,5.8654,5.9103,5.9098,6.0305,6.1475,6.2164,6.2633,6.2697,6.2822,6.2822,6.2822,6.2822,6.2822,6.2822,6.2822,6.2873,6.3048,6.3224,6.3244,6.3544,6.3861,6.332,6.222,6.1451,6.1009,6.0636,6.0089,6.2294,6.4745,6.6324,6.7799,6.9689,7.0958,7.1485,7.1811,7.2364,7.2966,7.3393,7.387,7.4272,7.4975,7.5829,7.6055,7.6055,7.6055,7.6055,7.6055,7.608,7.6155,7.6431,0.9797,0.9191,0.2698,0.0911,0.2638,0.2675,0.5114,0.8912,1.0009,0.7545,0.3356,0.0,0.0,0.0,0.0,0.0,0.0,-0.0942,0.1476,0.4696,0.8205,1.0498,1.1269,1.2421,1.3087,1.2732,1.525,1.664,1.7982,1.9998,2.128,2.2223,2.2297,2.2498,2.3607,2.6203,2.8643,2.9022,2.9468,2.8882,2.7256,2.5876,2.7078,2.8866,3.0639,3.2952,3.7451,4.08,4.2635,4.2816,4.5733,4.719,4.6579,4.9031,5.0551,5.2059,5.2849,5.4124,5.4426,5.4762,5.5415,5.6043,5.6771,5.7801,5.8478,5.9257,5.9784,5.9697,6.0756,6.1827,6.2543,6.2784,6.2772,6.2822,6.2822,6.2822,6.2847,6.2759,6.2759,6.2898,6.3048,6.3564,6.346,6.326,6.329,6.3751,6.2935,6.138,6.0064,5.8921,5.8016,5.7397,6.09,6.3269,6.467,6.652,6.8807,7.0958,7.1485,7.2012,7.2514,7.2841,7.3142,7.3669,7.4247,7.4849,7.5527,7.5804,7.6055,7.6055,7.6055,7.6055,7.608,7.6205,7.6582,0.9843,0.9288,0.2836,0.3776,0.9282,0.9958,0.8226,0.7121,0.957,1.0264,0.821,0.0,0.0,0.0,0.0,-0.3495,-0.9192,-0.2956,-0.0536,0.2545,0.6849,0.9825,1.101,1.1939,1.2507,1.1955,1.3837,1.3712,1.3797,1.8003,2.0331,2.2566,2.2674,2.2819,2.401,2.6512,2.875,2.9175,2.9502,2.8059,2.641,2.5718,2.7173,3.0379,3.3117,3.5887,3.9023,4.374,4.5377,4.3973,4.6456,4.6825,4.5976,4.8109,4.9509,5.1269,5.2632,5.4077,5.4905,5.5333,5.5917,5.6872,5.7801,5.8529,5.9006,5.9759,6.0211,6.0537,6.1341,6.2079,6.2507,6.2759,6.2797,6.2873,6.2759,6.2505,6.239,6.244,6.2415,6.2834,6.2754,6.251,6.2711,6.2006,6.2666,6.2959,6.1051,5.9477,5.6832,5.5596,5.4699,5.5046,5.8982,6.1357,6.2548,6.5212,6.9301,7.1008,7.151,7.2037,7.2565,7.2816,7.2991,7.3544,7.4146,7.4674,7.5226,7.5678,7.6004,7.6055,7.608,7.613,7.6431,7.6758,7.7109,0.983,0.9563,0.7355,0.5617,0.4533,0.8895,0.9868,0.9024,1.0098,1.0778,1.0505,0.767,0.4031,0.0,0.0,-0.39,-0.9618,-0.837,-0.4163,0.0402,0.4827,0.8328,1.0079,1.1361,1.156,1.1368,1.2504,1.2814,1.2027,1.6118,1.9898,2.216,2.2966,2.3086,2.4289,2.6399,2.8269,2.919,2.8775,2.7274,2.6164,2.6922,2.9063,3.281,3.5924,3.9221,4.2607,4.6518,4.674,4.6267,4.7137,4.5926,4.4271,4.5976,4.7986,5.0698,5.2525,5.3854,5.5433,5.5861,5.6394,5.7399,5.8278,5.8981,5.9483,6.0136,6.0713,6.119,6.1718,6.2356,6.2596,6.2747,6.2847,6.2923,6.2695,6.2349,6.1639,6.1376,6.1039,6.0845,6.05,6.004,6.0393,6.0546,6.1542,6.2011,5.9817,5.7445,5.5103,5.3566,5.3231,5.4245,5.8169,6.0771,6.2156,6.5919,7.0347,7.1083,7.1585,7.2087,7.259,7.269,7.2941,7.3494,7.4021,7.4573,7.5126,7.5678,7.5979,7.603,7.613,7.623,7.6657,7.7185,7.7611,0.985,0.9934,1.0385,0.6566,0.1339,0.7679,1.0678,1.0652,1.0632,1.0758,1.0758,1.0404,0.8231,0.3761,0.0402,-0.39,-0.8246,-0.7828,-0.5789,-0.188,0.2286,0.7009,0.9777,1.0948,1.118,1.1084,1.1296,1.1358,1.292,1.5737,1.9518,2.2396,2.3668,2.3607,2.4268,2.6393,2.8711,2.9454,2.9075,2.7305,2.6212,2.7633,3.0814,3.468,3.8086,4.1955,4.54,4.861,4.8568,4.7303,4.6513,4.5509,4.3778,4.3132,4.5341,4.9135,5.2622,5.379,5.5521,5.6591,5.7097,5.8052,5.8654,5.9408,6.006,6.0487,6.104,6.1557,6.2094,6.2421,6.2822,6.2822,6.2126,6.1918,6.1757,6.1256,5.9962,5.9238,5.9041,5.8692,5.8379,5.8543,5.8031,5.8368,5.8657,5.934,5.8543,5.6209,5.4134,5.3191,5.3502,5.5224,5.8251,6.0285,6.2166,6.6602,7.0581,7.1334,7.1836,7.2213,7.2565,7.2665,7.2791,7.3142,7.372,7.4423,7.5,7.5527,7.5829,7.6055,7.613,7.6205,7.6733,7.726,7.7812,1.0022,0.9901,1.0201,0.6477,0.1738,0.7665,1.0658,1.0772,1.0765,1.0485,1.0219,1.0404,1.0564,0.8097,0.2819,-0.3224,-0.6472,-0.3897,-0.2957,-0.4456,0.0949,0.6966,1.006,1.1255,1.1212,1.1348,1.153,1.2544,1.4587,1.6046,1.9379,2.2512,2.4004,2.4679,2.4761,2.8141,3.0173,3.0628,3.0516,2.8148,2.7349,2.8271,3.1588,3.6052,4.0157,4.4288,4.7726,5.045,4.9931,4.7454,4.6939,4.5105,4.1654,4.1401,4.3207,4.6308,5.241,5.5238,5.6258,5.7296,5.7976,5.8554,5.9081,5.9784,6.0337,6.0839,6.1416,6.2119,6.2446,6.2509,6.2659,6.2545,6.1585,6.0604,6.0286,5.9609,5.8311,5.7357,5.72,5.6862,5.7242,5.7486,5.6566,5.615,5.6083,5.6274,5.6248,5.5139,5.337,5.3164,5.3672,5.5608,5.8218,6.0636,6.3038,6.7447,7.0472,7.146,7.2062,7.2414,7.2615,7.269,7.2816,7.2941,7.3594,7.4473,7.4925,7.5327,7.5703,7.6055,7.6055,7.623,7.6783,7.7335,7.7938,1.0022,1.0163,1.0317,0.9139,0.7517,0.9576,1.0672,1.0672,1.0525,0.9419,0.8061,0.9454,1.0705,0.8504,0.0,0.0,0.0,-0.2553,-0.2692,0.0,0.0,0.5649,0.9336,1.0994,1.1355,1.1409,1.1619,1.1858,1.2934,1.5263,1.8073,2.1089,2.4919,2.7008,2.7401,2.8465,2.7747,2.9727,2.874,2.7164,2.8023,2.9671,3.2777,3.8002,4.2333,4.6269,4.9364,5.1531,5.0359,4.7445,4.6882,4.4356,4.0666,4.0002,4.1758,4.4494,4.958,5.4286,5.6402,5.8001,5.8453,5.8956,5.9508,6.0211,6.0839,6.1391,6.1943,6.2208,6.232,6.1952,6.0886,6.0748,5.9996,5.8461,5.7861,5.7133,5.6239,5.6013,5.5629,5.5091,5.503,5.4675,5.3931,5.4539,5.4536,5.4593,5.4897,5.48,5.3384,5.3555,5.4004,5.5911,5.82,6.0812,6.3981,6.7907,7.0613,7.1761,7.2263,7.259,7.2715,7.274,7.2991,7.3192,7.387,7.4548,7.5075,7.5552,7.5829,7.6055,7.5633,7.6232,7.7159,7.7637,7.8063,1.0811,1.0431,1.0493,1.0656,1.0518,0.9436,0.8215,0.7684,0.9448,0.9308,0.7675,0.7416,0.6745,0.5386,0.0,0.0,0.0,0.0,0.0,0.0,0.0,0.0,0.6477,1.0137,1.1348,1.1525,1.1749,1.2004,1.3344,1.5104,1.8435,2.2459,2.5716,2.8175,2.9152,2.8857,2.8694,3.006,2.9048,2.7463,2.8981,3.163,3.5564,3.9878,4.4142,4.8403,5.0234,5.078,5.041,4.7904,4.5679,4.347,4.0116,3.8577,4.0367,4.3121,4.8586,5.3671,5.6897,5.8328,5.8805,5.9408,6.001,6.0663,6.1291,6.1768,6.222,6.2408,6.2092,6.0886,5.9739,5.9465,5.7892,5.6354,5.576,5.518,5.4299,5.4044,5.3937,5.3255,5.3185,5.2324,5.209,5.2639,5.337,5.3526,5.3678,5.3516,5.3555,5.3848,5.4365,5.591,5.8252,6.1425,6.4689,6.8201,7.0601,7.19,7.2439,7.2715,7.274,7.274,7.3117,7.3494,7.4071,7.4674,7.5352,7.5804,7.5559,7.4987,7.4138,7.5356,7.7284,7.766,7.7657,1.1909,1.0714,1.0733,1.0751,1.0117,0.6853,0.3354,0.094,0.7277,0.9747,0.9606,0.269,0.0,0.0,0.0,0.0,0.0,0.0,0.0,0.0,0.0,0.0,0.0,0.7491,1.0132,1.1372,1.1894,1.2532,1.4625,1.6674,1.9966,2.3645,2.641,2.8904,3.0002,3.0178,3.0303,3.0639,2.9351,2.8129,2.8909,3.4707,3.8648,4.2586,4.6164,4.9766,5.1223,5.1138,4.9368,4.7175,4.4956,4.1832,3.886,3.6011,3.8581,4.3299,5.0076,5.4051,5.7373,5.8428,5.9357,6.0035,6.0311,6.1014,6.1617,6.2044,6.2421,6.1968,6.1408,6.0027,5.904,5.7224,5.553,5.4679,5.4066,5.3234,5.2175,5.1794,5.2008,5.1893,5.2011,5.1894,5.2363,5.2773,5.3144,5.3437,5.3711,5.3789,5.3828,5.3848,5.4365,5.5214,5.8176,6.1973,6.5307,6.8611,7.0734,7.2339,7.2514,7.274,7.274,7.2891,7.3318,7.377,7.4222,7.4824,7.5578,7.5484,7.4938,7.4138,7.3082,7.3025,7.4666,7.619,7.6691,1.1791,1.0465,1.0622,1.0778,0.9728,0.4168,0.0941,0.0538,0.2423,0.0,0.2961,0.0,0.0,0.0,0.0,0.0,0.0,0.0,0.0,0.0,0.0,0.0,0.0,0.5213,0.8719,1.0819,1.1921,1.2339,1.3652,1.6469,1.9671,2.236,2.639,2.8943,3.0239,3.0033,3.0718,3.0688,2.9249,2.8417,3.0685,3.6462,4.1113,4.5764,4.8117,5.1181,5.1976,5.0857,4.8794,4.686,4.3476,4.0002,3.6259,3.5081,3.705,4.5287,5.0231,5.3725,5.7194,5.8755,5.9734,6.0613,6.0889,6.1266,6.1868,6.2345,6.2647,6.2002,6.0243,5.8799,5.7033,5.5114,5.3611,5.2621,5.2155,5.2028,5.1289,5.1445,5.1504,5.1797,5.1894,5.2305,5.2754,5.3066,5.3418,5.3711,5.3906,5.3984,5.4023,5.4023,5.4121,5.497,5.8482,6.2499,6.5506,6.866,7.0675,7.2539,7.2665,7.2791,7.2891,7.3117,7.3569,7.4121,7.4749,7.5301,7.5854,7.5608,7.4987,7.3082,7.2066,7.1837,7.1938,7.3265,7.5176,1.1783,1.0472,1.0629,1.0652,0.9466,0.0,0.0,0.0,0.0,0.0,0.0,0.0,0.0,0.0,0.0,0.0,0.0,0.0,0.0,0.0,0.0,0.0,0.0,0.4071,0.8029,1.0432,1.2017,1.26,1.4247,1.7452,2.1014,2.3304,2.668,2.9205,3.0575,3.0291,3.0479,3.0253,2.9398,2.8261,3.1543,3.7521,4.4315,4.8822,5.0651,5.1771,5.2189,5.041,4.7881,4.5509,4.1822,3.8006,3.5261,3.4718,3.745,4.5005,4.9563,5.2917,5.6148,5.8823,5.9979,6.0964,6.1391,6.1818,6.2195,6.2621,6.267,6.2423,5.9521,5.7114,5.5071,5.3029,5.1677,5.0495,5.0738,5.0957,5.1191,5.1406,5.1699,5.2031,5.2402,5.2812,5.3164,5.3437,5.3652,5.3867,5.3965,5.4004,5.4023,5.4023,5.4101,5.4482,5.8863,6.3245,6.5909,6.8489,7.1088,7.2615,7.2665,7.2816,7.3016,7.3393,7.3845,7.4598,7.5402,7.5804,7.6055,7.5832,7.5211,7.288,6.9802,6.8581,6.8436,6.9652,7.1817,1.1901,1.0183,0.9952,0.9285,0.8918,0.0,0.0,0.0,0.0,0.0,0.0,0.0,0.0,0.0,0.0,0.0,0.0,0.0,0.0,0.0,0.0,0.0,0.0,0.4371,0.8071,1.0847,1.277,1.4074,1.6469,1.9382,2.2331,2.5077,2.7401,2.9601,3.1264,3.0115,3.0284,3.1024,2.9105,2.7547,3.0091,3.7491,4.7016,5.1582,5.2632,5.2654,5.1583,4.9178,4.5762,4.3145,3.9291,3.5262,3.3615,3.4719,3.8594,4.3036,4.8132,5.2127,5.541,5.8402,6.018,6.1115,6.1692,6.2144,6.2521,6.2722,6.272,6.185,5.9497,5.6964,5.4851,5.218,5.0218,4.998,5.043,5.0898,5.1289,5.1543,5.1875,5.2246,5.2676,5.3086,5.3476,5.373,5.3808,5.3984,5.4023,5.4023,5.4043,5.4043,5.4238,5.4561,5.9106,6.3402,6.5391,6.8101,7.1377,7.2715,7.274,7.2991,7.3268,7.3694,7.4146,7.495,7.5753,7.5879,7.6055,7.541,7.351,7.0147,6.7353,6.5131,6.5101,6.6143,6.8218,1.2783,0.9813,0.4766,0.255,0.0,0.0807,0.0,0.0,0.0,0.0,0.0,0.0,0.2692,0.5658,0.2423,0.0,0.0,0.0,0.0,0.0,0.0,0.0,0.6873,0.7043,0.9008,1.1321,1.3862,1.6478,1.918,2.1291,2.2805,2.5077,2.7459,2.9725,3.141,3.0069,3.0098,3.115,2.8878,2.7309,2.8619,3.6018,4.4654,5.0063,5.2749,5.1845,5.0079,4.6849,4.4075,4.1406,3.4196,3.0013,2.7649,3.2411,3.687,4.1321,4.668,5.0966,5.4657,5.7947,6.0064,6.1165,6.1718,6.2245,6.2621,6.2747,6.2191,6.1081,5.9182,5.6686,5.4233,5.1209,4.9336,4.9844,5.0312,5.082,5.1348,5.1699,5.2031,5.2461,5.2891,5.3281,5.3652,5.3906,5.3984,5.4023,5.4023,5.4023,5.4043,5.4101,5.4551,5.5532,5.9719,6.3385,6.5112,6.7711,7.0828,7.2576,7.2816,7.3142,7.3569,7.4247,7.4925,7.5427,7.5979,7.5832,7.4987,7.351,7.1406,6.825,6.5906,6.3888,6.2293,6.268,6.4784,1.254,0.9954,0.6374,0.2823,0.0,0.0,0.0,0.0,0.0,0.0,0.0,0.0,0.2422,0.7018,0.4583,0.1899,0.0,0.0,0.0,0.0,0.362,0.0,0.9254,0.9601,1.1596,1.3784,1.6703,1.9661,2.159,2.2992,2.422,2.5553,2.7633,2.9427,3.0798,2.9822,2.9709,3.0404,2.8347,2.7661,2.8156,3.5366,4.3104,4.8758,5.0459,5.0032,4.8701,4.5335,4.1227,3.7525,3.1073,2.8978,2.9106,3.326,3.7325,4.122,4.581,5.0446,5.3796,5.7005,5.9736,6.0737,6.1994,6.2647,6.0954,6.091,6.0628,5.9323,5.6339,5.3814,5.2048,4.9519,4.9433,4.9941,5.0234,5.0625,5.1113,5.1562,5.1875,5.2226,5.2656,5.3086,5.3476,5.3887,5.3965,5.4023,5.4023,5.4062,5.4062,5.4238,5.4687,5.5869,5.9453,6.2482,6.4496,6.7101,7.0468,7.179,7.2701,7.3619,7.4272,7.505,7.5728,7.5484,7.5186,7.4987,7.3937,7.2246,7.056,6.804,6.5542,6.3052,6.148,6.0371,6.2254,1.168,0.9883,1.0306,0.6472,0.0,0.0,0.0,0.0,0.0,0.0,0.0,0.0,0.0,0.2961,0.5552,0.3957,0.0,0.0,0.0,0.0,0.0,0.934,1.0578,1.171,1.3629,1.6193,1.9298,2.0923,2.236,2.3804,2.5006,2.5949,2.7449,2.9105,2.9344,2.9493,2.9754,2.9498,2.8565,2.7934,3.0483,3.4107,4.0974,4.5256,4.7547,4.7781,4.6624,4.3757,3.842,3.4752,3.0465,2.9325,3.0287,3.3892,3.7541,4.1458,4.546,4.9107,5.2235,5.5906,5.8313,6.0403,6.1808,6.1713,6.0003,5.9158,5.8858,5.6649,5.3679,5.2048,5.0439,4.9315,4.962,5.0039,5.0273,5.0566,5.1055,5.1465,5.1738,5.2051,5.248,5.291,5.334,5.3769,5.3965,5.4004,5.4043,5.4082,5.418,5.4473,5.4824,5.5612,5.749,6.0548,6.3055,6.6511,6.9696,7.1073,7.2088,7.366,7.4705,7.4417,7.4366,7.4489,7.4138,7.288,7.2043,7.0354,6.8669,6.6986,6.5413,6.3176,6.1495,6.0625,6.1113,1.1254,0.6527,0.9436,0.6472,0.0,0.0,0.0,0.0,0.0,0.0,0.0,0.0,0.1345,0.416,0.204,0.2335,0.6529,0.7196,0.644,0.0,0.7557,0.9318,1.1147,1.2934,1.4852,1.7761,2.0785,2.2335,2.334,2.4494,2.5224,2.5657,2.7922,2.912,2.9234,2.9383,2.9591,2.9196,2.8706,2.8085,3.1033,3.4565,3.8375,4.2221,4.536,4.4379,4.2718,4.0002,3.6534,3.3766,3.2249,3.1169,3.2705,3.543,3.9062,4.2229,4.5927,4.8021,5.1195,5.4607,5.7173,5.9007,6.0441,6.1218,5.9787,5.8469,5.711,5.4078,5.2027,5.2027,5.0803,4.938,4.9219,5.0078,5.0586,5.0937,5.1367,5.1484,5.1641,5.2031,5.2461,5.2891,5.332,5.3691,5.3984,5.4043,5.4101,5.418,5.4433,5.4707,5.5019,5.5769,5.6543,5.8287,6.0817,6.5039,6.8112,6.9889,7.1321,7.2495,7.3255,7.292,7.2783,7.2426,7.0766,6.9086,6.825,6.825,6.6774,6.5133,6.4654,6.3321,6.1655,6.084,6.1308]}]]